Wetterdaten: Sonntag, 18.11.2018
Datum Zeit Temp. A. Pool Temp. Temp. 5cm Feuchte A. Luftdruck Regen Wind Richtung Richtung Sonnenschein ET UV Solar Taupunkt Windchill Windben Empfang
18.11.2018 00:00 0,0 C 5,6 C -1,1 C 84 % 1028,7 hPa 0,0 l/m 15,6 km/h (3 Bft) O-NO 65 0 min 0,000 mm 0,0 UV-I 0 W/m -2,4 C -7,3 C 19,3 km/h (3 Bft) 100,00 %
18.11.2018 00:02 0,0 C 5,6 C -1,1 C 84 % 1028,7 hPa 0,0 l/m 16,3 km/h (3 Bft) O 80 0 min 0,000 mm 0,0 UV-I 0 W/m -2,4 C -7,7 C 22,5 km/h (4 Bft) 10,00 %
18.11.2018 00:04 -0,1 C 5,6 C -1,1 C 84 % 1028,7 hPa 0,0 l/m 16,4 km/h (3 Bft) O-SO 119 0 min 0,000 mm 0,0 UV-I 0 W/m -2,5 C -7,9 C 20,9 km/h (4 Bft) 88,24 %
18.11.2018 00:06 -0,1 C 5,6 C -1,1 C 84 % 1028,7 hPa 0,0 l/m 16,3 km/h (3 Bft) O-NO 73 0 min 0,000 mm 0,0 UV-I 0 W/m -2,5 C -7,9 C 22,5 km/h (4 Bft) 97,44 %
18.11.2018 00:08 -0,1 C 5,6 C -1,1 C 84 % 1028,7 hPa 0,0 l/m 13,6 km/h (3 Bft) O-NO 67 0 min 0,000 mm 0,0 UV-I 0 W/m -2,5 C -6,2 C 17,7 km/h (3 Bft) 95,74 %
18.11.2018 00:10 -0,1 C 5,6 C -1,1 C 84 % 1028,7 hPa 0,0 l/m 15,8 km/h (3 Bft) O 82 0 min 0,000 mm 0,0 UV-I 0 W/m -2,5 C -7,6 C 24,1 km/h (4 Bft) 97,87 %
18.11.2018 00:12 -0,1 C 5,6 C -1,1 C 84 % 1028,6 hPa 0,0 l/m 18,9 km/h (3 Bft) O-NO 71 0 min 0,000 mm 0,0 UV-I 0 W/m -2,5 C -9,2 C 29,0 km/h (5 Bft) 96,00 %
18.11.2018 00:14 0,0 C 5,6 C -1,1 C 84 % 1028,6 hPa 0,0 l/m 18,8 km/h (3 Bft) O 80 0 min 0,000 mm 0,0 UV-I 0 W/m -2,4 C -9,1 C 29,0 km/h (5 Bft) 97,87 %
18.11.2018 00:16 0,0 C 5,6 C -1,1 C 84 % 1028,6 hPa 0,0 l/m 15,5 km/h (3 Bft) O-NO 68 0 min 0,000 mm 0,0 UV-I 0 W/m -2,4 C -7,3 C 20,9 km/h (4 Bft) 97,87 %
18.11.2018 00:18 0,0 C 5,6 C -1,1 C 84 % 1028,8 hPa 0,0 l/m 18,6 km/h (3 Bft) O-NO 69 0 min 0,000 mm 0,0 UV-I 0 W/m -2,4 C -9,0 C 24,1 km/h (4 Bft) 96,00 %
18.11.2018 00:20 0,0 C 5,6 C -1,1 C 84 % 1028,7 hPa 0,0 l/m 20,4 km/h (4 Bft) O 82 0 min 0,000 mm 0,0 UV-I 0 W/m -2,4 C -9,8 C 25,7 km/h (4 Bft) 93,62 %
18.11.2018 00:22 0,1 C 5,6 C -1,1 C 84 % 1028,7 hPa 0,0 l/m 17,6 km/h (3 Bft) O-NO 77 0 min 0,000 mm 0,0 UV-I 0 W/m -2,3 C -8,3 C 24,1 km/h (4 Bft) 94,00 %
18.11.2018 00:24 0,1 C 5,6 C -1,1 C 84 % 1028,6 hPa 0,0 l/m 16,5 km/h (3 Bft) O 82 0 min 0,000 mm 0,0 UV-I 0 W/m -2,3 C -7,7 C 20,9 km/h (4 Bft) 97,87 %
18.11.2018 00:26 0,1 C 5,6 C -1,1 C 83 % 1028,6 hPa 0,0 l/m 16,2 km/h (3 Bft) NO 56 0 min 0,000 mm 0,0 UV-I 0 W/m -2,4 C -7,6 C 22,5 km/h (4 Bft) 100,00 %
18.11.2018 00:28 0,1 C 5,6 C -1,1 C 84 % 1028,7 hPa 0,0 l/m 17,2 km/h (3 Bft) O-NO 67 0 min 0,000 mm 0,0 UV-I 0 W/m -2,3 C -8,1 C 25,7 km/h (4 Bft) 100,00 %
18.11.2018 00:30 0,1 C 5,6 C -1,1 C 83 % 1028,6 hPa 0,0 l/m 12,4 km/h (3 Bft) O-NO 67 0 min 0,000 mm 0,0 UV-I 0 W/m -2,4 C -5,2 C 19,3 km/h (3 Bft) 100,00 %
18.11.2018 00:32 0,1 C 5,6 C -1,1 C 83 % 1028,6 hPa 0,0 l/m 15,7 km/h (3 Bft) O-NO 61 0 min 0,000 mm 0,0 UV-I 0 W/m -2,4 C -7,3 C 27,4 km/h (4 Bft) 98,00 %
18.11.2018 00:34 -0,1 C 5,6 C -1,1 C 83 % 1028,7 hPa 0,0 l/m 19,5 km/h (3 Bft) NO 46 0 min 0,000 mm 0,0 UV-I 0 W/m -2,6 C -9,5 C 27,4 km/h (4 Bft) 100,00 %
18.11.2018 00:36 -0,1 C 5,6 C -1,1 C 83 % 1028,8 hPa 0,0 l/m 17,5 km/h (3 Bft) NO 50 0 min 0,000 mm 0,0 UV-I 0 W/m -2,6 C -8,5 C 25,7 km/h (4 Bft) 93,62 %
18.11.2018 00:38 -0,1 C 5,6 C -1,1 C 84 % 1028,8 hPa 0,0 l/m 22,1 km/h (4 Bft) N-NO 32 0 min 0,000 mm 0,0 UV-I 0 W/m -2,5 C -10,7 C 30,6 km/h (5 Bft) 97,44 %
18.11.2018 00:40 -0,1 C 5,6 C -1,1 C 84 % 1028,8 hPa 0,0 l/m 18,3 km/h (3 Bft) O-NO 58 0 min 0,000 mm 0,0 UV-I 0 W/m -2,5 C -8,9 C 25,7 km/h (4 Bft) 98,00 %
18.11.2018 00:42 -0,1 C 5,6 C -1,1 C 83 % 1028,9 hPa 0,0 l/m 20,9 km/h (4 Bft) O-NO 65 0 min 0,000 mm 0,0 UV-I 0 W/m -2,6 C -10,2 C 25,7 km/h (4 Bft) 100,00 %
18.11.2018 00:44 -0,1 C 5,6 C -1,1 C 83 % 1028,8 hPa 0,0 l/m 17,1 km/h (3 Bft) O-NO 67 0 min 0,000 mm 0,0 UV-I 0 W/m -2,6 C -8,3 C 29,0 km/h (5 Bft) 97,87 %
18.11.2018 00:46 -0,1 C 5,6 C -1,1 C 83 % 1028,8 hPa 0,0 l/m 20,3 km/h (4 Bft) NO 55 0 min 0,000 mm 0,0 UV-I 0 W/m -2,6 C -9,9 C 30,6 km/h (5 Bft) 100,00 %
18.11.2018 00:48 -0,1 C 5,6 C -1,1 C 83 % 1028,8 hPa 0,0 l/m 18,2 km/h (3 Bft) NO 52 0 min 0,000 mm 0,0 UV-I 0 W/m -2,6 C -8,9 C 27,4 km/h (4 Bft) 97,87 %
18.11.2018 00:50 -0,2 C 5,6 C -1,1 C 84 % 1028,7 hPa 0,0 l/m 18,4 km/h (3 Bft) NO 56 0 min 0,000 mm 0,0 UV-I 0 W/m -2,6 C -9,1 C 25,7 km/h (4 Bft) 93,62 %
18.11.2018 00:52 -0,2 C 5,6 C -1,1 C 84 % 1028,8 hPa 0,0 l/m 22,4 km/h (4 Bft) O-NO 66 0 min 0,000 mm 0,0 UV-I 0 W/m -2,6 C -11,0 C 27,4 km/h (4 Bft) 98,00 %
18.11.2018 00:54 -0,2 C 5,6 C -1,1 C 84 % 1028,7 hPa 0,0 l/m 20,6 km/h (4 Bft) N-NO 26 0 min 0,000 mm 0,0 UV-I 0 W/m -2,6 C -10,2 C 27,4 km/h (4 Bft) 95,74 %
18.11.2018 00:56 -0,2 C 5,6 C -1,1 C 84 % 1028,6 hPa 0,0 l/m 21,6 km/h (4 Bft) NO 38 0 min 0,000 mm 0,0 UV-I 0 W/m -2,6 C -10,6 C 29,0 km/h (5 Bft) 95,74 %
18.11.2018 00:58 -0,2 C 5,6 C -1,1 C 84 % 1028,6 hPa 0,0 l/m 22,1 km/h (4 Bft) O-NO 59 0 min 0,000 mm 0,0 UV-I 0 W/m -2,6 C -10,8 C 27,4 km/h (4 Bft) 94,74 %
18.11.2018 01:00 -0,2 C 5,6 C -1,1 C 84 % 1028,6 hPa 0,0 l/m 19,8 km/h (3 Bft) NO 47 0 min 0,025 mm 0,0 UV-I 0 W/m -2,6 C -9,8 C 29,0 km/h (5 Bft) 98,00 %
18.11.2018 01:02 -0,2 C 5,6 C -1,1 C 83 % 1028,6 hPa 0,0 l/m 23,3 km/h (4 Bft) O-NO 59 0 min 0,000 mm 0,0 UV-I 0 W/m -2,7 C -11,3 C 30,6 km/h (5 Bft) 96,00 %
18.11.2018 01:04 -0,2 C 5,6 C -1,1 C 83 % 1028,6 hPa 0,0 l/m 21,5 km/h (4 Bft) O-NO 63 0 min 0,000 mm 0,0 UV-I 0 W/m -2,7 C -10,6 C 29,0 km/h (5 Bft) 97,87 %
18.11.2018 01:06 -0,1 C 5,6 C -1,1 C 83 % 1028,5 hPa 0,0 l/m 17,8 km/h (3 Bft) O-NO 63 0 min 0,000 mm 0,0 UV-I 0 W/m -2,6 C -8,7 C 27,4 km/h (4 Bft) 93,62 %
18.11.2018 01:08 -0,1 C 5,6 C -1,1 C 83 % 1028,6 hPa 0,0 l/m 18,5 km/h (3 Bft) NO 54 0 min 0,000 mm 0,0 UV-I 0 W/m -2,6 C -9,0 C 27,4 km/h (4 Bft) 93,62 %
18.11.2018 01:10 -0,1 C 5,6 C -1,1 C 83 % 1028,5 hPa 0,0 l/m 17,0 km/h (3 Bft) NO 54 0 min 0,000 mm 0,0 UV-I 0 W/m -2,6 C -8,2 C 27,4 km/h (4 Bft) 97,87 %
18.11.2018 01:12 -0,1 C 5,6 C -1,1 C 83 % 1028,6 hPa 0,0 l/m 18,5 km/h (3 Bft) NO 44 0 min 0,000 mm 0,0 UV-I 0 W/m -2,6 C -9,0 C 25,7 km/h (4 Bft) 93,62 %
18.11.2018 01:14 -0,2 C 5,6 C -1,1 C 83 % 1028,5 hPa 0,0 l/m 17,9 km/h (3 Bft) O-NO 71 0 min 0,000 mm 0,0 UV-I 0 W/m -2,7 C -8,9 C 24,1 km/h (4 Bft) 95,74 %
18.11.2018 01:16 -0,2 C 5,6 C -1,1 C 83 % 1028,4 hPa 0,0 l/m 17,4 km/h (3 Bft) O 84 0 min 0,000 mm 0,0 UV-I 0 W/m -2,7 C -8,6 C 24,1 km/h (4 Bft) 93,75 %
18.11.2018 01:18 -0,2 C 5,6 C -1,1 C 83 % 1028,3 hPa 0,0 l/m 21,1 km/h (4 Bft) O-NO 72 0 min 0,000 mm 0,0 UV-I 0 W/m -2,7 C -10,4 C 25,7 km/h (4 Bft) 89,80 %
18.11.2018 01:20 -0,2 C 5,6 C -1,1 C 83 % 1028,2 hPa 0,0 l/m 20,2 km/h (4 Bft) O 88 0 min 0,000 mm 0,0 UV-I 0 W/m -2,7 C -10,0 C 25,7 km/h (4 Bft) 93,75 %
18.11.2018 01:22 -0,3 C 5,6 C -1,1 C 83 % 1028,2 hPa 0,0 l/m 21,7 km/h (4 Bft) O 94 0 min 0,000 mm 0,0 UV-I 0 W/m -2,8 C -10,8 C 32,2 km/h (5 Bft) 95,12 %
18.11.2018 01:24 -0,2 C 5,6 C -1,1 C 83 % 1028,1 hPa 0,0 l/m 24,3 km/h (4 Bft) O 83 0 min 0,000 mm 0,0 UV-I 0 W/m -2,7 C -11,7 C 32,2 km/h (5 Bft) 93,62 %
18.11.2018 01:26 -0,2 C 5,6 C -1,1 C 82 % 1028,2 hPa 0,0 l/m 26,7 km/h (4 Bft) O 80 0 min 0,000 mm 0,0 UV-I 0 W/m -2,9 C -12,6 C 35,4 km/h (5 Bft) 95,74 %
18.11.2018 01:28 -0,2 C 5,6 C -1,1 C 82 % 1028,2 hPa 0,0 l/m 22,3 km/h (4 Bft) O-NO 76 0 min 0,000 mm 0,0 UV-I 0 W/m -2,9 C -10,9 C 32,2 km/h (5 Bft) 91,49 %
18.11.2018 01:30 -0,2 C 5,6 C -1,1 C 82 % 1028,1 hPa 0,0 l/m 23,2 km/h (4 Bft) O-NO 62 0 min 0,000 mm 0,0 UV-I 0 W/m -2,9 C -11,3 C 29,0 km/h (5 Bft) 98,00 %
18.11.2018 01:32 -0,2 C 5,6 C -1,1 C 82 % 1028,1 hPa 0,0 l/m 21,7 km/h (4 Bft) O-NO 78 0 min 0,000 mm 0,0 UV-I 0 W/m -2,9 C -10,7 C 30,6 km/h (5 Bft) 98,00 %
18.11.2018 01:34 -0,2 C 5,6 C -1,1 C 82 % 1028,2 hPa 0,0 l/m 18,3 km/h (3 Bft) O-NO 65 0 min 0,000 mm 0,0 UV-I 0 W/m -2,9 C -9,1 C 27,4 km/h (4 Bft) 94,29 %
18.11.2018 01:36 -0,2 C 5,6 C -1,1 C 82 % 1028,2 hPa 0,0 l/m 19,4 km/h (3 Bft) O-NO 65 0 min 0,000 mm 0,0 UV-I 0 W/m -2,9 C -9,6 C 25,7 km/h (4 Bft) 98,11 %
18.11.2018 01:38 -0,2 C 5,6 C -1,1 C 82 % 1028,2 hPa 0,0 l/m 22,2 km/h (4 Bft) O-NO 76 0 min 0,000 mm 0,0 UV-I 0 W/m -2,9 C -10,9 C 29,0 km/h (5 Bft) 97,87 %
18.11.2018 01:40 -0,3 C 5,6 C -1,1 C 81 % 1028,2 hPa 0,0 l/m 16,6 km/h (3 Bft) O-NO 68 0 min 0,000 mm 0,0 UV-I 0 W/m -3,2 C -8,3 C 20,9 km/h (4 Bft) 97,87 %
18.11.2018 01:42 -0,3 C 5,6 C -1,1 C 81 % 1028,2 hPa 0,0 l/m 19,3 km/h (3 Bft) O-NO 78 0 min 0,000 mm 0,0 UV-I 0 W/m -3,2 C -9,7 C 25,7 km/h (4 Bft) 95,74 %
18.11.2018 01:44 -0,3 C 5,6 C -1,1 C 81 % 1028,3 hPa 0,0 l/m 16,2 km/h (3 Bft) NO 56 0 min 0,000 mm 0,0 UV-I 0 W/m -3,2 C -8,1 C 20,9 km/h (4 Bft) 100,00 %
18.11.2018 01:46 -0,4 C 5,6 C -1,7 C 82 % 1028,3 hPa 0,0 l/m 16,7 km/h (3 Bft) N-NO 28 0 min 0,000 mm 0,0 UV-I 0 W/m -3,1 C -8,5 C 22,5 km/h (4 Bft) 100,00 %
18.11.2018 01:48 -0,5 C 5,6 C -1,7 C 82 % 1028,2 hPa 0,0 l/m 19,9 km/h (4 Bft) NO 54 0 min 0,000 mm 0,0 UV-I 0 W/m -3,2 C -10,2 C 25,7 km/h (4 Bft) 98,00 %
18.11.2018 01:50 -0,5 C 5,6 C -1,7 C 82 % 1028,3 hPa 0,0 l/m 19,9 km/h (4 Bft) NO 40 0 min 0,000 mm 0,0 UV-I 0 W/m -3,2 C -10,2 C 27,4 km/h (4 Bft) 97,87 %
18.11.2018 01:52 -0,5 C 5,6 C -1,7 C 82 % 1028,3 hPa 0,0 l/m 17,0 km/h (3 Bft) O-NO 69 0 min 0,000 mm 0,0 UV-I 0 W/m -3,2 C -8,7 C 22,5 km/h (4 Bft) 100,00 %
18.11.2018 01:54 -0,5 C 5,6 C -1,7 C 82 % 1028,3 hPa 0,0 l/m 18,6 km/h (3 Bft) NO 56 0 min 0,000 mm 0,0 UV-I 0 W/m -3,2 C -9,6 C 27,4 km/h (4 Bft) 95,83 %
18.11.2018 01:56 -0,5 C 5,6 C -1,7 C 82 % 1028,3 hPa 0,0 l/m 23,1 km/h (4 Bft) O-NO 67 0 min 0,000 mm 0,0 UV-I 0 W/m -3,2 C -11,6 C 30,6 km/h (5 Bft) 97,87 %
18.11.2018 01:58 -0,4 C 5,6 C -1,1 C 82 % 1028,2 hPa 0,0 l/m 25,0 km/h (4 Bft) NO 56 0 min 0,000 mm 0,0 UV-I 0 W/m -3,1 C -12,3 C 32,2 km/h (5 Bft) 97,87 %
18.11.2018 02:00 -0,4 C 5,6 C -1,1 C 81 % 1028,2 hPa 0,0 l/m 24,3 km/h (4 Bft) O-NO 70 0 min 0,026 mm 0,0 UV-I 0 W/m -3,3 C -12,0 C 35,4 km/h (5 Bft) 100,00 %
18.11.2018 02:02 -0,3 C 5,6 C -1,1 C 81 % 1028,1 hPa 0,0 l/m 26,8 km/h (4 Bft) O-NO 63 0 min 0,000 mm 0,0 UV-I 0 W/m -3,2 C -12,8 C 35,4 km/h (5 Bft) 100,00 %
18.11.2018 02:04 -0,3 C 5,6 C -1,1 C 81 % 1028,0 hPa 0,0 l/m 24,2 km/h (4 Bft) O-NO 70 0 min 0,000 mm 0,0 UV-I 0 W/m -3,2 C -11,8 C 33,8 km/h (5 Bft) 95,74 %
18.11.2018 02:06 -0,3 C 5,6 C -1,1 C 80 % 1028,1 hPa 0,0 l/m 26,0 km/h (4 Bft) O-NO 72 0 min 0,000 mm 0,0 UV-I 0 W/m -3,3 C -12,5 C 32,2 km/h (5 Bft) 95,74 %
18.11.2018 02:08 -0,3 C 5,6 C -1,1 C 80 % 1028,1 hPa 0,0 l/m 23,7 km/h (4 Bft) O-NO 71 0 min 0,000 mm 0,0 UV-I 0 W/m -3,3 C -11,6 C 35,4 km/h (5 Bft) 97,87 %
18.11.2018 02:10 -0,2 C 5,6 C -1,1 C 79 % 1028,3 hPa 0,0 l/m 25,4 km/h (4 Bft) O-NO 72 0 min 0,000 mm 0,0 UV-I 0 W/m -3,4 C -12,1 C 33,8 km/h (5 Bft) 97,87 %
18.11.2018 02:12 -0,2 C 5,6 C -0,6 C 79 % 1028,2 hPa 0,0 l/m 25,8 km/h (4 Bft) O-NO 71 0 min 0,000 mm 0,0 UV-I 0 W/m -3,4 C -12,3 C 37,0 km/h (5 Bft) 97,87 %
18.11.2018 02:14 -0,1 C 5,6 C -0,6 C 79 % 1028,2 hPa 0,0 l/m 23,9 km/h (4 Bft) O-NO 75 0 min 0,000 mm 0,0 UV-I 0 W/m -3,3 C -11,4 C 33,8 km/h (5 Bft) 100,00 %
18.11.2018 02:16 -0,1 C 5,6 C -0,6 C 78 % 1028,1 hPa 0,0 l/m 24,8 km/h (4 Bft) NO 46 0 min 0,000 mm 0,0 UV-I 0 W/m -3,5 C -11,8 C 33,8 km/h (5 Bft) 100,00 %
18.11.2018 02:18 -0,1 C 5,6 C -1,1 C 78 % 1028,1 hPa 0,0 l/m 21,4 km/h (4 Bft) O-NO 74 0 min 0,000 mm 0,0 UV-I 0 W/m -3,5 C -10,4 C 29,0 km/h (5 Bft) 100,00 %
18.11.2018 02:20 -0,1 C 5,6 C -1,1 C 78 % 1028,1 hPa 0,0 l/m 21,4 km/h (4 Bft) O-NO 78 0 min 0,000 mm 0,0 UV-I 0 W/m -3,5 C -10,4 C 27,4 km/h (4 Bft) 95,74 %
18.11.2018 02:22 -0,2 C 5,6 C -1,1 C 78 % 1028,2 hPa 0,0 l/m 21,7 km/h (4 Bft) O-NO 62 0 min 0,000 mm 0,0 UV-I 0 W/m -3,6 C -10,7 C 29,0 km/h (5 Bft) 100,00 %
18.11.2018 02:24 -0,2 C 5,6 C -1,1 C 78 % 1028,1 hPa 0,0 l/m 17,1 km/h (3 Bft) O-NO 69 0 min 0,000 mm 0,0 UV-I 0 W/m -3,6 C -8,4 C 24,1 km/h (4 Bft) 97,87 %
18.11.2018 02:26 -0,2 C 5,6 C -1,1 C 78 % 1028,0 hPa 0,0 l/m 21,6 km/h (4 Bft) NO 56 0 min 0,000 mm 0,0 UV-I 0 W/m -3,6 C -10,6 C 29,0 km/h (5 Bft) 97,87 %
18.11.2018 02:28 -0,3 C 5,6 C -1,1 C 79 % 1028,1 hPa 0,0 l/m 22,4 km/h (4 Bft) NO 56 0 min 0,000 mm 0,0 UV-I 0 W/m -3,5 C -11,1 C 30,6 km/h (5 Bft) 95,74 %
18.11.2018 02:30 -0,4 C 5,6 C -1,1 C 80 % 1028,0 hPa 0,0 l/m 20,0 km/h (4 Bft) NO 45 0 min 0,000 mm 0,0 UV-I 0 W/m -3,4 C -10,1 C 30,6 km/h (5 Bft) 95,83 %
18.11.2018 02:32 -0,5 C 5,6 C -1,1 C 80 % 1028,1 hPa 0,0 l/m 18,4 km/h (3 Bft) NO 50 0 min 0,000 mm 0,0 UV-I 0 W/m -3,5 C -9,5 C 25,7 km/h (4 Bft) 97,37 %
18.11.2018 02:34 -0,5 C 5,6 C -1,1 C 80 % 1028,1 hPa 0,0 l/m 18,1 km/h (3 Bft) O-NO 68 0 min 0,000 mm 0,0 UV-I 0 W/m -3,5 C -9,3 C 24,1 km/h (4 Bft) 93,62 %
18.11.2018 02:36 -0,4 C 5,6 C -1,1 C 80 % 1028,1 hPa 0,0 l/m 21,9 km/h (4 Bft) O 98 0 min 0,000 mm 0,0 UV-I 0 W/m -3,4 C -11,0 C 30,6 km/h (5 Bft) 93,62 %
18.11.2018 02:38 -0,4 C 5,6 C -1,1 C 80 % 1028,0 hPa 0,0 l/m 21,5 km/h (4 Bft) O 88 0 min 0,000 mm 0,0 UV-I 0 W/m -3,4 C -10,8 C 33,8 km/h (5 Bft) 93,88 %
18.11.2018 02:40 -0,3 C 5,6 C -1,1 C 80 % 1028,1 hPa 0,0 l/m 20,2 km/h (4 Bft) O 88 0 min 0,000 mm 0,0 UV-I 0 W/m -3,3 C -10,1 C 29,0 km/h (5 Bft) 93,62 %
18.11.2018 02:42 -0,3 C 5,6 C -1,1 C 80 % 1028,2 hPa 0,0 l/m 19,3 km/h (3 Bft) O-NO 59 0 min 0,000 mm 0,0 UV-I 0 W/m -3,3 C -9,7 C 27,4 km/h (4 Bft) 95,74 %
18.11.2018 02:44 -0,3 C 5,6 C -1,1 C 80 % 1028,0 hPa 0,0 l/m 17,5 km/h (3 Bft) O-NO 76 0 min 0,000 mm 0,0 UV-I 0 W/m -3,3 C -8,8 C 24,1 km/h (4 Bft) 95,74 %
18.11.2018 02:46 -0,3 C 5,6 C -1,1 C 80 % 1027,9 hPa 0,0 l/m 16,0 km/h (3 Bft) O-NO 74 0 min 0,000 mm 0,0 UV-I 0 W/m -3,3 C -7,9 C 20,9 km/h (4 Bft) 95,74 %
18.11.2018 02:48 -0,3 C 5,6 C -1,1 C 80 % 1027,9 hPa 0,0 l/m 15,1 km/h (3 Bft) O 94 0 min 0,000 mm 0,0 UV-I 0 W/m -3,3 C -7,4 C 20,9 km/h (4 Bft) 93,62 %
18.11.2018 02:50 -0,4 C 5,6 C -1,1 C 80 % 1027,9 hPa 0,0 l/m 17,9 km/h (3 Bft) O-NO 76 0 min 0,000 mm 0,0 UV-I 0 W/m -3,4 C -9,1 C 25,7 km/h (4 Bft) 93,62 %
18.11.2018 02:52 -0,4 C 5,6 C -1,1 C 80 % 1027,9 hPa 0,0 l/m 19,6 km/h (3 Bft) O 90 0 min 0,000 mm 0,0 UV-I 0 W/m -3,4 C -10,0 C 25,7 km/h (4 Bft) 95,74 %
18.11.2018 02:54 -0,4 C 5,6 C -1,1 C 81 % 1027,8 hPa 0,0 l/m 16,1 km/h (3 Bft) O-NO 57 0 min 0,000 mm 0,0 UV-I 0 W/m -3,3 C -8,1 C 24,1 km/h (4 Bft) 94,00 %
18.11.2018 02:56 -0,4 C 5,6 C -1,1 C 81 % 1027,8 hPa 0,0 l/m 19,3 km/h (3 Bft) O 82 0 min 0,000 mm 0,0 UV-I 0 W/m -3,3 C -9,8 C 25,7 km/h (4 Bft) 93,62 %
18.11.2018 02:58 -0,4 C 5,6 C -1,1 C 81 % 1027,7 hPa 0,0 l/m 19,4 km/h (3 Bft) O 81 0 min 0,000 mm 0,0 UV-I 0 W/m -3,3 C -9,9 C 30,6 km/h (5 Bft) 89,36 %
18.11.2018 03:00 -0,4 C 5,6 C -1,1 C 80 % 1027,8 hPa 0,0 l/m 17,9 km/h (3 Bft) O-NO 63 0 min 0,025 mm 0,0 UV-I 0 W/m -3,4 C -9,1 C 24,1 km/h (4 Bft) 91,67 %
18.11.2018 03:02 -0,4 C 5,6 C -1,1 C 80 % 1027,8 hPa 0,0 l/m 18,1 km/h (3 Bft) O 87 0 min 0,000 mm 0,0 UV-I 0 W/m -3,4 C -9,2 C 24,1 km/h (4 Bft) 95,74 %
18.11.2018 03:04 -0,3 C 5,6 C -1,1 C 80 % 1027,7 hPa 0,0 l/m 15,2 km/h (3 Bft) O-NO 78 0 min 0,000 mm 0,0 UV-I 0 W/m -3,3 C -7,5 C 22,5 km/h (4 Bft) 93,62 %
18.11.2018 03:06 -0,3 C 5,6 C -0,6 C 80 % 1027,6 hPa 0,0 l/m 18,9 km/h (3 Bft) O-NO 65 0 min 0,000 mm 0,0 UV-I 0 W/m -3,3 C -9,5 C 25,7 km/h (4 Bft) 91,49 %
18.11.2018 03:08 -0,3 C 5,6 C -0,6 C 79 % 1027,6 hPa 0,0 l/m 18,7 km/h (3 Bft) O-NO 63 0 min 0,000 mm 0,0 UV-I 0 W/m -3,5 C -9,4 C 27,4 km/h (4 Bft) 94,29 %
18.11.2018 03:10 -0,2 C 5,6 C -0,6 C 79 % 1027,6 hPa 0,0 l/m 16,0 km/h (3 Bft) O 82 0 min 0,000 mm 0,0 UV-I 0 W/m -3,4 C -7,8 C 22,5 km/h (4 Bft) 94,12 %
18.11.2018 03:12 -0,2 C 5,6 C -0,6 C 79 % 1027,6 hPa 0,0 l/m 16,8 km/h (3 Bft) O-NO 63 0 min 0,000 mm 0,0 UV-I 0 W/m -3,4 C -8,3 C 22,5 km/h (4 Bft) 95,74 %
18.11.2018 03:14 -0,2 C 5,6 C -0,6 C 78 % 1027,6 hPa 0,0 l/m 19,9 km/h (4 Bft) NO 52 0 min 0,000 mm 0,0 UV-I 0 W/m -3,6 C -9,8 C 24,1 km/h (4 Bft) 91,49 %
18.11.2018 03:16 -0,1 C 5,6 C -0,6 C 77 % 1027,6 hPa 0,0 l/m 19,5 km/h (3 Bft) O-NO 78 0 min 0,000 mm 0,0 UV-I 0 W/m -3,6 C -9,5 C 25,7 km/h (4 Bft) 91,49 %
18.11.2018 03:18 -0,1 C 5,6 C -0,6 C 77 % 1027,5 hPa 0,0 l/m 18,3 km/h (3 Bft) O 90 0 min 0,000 mm 0,0 UV-I 0 W/m -3,6 C -8,9 C 25,7 km/h (4 Bft) 89,36 %
18.11.2018 03:20 -0,1 C 5,6 C -0,6 C 77 % 1027,5 hPa 0,0 l/m 17,3 km/h (3 Bft) O-NO 59 0 min 0,000 mm 0,0 UV-I 0 W/m -3,6 C -8,4 C 25,7 km/h (4 Bft) 95,74 %
18.11.2018 03:22 0,0 C 5,6 C -0,6 C 77 % 1027,5 hPa 0,0 l/m 17,3 km/h (3 Bft) O 82 0 min 0,000 mm 0,0 UV-I 0 W/m -3,5 C -8,3 C 24,1 km/h (4 Bft) 91,49 %
18.11.2018 03:24 0,0 C 5,6 C -0,6 C 76 % 1027,4 hPa 0,0 l/m 24,4 km/h (4 Bft) O 98 0 min 0,000 mm 0,0 UV-I 0 W/m -3,7 C -11,5 C 33,8 km/h (5 Bft) 96,00 %
18.11.2018 03:26 0,1 C 5,6 C -0,6 C 76 % 1027,4 hPa 0,0 l/m 18,7 km/h (3 Bft) O 84 0 min 0,000 mm 0,0 UV-I 0 W/m -3,6 C -8,9 C 25,7 km/h (4 Bft) 93,62 %
18.11.2018 03:28 0,1 C 5,6 C 0,0 C 75 % 1027,3 hPa 0,0 l/m 22,3 km/h (4 Bft) O 79 0 min 0,000 mm 0,0 UV-I 0 W/m -3,8 C -10,5 C 37,0 km/h (5 Bft) 93,62 %
18.11.2018 03:30 0,2 C 5,6 C 0,0 C 74 % 1027,3 hPa 0,0 l/m 24,9 km/h (4 Bft) O 82 0 min 0,000 mm 0,0 UV-I 0 W/m -3,9 C -11,4 C 33,8 km/h (5 Bft) 93,62 %
18.11.2018 03:32 0,2 C 5,6 C 0,0 C 74 % 1027,4 hPa 0,0 l/m 25,5 km/h (4 Bft) O 89 0 min 0,000 mm 0,0 UV-I 0 W/m -3,9 C -11,6 C 37,0 km/h (5 Bft) 93,62 %
18.11.2018 03:35 0,3 C 5,6 C 0,0 C 73 % 1027,3 hPa 0,0 l/m 21,8 km/h (4 Bft) O-SO 111 0 min 0,000 mm 0,0 UV-I 0 W/m -4,0 C -10,0 C 30,6 km/h (5 Bft) 95,77 %
18.11.2018 03:36 0,3 C 5,6 C 0,0 C 73 % 1027,3 hPa 0,0 l/m 23,1 km/h (4 Bft) O 82 0 min 0,000 mm 0,0 UV-I 0 W/m -4,0 C -10,6 C 30,6 km/h (5 Bft) 95,65 %
18.11.2018 03:38 0,3 C 5,6 C 0,0 C 73 % 1027,3 hPa 0,0 l/m 21,2 km/h (4 Bft) O 94 0 min 0,000 mm 0,0 UV-I 0 W/m -4,0 C -9,8 C 30,6 km/h (5 Bft) 93,75 %
18.11.2018 03:40 0,3 C 5,6 C 0,0 C 72 % 1027,2 hPa 0,0 l/m 24,3 km/h (4 Bft) O-SO 103 0 min 0,000 mm 0,0 UV-I 0 W/m -4,1 C -11,0 C 33,8 km/h (5 Bft) 95,74 %
18.11.2018 03:42 0,3 C 5,6 C 0,0 C 72 % 1027,2 hPa 0,0 l/m 19,2 km/h (3 Bft) O-NO 76 0 min 0,000 mm 0,0 UV-I 0 W/m -4,1 C -8,9 C 27,4 km/h (4 Bft) 95,74 %
18.11.2018 03:44 0,4 C 5,6 C 0,0 C 72 % 1027,3 hPa 0,0 l/m 22,8 km/h (4 Bft) O 98 0 min 0,000 mm 0,0 UV-I 0 W/m -4,0 C -10,3 C 32,2 km/h (5 Bft) 97,87 %
18.11.2018 03:46 0,4 C 5,6 C 0,0 C 71 % 1027,3 hPa 0,0 l/m 18,5 km/h (3 Bft) O 81 0 min 0,000 mm 0,0 UV-I 0 W/m -4,2 C -8,4 C 25,7 km/h (4 Bft) 95,74 %
18.11.2018 03:48 0,4 C 5,6 C 0,0 C 71 % 1027,2 hPa 0,0 l/m 19,7 km/h (3 Bft) O-NO 65 0 min 0,000 mm 0,0 UV-I 0 W/m -4,2 C -9,0 C 32,2 km/h (5 Bft) 97,14 %
18.11.2018 03:50 0,4 C 5,6 C 0,0 C 71 % 1027,2 hPa 0,0 l/m 24,7 km/h (4 Bft) O 94 0 min 0,000 mm 0,0 UV-I 0 W/m -4,2 C -11,1 C 40,2 km/h (6 Bft) 98,00 %
18.11.2018 03:52 0,4 C 5,6 C 0,0 C 71 % 1027,1 hPa 0,0 l/m 26,2 km/h (4 Bft) O-NO 76 0 min 0,000 mm 0,0 UV-I 0 W/m -4,2 C -11,6 C 37,0 km/h (5 Bft) 98,00 %
18.11.2018 03:54 0,4 C 5,6 C 0,0 C 70 % 1027,1 hPa 0,0 l/m 21,1 km/h (4 Bft) O 94 0 min 0,000 mm 0,0 UV-I 0 W/m -4,4 C -9,6 C 37,0 km/h (5 Bft) 95,74 %
18.11.2018 03:56 0,4 C 5,6 C 0,0 C 71 % 1027,0 hPa 0,0 l/m 19,1 km/h (3 Bft) O 81 0 min 0,000 mm 0,0 UV-I 0 W/m -4,2 C -8,7 C 30,6 km/h (5 Bft) 97,87 %
18.11.2018 03:58 0,4 C 5,6 C 0,0 C 71 % 1027,1 hPa 0,0 l/m 23,2 km/h (4 Bft) O-SO 119 0 min 0,000 mm 0,0 UV-I 0 W/m -4,2 C -10,5 C 32,2 km/h (5 Bft) 97,87 %
18.11.2018 04:00 0,4 C 5,6 C 0,0 C 71 % 1027,0 hPa 0,0 l/m 20,8 km/h (4 Bft) O 88 0 min 0,051 mm 0,0 UV-I 0 W/m -4,2 C -9,5 C 29,0 km/h (5 Bft) 93,62 %
18.11.2018 04:02 0,4 C 5,6 C 0,0 C 71 % 1027,1 hPa 0,0 l/m 21,6 km/h (4 Bft) O-NO 63 0 min 0,000 mm 0,0 UV-I 0 W/m -4,2 C -9,8 C 35,4 km/h (5 Bft) 88,89 %
18.11.2018 04:04 0,4 C 5,6 C 0,0 C 71 % 1027,2 hPa 0,0 l/m 22,7 km/h (4 Bft) O-NO 69 0 min 0,000 mm 0,0 UV-I 0 W/m -4,2 C -10,3 C 35,4 km/h (5 Bft) 95,74 %
18.11.2018 04:06 0,4 C 5,6 C 0,0 C 71 % 1027,0 hPa 0,0 l/m 23,9 km/h (4 Bft) O-NO 61 0 min 0,000 mm 0,0 UV-I 0 W/m -4,2 C -10,8 C 30,6 km/h (5 Bft) 96,00 %
18.11.2018 04:08 0,4 C 5,6 C 0,0 C 70 % 1027,0 hPa 0,0 l/m 21,2 km/h (4 Bft) O 98 0 min 0,000 mm 0,0 UV-I 0 W/m -4,4 C -9,7 C 27,4 km/h (4 Bft) 94,00 %
18.11.2018 04:10 0,4 C 5,6 C 0,0 C 71 % 1026,9 hPa 0,0 l/m 20,3 km/h (4 Bft) O-NO 70 0 min 0,000 mm 0,0 UV-I 0 W/m -4,2 C -9,3 C 27,4 km/h (4 Bft) 95,74 %
18.11.2018 04:12 0,4 C 5,6 C 0,0 C 71 % 1026,8 hPa 0,0 l/m 20,9 km/h (4 Bft) O 85 0 min 0,000 mm 0,0 UV-I 0 W/m -4,2 C -9,5 C 27,4 km/h (4 Bft) 95,74 %
18.11.2018 04:14 0,4 C 5,6 C 0,0 C 71 % 1026,8 hPa 0,0 l/m 18,9 km/h (3 Bft) O-NO 75 0 min 0,000 mm 0,0 UV-I 0 W/m -4,2 C -8,6 C 40,2 km/h (6 Bft) 97,22 %
18.11.2018 04:16 0,3 C 5,6 C 0,0 C 71 % 1026,8 hPa 0,0 l/m 21,7 km/h (4 Bft) O-NO 61 0 min 0,000 mm 0,0 UV-I 0 W/m -4,3 C -10,0 C 33,8 km/h (5 Bft) 100,00 %
18.11.2018 04:18 0,3 C 5,6 C 0,0 C 71 % 1026,9 hPa 0,0 l/m 19,4 km/h (3 Bft) O 86 0 min 0,000 mm 0,0 UV-I 0 W/m -4,3 C -9,0 C 29,0 km/h (5 Bft) 95,74 %
18.11.2018 04:20 0,3 C 5,6 C 0,0 C 71 % 1026,9 hPa 0,0 l/m 23,5 km/h (4 Bft) O 87 0 min 0,000 mm 0,0 UV-I 0 W/m -4,3 C -10,7 C 29,0 km/h (5 Bft) 100,00 %
18.11.2018 04:22 0,3 C 5,6 C 0,0 C 71 % 1026,9 hPa 0,0 l/m 22,9 km/h (4 Bft) O-NO 61 0 min 0,000 mm 0,0 UV-I 0 W/m -4,3 C -10,5 C 33,8 km/h (5 Bft) 100,00 %
18.11.2018 04:24 0,3 C 5,6 C 0,0 C 71 % 1026,9 hPa 0,0 l/m 22,4 km/h (4 Bft) O-NO 66 0 min 0,000 mm 0,0 UV-I 0 W/m -4,3 C -10,3 C 29,0 km/h (5 Bft) 100,00 %
18.11.2018 04:26 0,3 C 5,0 C -0,6 C 71 % 1027,0 hPa 0,0 l/m 21,7 km/h (4 Bft) O-NO 72 0 min 0,000 mm 0,0 UV-I 0 W/m -4,3 C -10,0 C 32,2 km/h (5 Bft) 95,74 %
18.11.2018 04:28 0,3 C 5,6 C -0,6 C 71 % 1027,0 hPa 0,0 l/m 19,1 km/h (3 Bft) O-NO 57 0 min 0,000 mm 0,0 UV-I 0 W/m -4,3 C -8,8 C 25,7 km/h (4 Bft) 98,00 %
18.11.2018 04:30 0,3 C 5,6 C -0,6 C 71 % 1027,0 hPa 0,0 l/m 21,1 km/h (4 Bft) O 84 0 min 0,000 mm 0,0 UV-I 0 W/m -4,3 C -9,7 C 29,0 km/h (5 Bft) 100,00 %
18.11.2018 04:32 0,3 C 5,0 C -0,6 C 71 % 1027,0 hPa 0,0 l/m 19,2 km/h (3 Bft) O-NO 69 0 min 0,000 mm 0,0 UV-I 0 W/m -4,3 C -8,9 C 27,4 km/h (4 Bft) 95,74 %
18.11.2018 04:34 0,3 C 5,0 C -0,6 C 71 % 1026,9 hPa 0,0 l/m 20,8 km/h (4 Bft) O 90 0 min 0,000 mm 0,0 UV-I 0 W/m -4,3 C -9,6 C 30,6 km/h (5 Bft) 100,00 %
18.11.2018 04:36 0,3 C 5,0 C -0,6 C 71 % 1026,9 hPa 0,0 l/m 18,6 km/h (3 Bft) NO 55 0 min 0,000 mm 0,0 UV-I 0 W/m -4,3 C -8,6 C 29,0 km/h (5 Bft) 97,87 %
18.11.2018 04:38 0,3 C 5,0 C -0,6 C 71 % 1026,8 hPa 0,0 l/m 22,0 km/h (4 Bft) NO 40 0 min 0,000 mm 0,0 UV-I 0 W/m -4,3 C -10,1 C 27,4 km/h (4 Bft) 100,00 %
18.11.2018 04:40 0,2 C 5,0 C -0,6 C 71 % 1026,8 hPa 0,0 l/m 21,8 km/h (4 Bft) O-NO 67 0 min 0,000 mm 0,0 UV-I 0 W/m -4,4 C -10,2 C 32,2 km/h (5 Bft) 100,00 %
18.11.2018 04:42 0,2 C 5,0 C -0,6 C 71 % 1026,9 hPa 0,0 l/m 21,9 km/h (4 Bft) O-NO 57 0 min 0,000 mm 0,0 UV-I 0 W/m -4,4 C -10,2 C 32,2 km/h (5 Bft) 100,00 %
18.11.2018 04:45 0,1 C 5,0 C -1,1 C 71 % 1026,8 hPa 0,0 l/m 15,3 km/h (3 Bft) O-NO 67 0 min 0,000 mm 0,0 UV-I 0 W/m -4,5 C -7,0 C 24,1 km/h (4 Bft) 100,00 %
18.11.2018 04:46 0,1 C 5,0 C -1,1 C 72 % 1026,9 hPa 0,0 l/m 20,8 km/h (4 Bft) O-NO 71 0 min 0,000 mm 0,0 UV-I 0 W/m -4,3 C -9,9 C 25,7 km/h (4 Bft) 100,00 %
18.11.2018 04:48 0,1 C 5,0 C -1,1 C 72 % 1027,0 hPa 0,0 l/m 17,8 km/h (3 Bft) O-NO 70 0 min 0,000 mm 0,0 UV-I 0 W/m -4,3 C -8,4 C 25,7 km/h (4 Bft) 100,00 %
18.11.2018 04:50 0,1 C 5,0 C -1,1 C 72 % 1026,9 hPa 0,0 l/m 17,7 km/h (3 Bft) O-NO 59 0 min 0,000 mm 0,0 UV-I 0 W/m -4,3 C -8,4 C 24,1 km/h (4 Bft) 100,00 %
18.11.2018 04:52 0,1 C 5,0 C -1,1 C 72 % 1026,9 hPa 0,0 l/m 20,6 km/h (4 Bft) NO 55 0 min 0,000 mm 0,0 UV-I 0 W/m -4,3 C -9,8 C 27,4 km/h (4 Bft) 95,74 %
18.11.2018 04:54 0,0 C 5,0 C -1,1 C 72 % 1026,9 hPa 0,0 l/m 19,7 km/h (3 Bft) O-NO 71 0 min 0,000 mm 0,0 UV-I 0 W/m -4,4 C -9,5 C 25,7 km/h (4 Bft) 100,00 %
18.11.2018 04:56 0,0 C 5,0 C -1,1 C 72 % 1027,0 hPa 0,0 l/m 19,4 km/h (3 Bft) O 87 0 min 0,000 mm 0,0 UV-I 0 W/m -4,4 C -9,3 C 25,7 km/h (4 Bft) 100,00 %
18.11.2018 04:58 -0,1 C 5,0 C -1,1 C 71 % 1026,9 hPa 0,0 l/m 21,2 km/h (4 Bft) O-NO 69 0 min 0,000 mm 0,0 UV-I 0 W/m -4,7 C -10,3 C 35,4 km/h (5 Bft) 97,87 %
18.11.2018 05:00 -0,1 C 5,0 C -1,1 C 72 % 1026,9 hPa 0,0 l/m 20,3 km/h (4 Bft) O-NO 69 0 min 0,051 mm 0,0 UV-I 0 W/m -4,5 C -9,9 C 29,0 km/h (5 Bft) 96,00 %
18.11.2018 05:02 -0,1 C 5,0 C -1,1 C 72 % 1027,0 hPa 0,0 l/m 18,9 km/h (3 Bft) O-NO 61 0 min 0,000 mm 0,0 UV-I 0 W/m -4,5 C -9,2 C 30,6 km/h (5 Bft) 94,29 %
18.11.2018 05:04 -0,1 C 5,0 C -1,1 C 72 % 1026,8 hPa 0,0 l/m 22,3 km/h (4 Bft) O-NO 63 0 min 0,000 mm 0,0 UV-I 0 W/m -4,5 C -10,8 C 29,0 km/h (5 Bft) 93,62 %
18.11.2018 05:06 -0,1 C 5,0 C -1,1 C 72 % 1026,8 hPa 0,0 l/m 19,4 km/h (3 Bft) NO 51 0 min 0,000 mm 0,0 UV-I 0 W/m -4,5 C -9,5 C 25,7 km/h (4 Bft) 95,74 %
18.11.2018 05:08 -0,1 C 5,0 C -1,1 C 72 % 1026,7 hPa 0,0 l/m 18,3 km/h (3 Bft) O-NO 71 0 min 0,000 mm 0,0 UV-I 0 W/m -4,5 C -8,9 C 30,6 km/h (5 Bft) 95,74 %
18.11.2018 05:10 -0,1 C 5,0 C -1,1 C 72 % 1026,7 hPa 0,0 l/m 20,9 km/h (4 Bft) NO 55 0 min 0,000 mm 0,0 UV-I 0 W/m -4,5 C -10,2 C 25,7 km/h (4 Bft) 94,00 %
18.11.2018 05:12 -0,2 C 5,0 C -1,1 C 72 % 1026,7 hPa 0,0 l/m 18,8 km/h (3 Bft) O-NO 71 0 min 0,000 mm 0,0 UV-I 0 W/m -4,6 C -9,3 C 29,0 km/h (5 Bft) 94,00 %
18.11.2018 05:14 -0,2 C 5,0 C -1,1 C 72 % 1026,8 hPa 0,0 l/m 18,3 km/h (3 Bft) O-NO 78 0 min 0,000 mm 0,0 UV-I 0 W/m -4,6 C -9,1 C 24,1 km/h (4 Bft) 89,58 %
18.11.2018 05:16 -0,2 C 5,0 C -1,1 C 72 % 1026,7 hPa 0,0 l/m 23,8 km/h (4 Bft) O-NO 73 0 min 0,000 mm 0,0 UV-I 0 W/m -4,6 C -11,5 C 30,6 km/h (5 Bft) 95,74 %
18.11.2018 05:18 -0,2 C 5,0 C -1,1 C 72 % 1026,7 hPa 0,0 l/m 20,4 km/h (4 Bft) O-NO 69 0 min 0,000 mm 0,0 UV-I 0 W/m -4,6 C -10,1 C 25,7 km/h (4 Bft) 97,87 %
18.11.2018 05:20 -0,2 C 5,0 C -1,1 C 72 % 1026,6 hPa 0,0 l/m 22,1 km/h (4 Bft) O-NO 74 0 min 0,000 mm 0,0 UV-I 0 W/m -4,6 C -10,8 C 30,6 km/h (5 Bft) 97,87 %
18.11.2018 05:22 -0,2 C 5,0 C -1,1 C 72 % 1026,5 hPa 0,0 l/m 23,0 km/h (4 Bft) O-NO 66 0 min 0,000 mm 0,0 UV-I 0 W/m -4,6 C -11,2 C 30,6 km/h (5 Bft) 97,87 %
18.11.2018 05:24 -0,3 C 5,0 C -1,7 C 73 % 1026,4 hPa 0,0 l/m 18,6 km/h (3 Bft) O 80 0 min 0,000 mm 0,0 UV-I 0 W/m -4,5 C -9,3 C 24,1 km/h (4 Bft) 96,00 %
18.11.2018 05:26 -0,3 C 5,0 C -1,7 C 73 % 1026,4 hPa 0,0 l/m 18,1 km/h (3 Bft) O-NO 69 0 min 0,000 mm 0,0 UV-I 0 W/m -4,5 C -9,1 C 25,7 km/h (4 Bft) 97,87 %
18.11.2018 05:28 -0,3 C 5,0 C -1,7 C 73 % 1026,4 hPa 0,0 l/m 19,6 km/h (3 Bft) NO 49 0 min 0,000 mm 0,0 UV-I 0 W/m -4,5 C -9,8 C 25,7 km/h (4 Bft) 94,74 %
18.11.2018 05:30 -0,4 C 5,0 C -1,7 C 73 % 1026,4 hPa 0,0 l/m 15,8 km/h (3 Bft) NO 46 0 min 0,000 mm 0,0 UV-I 0 W/m -4,6 C -7,9 C 22,5 km/h (4 Bft) 97,87 %
18.11.2018 05:32 -0,4 C 5,0 C -1,7 C 74 % 1026,3 hPa 0,0 l/m 18,4 km/h (3 Bft) O-NO 61 0 min 0,000 mm 0,0 UV-I 0 W/m -4,5 C -9,4 C 25,7 km/h (4 Bft) 97,87 %
18.11.2018 05:34 -0,5 C 5,0 C -1,7 C 74 % 1026,2 hPa 0,0 l/m 14,5 km/h (3 Bft) O-NO 73 0 min 0,000 mm 0,0 UV-I 0 W/m -4,5 C -7,3 C 29,0 km/h (5 Bft) 97,87 %
18.11.2018 05:36 -0,5 C 5,0 C -1,7 C 74 % 1026,2 hPa 0,0 l/m 17,7 km/h (3 Bft) O-NO 63 0 min 0,000 mm 0,0 UV-I 0 W/m -4,5 C -9,1 C 27,4 km/h (4 Bft) 100,00 %
18.11.2018 05:38 -0,5 C 5,0 C -1,7 C 74 % 1026,2 hPa 0,0 l/m 19,8 km/h (3 Bft) O-NO 74 0 min 0,000 mm 0,0 UV-I 0 W/m -4,5 C -10,2 C 27,4 km/h (4 Bft) 100,00 %
18.11.2018 05:40 -0,6 C 5,0 C -1,7 C 74 % 1026,2 hPa 0,0 l/m 15,9 km/h (3 Bft) O-NO 77 0 min 0,000 mm 0,0 UV-I 0 W/m -4,6 C -8,2 C 20,9 km/h (4 Bft) 97,87 %
18.11.2018 05:42 -0,6 C 5,0 C -1,7 C 74 % 1026,3 hPa 0,0 l/m 16,0 km/h (3 Bft) NO 53 0 min 0,000 mm 0,0 UV-I 0 W/m -4,6 C -8,3 C 24,1 km/h (4 Bft) 100,00 %
18.11.2018 05:44 -0,6 C 5,0 C -1,7 C 74 % 1026,2 hPa 0,0 l/m 20,9 km/h (4 Bft) O-NO 74 0 min 0,000 mm 0,0 UV-I 0 W/m -4,6 C -10,8 C 30,6 km/h (5 Bft) 100,00 %
18.11.2018 05:46 -0,6 C 5,0 C -1,7 C 74 % 1026,2 hPa 0,0 l/m 21,9 km/h (4 Bft) O 80 0 min 0,000 mm 0,0 UV-I 0 W/m -4,6 C -11,3 C 33,8 km/h (5 Bft) 100,00 %
18.11.2018 05:48 -0,6 C 5,0 C -1,7 C 74 % 1026,2 hPa 0,0 l/m 18,9 km/h (3 Bft) O 83 0 min 0,000 mm 0,0 UV-I 0 W/m -4,6 C -9,9 C 27,4 km/h (4 Bft) 100,00 %
18.11.2018 05:50 -0,6 C 5,0 C -1,7 C 74 % 1026,2 hPa 0,0 l/m 14,5 km/h (3 Bft) O-NO 71 0 min 0,000 mm 0,0 UV-I 0 W/m -4,6 C -7,4 C 17,7 km/h (3 Bft) 97,87 %
18.11.2018 05:52 -0,7 C 5,0 C -1,7 C 75 % 1026,2 hPa 0,0 l/m 17,8 km/h (3 Bft) O-SO 103 0 min 0,000 mm 0,0 UV-I 0 W/m -4,6 C -9,4 C 20,9 km/h (4 Bft) 98,00 %
18.11.2018 05:54 -0,7 C 5,0 C -1,7 C 75 % 1026,1 hPa 0,0 l/m 16,3 km/h (3 Bft) O 88 0 min 0,000 mm 0,0 UV-I 0 W/m -4,6 C -8,6 C 19,3 km/h (3 Bft) 100,00 %
18.11.2018 05:56 -0,7 C 5,0 C -2,2 C 75 % 1026,1 hPa 0,0 l/m 17,1 km/h (3 Bft) O 82 0 min 0,000 mm 0,0 UV-I 0 W/m -4,6 C -9,1 C 20,9 km/h (4 Bft) 95,74 %
18.11.2018 05:58 -0,7 C 5,0 C -2,2 C 74 % 1026,1 hPa 0,0 l/m 17,9 km/h (3 Bft) O 94 0 min 0,000 mm 0,0 UV-I 0 W/m -4,7 C -9,5 C 29,0 km/h (5 Bft) 97,87 %
18.11.2018 06:00 -0,7 C 5,0 C -1,7 C 74 % 1026,2 hPa 0,0 l/m 19,9 km/h (4 Bft) O-NO 72 0 min 0,025 mm 0,0 UV-I 0 W/m -4,7 C -10,5 C 27,4 km/h (4 Bft) 97,87 %
18.11.2018 06:02 -0,7 C 5,0 C -1,7 C 74 % 1026,1 hPa 0,0 l/m 19,0 km/h (3 Bft) O 79 0 min 0,000 mm 0,0 UV-I 0 W/m -4,7 C -10,0 C 25,7 km/h (4 Bft) 100,00 %
18.11.2018 06:04 -0,7 C 5,0 C -1,7 C 74 % 1026,1 hPa 0,0 l/m 15,2 km/h (3 Bft) O 79 0 min 0,000 mm 0,0 UV-I 0 W/m -4,7 C -8,0 C 24,1 km/h (4 Bft) 97,87 %
18.11.2018 06:06 -0,7 C 5,0 C -1,7 C 74 % 1026,1 hPa 0,0 l/m 16,9 km/h (3 Bft) O 82 0 min 0,000 mm 0,0 UV-I 0 W/m -4,7 C -8,9 C 25,7 km/h (4 Bft) 95,74 %
18.11.2018 06:08 -0,6 C 5,0 C -1,7 C 73 % 1026,2 hPa 0,0 l/m 16,6 km/h (3 Bft) O-NO 66 0 min 0,000 mm 0,0 UV-I 0 W/m -4,8 C -8,6 C 22,5 km/h (4 Bft) 95,74 %
18.11.2018 06:10 -0,6 C 5,0 C -1,7 C 73 % 1026,2 hPa 0,0 l/m 14,5 km/h (3 Bft) O-NO 59 0 min 0,000 mm 0,0 UV-I 0 W/m -4,8 C -7,4 C 20,9 km/h (4 Bft) 95,74 %
18.11.2018 06:12 -0,6 C 5,0 C -1,7 C 73 % 1026,2 hPa 0,0 l/m 14,7 km/h (3 Bft) O 86 0 min 0,000 mm 0,0 UV-I 0 W/m -4,8 C -7,5 C 20,9 km/h (4 Bft) 95,74 %
18.11.2018 06:14 -0,6 C 5,0 C -1,7 C 73 % 1026,2 hPa 0,0 l/m 14,2 km/h (3 Bft) O-NO 69 0 min 0,000 mm 0,0 UV-I 0 W/m -4,8 C -7,2 C 20,9 km/h (4 Bft) 97,44 %
18.11.2018 06:16 -0,6 C 5,0 C -2,2 C 73 % 1026,2 hPa 0,0 l/m 9,4 km/h (2 Bft) O 96 0 min 0,000 mm 0,0 UV-I 0 W/m -4,8 C -3,6 C 17,7 km/h (3 Bft) 93,88 %
18.11.2018 06:18 -0,6 C 5,0 C -2,2 C 73 % 1026,2 hPa 0,0 l/m 10,7 km/h (2 Bft) O-NO 66 0 min 0,000 mm 0,0 UV-I 0 W/m -4,8 C -4,7 C 19,3 km/h (3 Bft) 94,00 %
18.11.2018 06:20 -0,7 C 5,0 C -2,2 C 73 % 1026,3 hPa 0,0 l/m 11,5 km/h (2 Bft) O-NO 59 0 min 0,000 mm 0,0 UV-I 0 W/m -4,9 C -5,4 C 16,1 km/h (3 Bft) 95,83 %
18.11.2018 06:22 -0,7 C 5,0 C -2,2 C 73 % 1026,3 hPa 0,0 l/m 10,0 km/h (2 Bft) NO 49 0 min 0,000 mm 0,0 UV-I 0 W/m -4,9 C -4,2 C 25,7 km/h (4 Bft) 94,29 %
18.11.2018 06:24 -0,7 C 5,0 C -2,2 C 73 % 1026,3 hPa 0,0 l/m 15,9 km/h (3 Bft) O 96 0 min 0,000 mm 0,0 UV-I 0 W/m -4,9 C -8,4 C 24,1 km/h (4 Bft) 96,00 %
18.11.2018 06:26 -0,6 C 5,0 C -2,2 C 73 % 1026,3 hPa 0,0 l/m 12,2 km/h (2 Bft) O-NO 65 0 min 0,000 mm 0,0 UV-I 0 W/m -4,8 C -5,8 C 17,7 km/h (3 Bft) 98,00 %
18.11.2018 06:28 -0,7 C 5,0 C -2,2 C 73 % 1026,3 hPa 0,0 l/m 9,0 km/h (2 Bft) O-NO 76 0 min 0,000 mm 0,0 UV-I 0 W/m -4,9 C -3,3 C 16,1 km/h (3 Bft) 98,00 %
18.11.2018 06:30 -0,7 C 5,0 C -2,2 C 73 % 1026,3 hPa 0,0 l/m 10,4 km/h (2 Bft) O 92 0 min 0,000 mm 0,0 UV-I 0 W/m -4,9 C -4,6 C 16,1 km/h (3 Bft) 97,87 %
18.11.2018 06:32 -0,7 C 5,0 C -2,2 C 73 % 1026,3 hPa 0,0 l/m 16,1 km/h (3 Bft) O 85 0 min 0,000 mm 0,0 UV-I 0 W/m -4,9 C -8,5 C 24,1 km/h (4 Bft) 97,87 %
18.11.2018 06:34 -0,8 C 5,0 C -2,2 C 73 % 1026,2 hPa 0,0 l/m 13,2 km/h (3 Bft) O-NO 72 0 min 0,000 mm 0,0 UV-I 0 W/m -5,0 C -6,8 C 17,7 km/h (3 Bft) 100,00 %
18.11.2018 06:36 -0,8 C 5,0 C -2,2 C 73 % 1026,2 hPa 0,0 l/m 14,2 km/h (3 Bft) O 83 0 min 0,000 mm 0,0 UV-I 0 W/m -5,0 C -7,4 C 19,3 km/h (3 Bft) 97,87 %
18.11.2018 06:38 -0,8 C 5,0 C -2,2 C 73 % 1026,2 hPa 0,0 l/m 15,2 km/h (3 Bft) NO 51 0 min 0,000 mm 0,0 UV-I 0 W/m -5,0 C -8,1 C 24,1 km/h (4 Bft) 100,00 %
18.11.2018 06:40 -0,8 C 5,0 C -2,2 C 73 % 1026,2 hPa 0,0 l/m 16,8 km/h (3 Bft) O-NO 71 0 min 0,000 mm 0,0 UV-I 0 W/m -5,0 C -9,0 C 22,5 km/h (4 Bft) 100,00 %
18.11.2018 06:42 -0,9 C 5,0 C -2,2 C 74 % 1026,2 hPa 0,0 l/m 17,3 km/h (3 Bft) O-NO 75 0 min 0,000 mm 0,0 UV-I 0 W/m -4,9 C -9,4 C 22,5 km/h (4 Bft) 91,49 %
18.11.2018 06:44 -0,9 C 5,0 C -2,2 C 74 % 1026,2 hPa 0,0 l/m 13,5 km/h (3 Bft) NO 51 0 min 0,000 mm 0,0 UV-I 0 W/m -4,9 C -7,1 C 20,9 km/h (4 Bft) 97,22 %
18.11.2018 06:46 -0,9 C 5,0 C -2,2 C 74 % 1026,3 hPa 0,0 l/m 19,9 km/h (4 Bft) O-NO 70 0 min 0,000 mm 0,0 UV-I 0 W/m -4,9 C -10,7 C 25,7 km/h (4 Bft) 98,00 %
18.11.2018 06:48 -0,9 C 5,0 C -2,2 C 74 % 1026,2 hPa 0,0 l/m 19,8 km/h (3 Bft) O 82 0 min 0,000 mm 0,0 UV-I 0 W/m -4,9 C -10,7 C 25,7 km/h (4 Bft) 100,00 %
18.11.2018 06:50 -1,0 C 5,0 C -2,2 C 74 % 1026,2 hPa 0,0 l/m 19,6 km/h (3 Bft) O-NO 68 0 min 0,000 mm 0,0 UV-I 0 W/m -5,0 C -10,7 C 25,7 km/h (4 Bft) 93,62 %
18.11.2018 06:52 -1,0 C 5,0 C -2,2 C 74 % 1026,1 hPa 0,0 l/m 19,3 km/h (3 Bft) O-NO 74 0 min 0,000 mm 0,0 UV-I 0 W/m -5,0 C -10,6 C 25,7 km/h (4 Bft) 97,87 %
18.11.2018 06:54 -1,0 C 5,0 C -2,2 C 74 % 1026,1 hPa 0,0 l/m 20,8 km/h (4 Bft) O 94 0 min 0,000 mm 0,0 UV-I 0 W/m -5,0 C -11,3 C 27,4 km/h (4 Bft) 95,74 %
18.11.2018 06:56 -1,0 C 5,0 C -2,2 C 74 % 1026,1 hPa 0,0 l/m 19,6 km/h (3 Bft) O 80 0 min 0,000 mm 0,0 UV-I 0 W/m -5,0 C -10,7 C 27,4 km/h (4 Bft) 96,00 %
18.11.2018 06:58 -1,1 C 5,0 C -2,2 C 75 % 1026,1 hPa 0,0 l/m 19,8 km/h (3 Bft) NO 51 0 min 0,000 mm 0,0 UV-I 0 W/m -5,0 C -11,0 C 27,4 km/h (4 Bft) 98,00 %
18.11.2018 07:00 -1,1 C 5,0 C -2,2 C 74 % 1026,2 hPa 0,0 l/m 15,2 km/h (3 Bft) O 85 0 min 0,026 mm 0,0 UV-I 2 W/m -5,1 C -8,4 C 19,3 km/h (3 Bft) 97,87 %
18.11.2018 07:02 -1,1 C 5,0 C -2,2 C 75 % 1026,2 hPa 0,0 l/m 14,9 km/h (3 Bft) O-NO 62 0 min 0,000 mm 0,0 UV-I 5 W/m -5,0 C -8,3 C 22,5 km/h (4 Bft) 92,11 %
18.11.2018 07:04 -1,1 C 5,0 C -2,2 C 75 % 1026,3 hPa 0,0 l/m 15,9 km/h (3 Bft) NO 47 0 min 0,000 mm 0,0 UV-I 5 W/m -5,0 C -8,9 C 24,1 km/h (4 Bft) 95,74 %
18.11.2018 07:06 -1,2 C 5,0 C -2,2 C 75 % 1026,3 hPa 0,0 l/m 16,0 km/h (3 Bft) O-NO 69 0 min 0,000 mm 0,0 UV-I 5 W/m -5,0 C -9,0 C 24,1 km/h (4 Bft) 91,49 %
18.11.2018 07:08 -1,2 C 5,0 C -2,2 C 75 % 1026,2 hPa 0,0 l/m 17,4 km/h (3 Bft) N-NO 30 0 min 0,000 mm 0,0 UV-I 5 W/m -5,0 C -9,8 C 27,4 km/h (4 Bft) 96,23 %
18.11.2018 07:10 -1,2 C 5,0 C -2,2 C 75 % 1026,2 hPa 0,0 l/m 18,8 km/h (3 Bft) O-NO 61 0 min 0,000 mm 0,0 UV-I 6 W/m -5,0 C -10,6 C 27,4 km/h (4 Bft) 94,74 %
18.11.2018 07:12 -1,2 C 5,0 C -2,2 C 75 % 1026,2 hPa 0,0 l/m 19,9 km/h (4 Bft) O 79 0 min 0,000 mm 0,0 UV-I 7 W/m -5,0 C -11,1 C 30,6 km/h (5 Bft) 95,83 %
18.11.2018 07:14 -1,1 C 5,0 C -2,2 C 75 % 1026,3 hPa 0,0 l/m 20,9 km/h (4 Bft) O-NO 65 0 min 0,000 mm 0,0 UV-I 7 W/m -5,0 C -11,5 C 35,4 km/h (5 Bft) 93,62 %
18.11.2018 07:16 -1,1 C 5,0 C -2,2 C 75 % 1026,2 hPa 0,0 l/m 19,0 km/h (3 Bft) O-NO 71 0 min 0,000 mm 0,0 UV-I 8 W/m -5,0 C -10,6 C 32,2 km/h (5 Bft) 94,00 %
18.11.2018 07:18 -1,1 C 5,0 C -2,2 C 75 % 1026,1 hPa 0,0 l/m 19,0 km/h (3 Bft) NO 55 0 min 0,000 mm 0,0 UV-I 9 W/m -5,0 C -10,6 C 25,7 km/h (4 Bft) 93,88 %
18.11.2018 07:20 -1,1 C 5,0 C -2,2 C 75 % 1026,1 hPa 0,0 l/m 14,2 km/h (3 Bft) NO 53 0 min 0,000 mm 0,0 UV-I 9 W/m -5,0 C -7,8 C 24,1 km/h (4 Bft) 93,62 %
18.11.2018 07:22 -1,1 C 5,0 C -2,2 C 75 % 1026,2 hPa 0,0 l/m 21,0 km/h (4 Bft) NO 55 0 min 0,000 mm 0,0 UV-I 11 W/m -5,0 C -11,5 C 29,0 km/h (5 Bft) 93,62 %
18.11.2018 07:24 -1,1 C 5,0 C -2,2 C 75 % 1026,1 hPa 0,0 l/m 13,2 km/h (3 Bft) NO 35 0 min 0,000 mm 0,0 UV-I 11 W/m -5,0 C -7,1 C 24,1 km/h (4 Bft) 91,49 %
18.11.2018 07:26 -1,1 C 5,0 C -2,2 C 75 % 1026,2 hPa 0,0 l/m 19,5 km/h (3 Bft) NO 53 2 min 0,000 mm 0,0 UV-I 12 W/m -5,0 C -10,8 C 32,2 km/h (5 Bft) 93,62 %
18.11.2018 07:28 -1,2 C 5,0 C -2,2 C 76 % 1026,1 hPa 0,0 l/m 16,9 km/h (3 Bft) NO 49 2 min 0,000 mm 0,0 UV-I 12 W/m -4,9 C -9,6 C 27,4 km/h (4 Bft) 91,49 %
18.11.2018 07:30 -1,2 C 5,0 C -2,2 C 76 % 1026,1 hPa 0,0 l/m 19,1 km/h (3 Bft) O-NO 59 2 min 0,000 mm 0,0 UV-I 14 W/m -4,9 C -10,7 C 25,7 km/h (4 Bft) 93,62 %
18.11.2018 07:32 -1,2 C 5,0 C -2,2 C 76 % 1026,1 hPa 0,0 l/m 16,3 km/h (3 Bft) N-NO 13 0 min 0,000 mm 0,0 UV-I 16 W/m -4,9 C -9,2 C 25,7 km/h (4 Bft) 91,49 %
18.11.2018 07:34 -1,2 C 5,0 C -2,2 C 76 % 1026,2 hPa 0,0 l/m 15,6 km/h (3 Bft) NO 42 0 min 0,000 mm 0,0 UV-I 16 W/m -4,9 C -8,8 C 22,5 km/h (4 Bft) 90,00 %
18.11.2018 07:36 -1,2 C 5,0 C -2,2 C 76 % 1026,2 hPa 0,0 l/m 16,5 km/h (3 Bft) NO 39 0 min 0,000 mm 0,0 UV-I 18 W/m -4,9 C -9,3 C 25,7 km/h (4 Bft) 89,36 %
18.11.2018 07:38 -1,3 C 5,0 C -2,2 C 76 % 1026,2 hPa 0,0 l/m 16,5 km/h (3 Bft) O-NO 59 0 min 0,000 mm 0,0 UV-I 20 W/m -5,0 C -9,5 C 22,5 km/h (4 Bft) 95,74 %
18.11.2018 07:40 -1,3 C 5,0 C -2,2 C 77 % 1026,2 hPa 0,0 l/m 15,8 km/h (3 Bft) O-NO 62 0 min 0,000 mm 0,0 UV-I 24 W/m -4,8 C -9,0 C 24,1 km/h (4 Bft) 95,74 %
18.11.2018 07:42 -1,3 C 5,0 C -2,2 C 77 % 1026,2 hPa 0,0 l/m 19,2 km/h (3 Bft) NO 50 2 min 0,000 mm 0,0 UV-I 34 W/m -4,8 C -10,9 C 29,0 km/h (5 Bft) 97,14 %
18.11.2018 07:44 -1,2 C 5,0 C -2,2 C 76 % 1026,2 hPa 0,0 l/m 17,6 km/h (3 Bft) O-NO 59 2 min 0,000 mm 0,0 UV-I 40 W/m -4,9 C -10,0 C 24,1 km/h (4 Bft) 97,92 %
18.11.2018 07:46 -1,1 C 5,0 C -1,7 C 76 % 1026,2 hPa 0,0 l/m 21,2 km/h (4 Bft) O 91 2 min 0,000 mm 0,0 UV-I 44 W/m -4,8 C -11,6 C 32,2 km/h (5 Bft) 92,00 %
18.11.2018 07:48 -1,0 C 5,0 C -1,7 C 76 % 1026,1 hPa 0,0 l/m 18,4 km/h (3 Bft) O-NO 66 2 min 0,000 mm 0,0 UV-I 47 W/m -4,7 C -10,1 C 25,7 km/h (4 Bft) 98,00 %
18.11.2018 07:50 -0,9 C 5,0 C -1,7 C 75 % 1026,2 hPa 0,0 l/m 20,3 km/h (4 Bft) O 84 2 min 0,000 mm 0,0 UV-I 50 W/m -4,8 C -10,9 C 30,6 km/h (5 Bft) 97,87 %
18.11.2018 07:52 -0,9 C 5,0 C -1,7 C 75 % 1026,1 hPa 0,0 l/m 21,2 km/h (4 Bft) O-NO 72 2 min 0,000 mm 0,0 UV-I 54 W/m -4,8 C -11,4 C 29,0 km/h (5 Bft) 93,62 %
18.11.2018 07:54 -0,8 C 5,0 C -1,7 C 75 % 1026,1 hPa 0,0 l/m 18,7 km/h (3 Bft) O-NO 76 2 min 0,000 mm 0,0 UV-I 59 W/m -4,7 C -10,0 C 27,4 km/h (4 Bft) 94,59 %
18.11.2018 07:56 -0,8 C 5,0 C -1,7 C 75 % 1026,2 hPa 0,0 l/m 17,3 km/h (3 Bft) O-NO 76 2 min 0,000 mm 0,0 UV-I 61 W/m -4,7 C -9,3 C 24,1 km/h (4 Bft) 96,00 %
18.11.2018 07:58 -0,7 C 5,0 C -1,7 C 74 % 1026,1 hPa 0,0 l/m 19,7 km/h (3 Bft) O-NO 64 2 min 0,000 mm 0,0 UV-I 65 W/m -4,7 C -10,4 C 30,6 km/h (5 Bft) 97,87 %
18.11.2018 08:00 -0,7 C 5,0 C -1,7 C 74 % 1026,2 hPa 0,0 l/m 18,2 km/h (3 Bft) O-NO 67 2 min 0,050 mm 0,0 UV-I 68 W/m -4,7 C -9,6 C 25,7 km/h (4 Bft) 95,74 %
18.11.2018 08:02 -0,6 C 5,0 C -1,1 C 74 % 1026,2 hPa 0,0 l/m 20,8 km/h (4 Bft) O-NO 67 2 min 0,000 mm 0,0 UV-I 71 W/m -4,6 C -10,8 C 29,0 km/h (5 Bft) 98,00 %
18.11.2018 08:04 -0,6 C 5,0 C -1,1 C 74 % 1026,1 hPa 0,0 l/m 18,1 km/h (3 Bft) O 82 2 min 0,000 mm 0,0 UV-I 74 W/m -4,6 C -9,5 C 22,5 km/h (4 Bft) 98,00 %
18.11.2018 08:06 -0,5 C 5,0 C -1,1 C 74 % 1026,1 hPa 0,0 l/m 15,8 km/h (3 Bft) O 91 2 min 0,000 mm 0,0 UV-I 78 W/m -4,5 C -8,1 C 25,7 km/h (4 Bft) 100,00 %
18.11.2018 08:08 -0,5 C 5,0 C -0,6 C 74 % 1026,1 hPa 0,0 l/m 16,8 km/h (3 Bft) O-SO 105 2 min 0,000 mm 0,0 UV-I 81 W/m -4,5 C -8,6 C 20,9 km/h (4 Bft) 93,62 %
18.11.2018 08:10 -0,5 C 5,0 C -0,6 C 74 % 1026,2 hPa 0,0 l/m 18,5 km/h (3 Bft) O-NO 70 2 min 0,000 mm 0,0 UV-I 84 W/m -4,5 C -9,5 C 22,5 km/h (4 Bft) 100,00 %
18.11.2018 08:12 -0,5 C 5,0 C -0,6 C 74 % 1026,2 hPa 0,0 l/m 15,4 km/h (3 Bft) O 94 2 min 0,000 mm 0,0 UV-I 87 W/m -4,5 C -7,8 C 20,9 km/h (4 Bft) 97,92 %
18.11.2018 08:14 -0,5 C 5,0 C -0,6 C 74 % 1026,2 hPa 0,0 l/m 18,4 km/h (3 Bft) O 82 2 min 0,000 mm 0,0 UV-I 91 W/m -4,5 C -9,5 C 27,4 km/h (4 Bft) 100,00 %
18.11.2018 08:16 -0,6 C 5,0 C -0,6 C 74 % 1026,2 hPa 0,0 l/m 17,7 km/h (3 Bft) O 94 2 min 0,000 mm 0,0 UV-I 93 W/m -4,6 C -9,3 C 24,1 km/h (4 Bft) 97,87 %
18.11.2018 08:18 -0,5 C 5,0 C -0,6 C 74 % 1026,3 hPa 0,0 l/m 17,7 km/h (3 Bft) O 87 2 min 0,000 mm 0,0 UV-I 97 W/m -4,5 C -9,1 C 24,1 km/h (4 Bft) 100,00 %
18.11.2018 08:20 -0,5 C 5,0 C -0,6 C 74 % 1026,2 hPa 0,0 l/m 22,7 km/h (4 Bft) O-NO 78 2 min 0,000 mm 0,0 UV-I 100 W/m -4,5 C -11,5 C 30,6 km/h (5 Bft) 100,00 %
18.11.2018 08:22 -0,4 C 5,0 C -0,6 C 74 % 1026,1 hPa 0,0 l/m 21,4 km/h (4 Bft) O 96 2 min 0,000 mm 0,0 UV-I 103 W/m -4,5 C -10,8 C 32,2 km/h (5 Bft) 100,00 %
18.11.2018 08:24 -0,4 C 5,0 C -0,6 C 74 % 1026,2 hPa 0,0 l/m 19,2 km/h (3 Bft) O-NO 65 2 min 0,000 mm 0,0 UV-I 106 W/m -4,5 C -9,8 C 25,7 km/h (4 Bft) 97,87 %
18.11.2018 08:26 -0,4 C 5,0 C -0,6 C 74 % 1026,1 hPa 0,0 l/m 17,6 km/h (3 Bft) O-NO 71 2 min 0,000 mm 0,0 UV-I 109 W/m -4,5 C -8,9 C 24,1 km/h (4 Bft) 100,00 %
18.11.2018 08:28 -0,4 C 5,0 C -0,6 C 74 % 1026,1 hPa 0,0 l/m 20,8 km/h (4 Bft) O-NO 71 2 min 0,000 mm 0,0 UV-I 113 W/m -4,5 C -10,5 C 25,7 km/h (4 Bft) 100,00 %
18.11.2018 08:30 -0,4 C 5,0 C -0,6 C 74 % 1026,1 hPa 0,0 l/m 19,4 km/h (3 Bft) O 80 2 min 0,000 mm 0,0 UV-I 115 W/m -4,5 C -9,9 C 29,0 km/h (5 Bft) 100,00 %
18.11.2018 08:32 -0,5 C 5,0 C -0,6 C 74 % 1026,1 hPa 0,0 l/m 16,7 km/h (3 Bft) O 86 2 min 0,000 mm 0,0 UV-I 120 W/m -4,5 C -8,6 C 22,5 km/h (4 Bft) 100,00 %
18.11.2018 08:34 -0,4 C 5,0 C -0,6 C 74 % 1026,0 hPa 0,0 l/m 17,6 km/h (3 Bft) O-NO 71 2 min 0,000 mm 0,0 UV-I 123 W/m -4,5 C -8,9 C 22,5 km/h (4 Bft) 95,74 %
18.11.2018 08:36 -0,4 C 5,0 C 0,0 C 74 % 1026,1 hPa 0,0 l/m 18,6 km/h (3 Bft) O-NO 64 2 min 0,000 mm 0,0 UV-I 126 W/m -4,5 C -9,5 C 22,5 km/h (4 Bft) 98,00 %
18.11.2018 08:38 -0,4 C 5,0 C 0,0 C 74 % 1026,1 hPa 0,0 l/m 17,7 km/h (3 Bft) O-NO 74 2 min 0,000 mm 0,0 UV-I 129 W/m -4,5 C -9,0 C 22,5 km/h (4 Bft) 95,83 %
18.11.2018 08:40 -0,4 C 5,0 C -0,6 C 74 % 1026,1 hPa 0,0 l/m 16,8 km/h (3 Bft) O-NO 75 2 min 0,000 mm 0,0 UV-I 133 W/m -4,5 C -8,5 C 22,5 km/h (4 Bft) 97,87 %
18.11.2018 08:42 -0,4 C 5,0 C 0,0 C 74 % 1026,1 hPa 0,0 l/m 15,7 km/h (3 Bft) O-NO 67 2 min 0,000 mm 0,0 UV-I 137 W/m -4,5 C -7,9 C 22,5 km/h (4 Bft) 98,00 %
18.11.2018 08:44 -0,3 C 5,0 C 0,0 C 74 % 1026,0 hPa 0,0 l/m 14,5 km/h (3 Bft) O-NO 59 2 min 0,000 mm 0,0 UV-I 141 W/m -4,4 C -7,0 C 20,9 km/h (4 Bft) 97,87 %
18.11.2018 08:46 -0,3 C 5,0 C 0,6 C 74 % 1026,0 hPa 0,0 l/m 14,5 km/h (3 Bft) O 87 2 min 0,000 mm 0,0 UV-I 144 W/m -4,4 C -7,0 C 17,7 km/h (3 Bft) 97,87 %
18.11.2018 08:48 -0,3 C 5,0 C 0,0 C 74 % 1026,0 hPa 0,0 l/m 13,7 km/h (3 Bft) O 81 2 min 0,000 mm 0,0 UV-I 148 W/m -4,4 C -6,5 C 19,3 km/h (3 Bft) 95,74 %
18.11.2018 08:50 -0,3 C 5,0 C 0,0 C 74 % 1026,0 hPa 0,0 l/m 12,0 km/h (2 Bft) O-NO 59 2 min 0,000 mm 0,0 UV-I 152 W/m -4,4 C -5,3 C 16,1 km/h (3 Bft) 100,00 %
18.11.2018 08:52 -0,2 C 5,0 C 0,0 C 74 % 1025,9 hPa 0,0 l/m 8,4 km/h (2 Bft) O 84 2 min 0,000 mm 0,0 UV-I 155 W/m -4,3 C -2,2 C 12,9 km/h (3 Bft) 97,14 %
18.11.2018 08:54 -0,2 C 5,0 C 0,6 C 74 % 1025,9 hPa 0,0 l/m 16,0 km/h (3 Bft) O-NO 71 2 min 0,000 mm 0,0 UV-I 159 W/m -4,3 C -7,8 C 20,9 km/h (4 Bft) 98,00 %
18.11.2018 08:56 -0,2 C 5,0 C 0,6 C 73 % 1025,9 hPa 0,0 l/m 13,3 km/h (3 Bft) O-NO 74 2 min 0,000 mm 0,0 UV-I 163 W/m -4,4 C -6,1 C 17,7 km/h (3 Bft) 97,87 %
18.11.2018 08:58 -0,2 C 5,0 C 0,6 C 74 % 1025,9 hPa 0,0 l/m 15,0 km/h (3 Bft) O 88 2 min 0,000 mm 0,0 UV-I 165 W/m -4,3 C -7,2 C 20,9 km/h (4 Bft) 98,00 %
18.11.2018 09:00 -0,1 C 5,0 C 0,6 C 74 % 1025,9 hPa 0,0 l/m 16,6 km/h (3 Bft) O 90 2 min 0,077 mm 0,0 UV-I 170 W/m -4,2 C -8,0 C 20,9 km/h (4 Bft) 98,00 %
18.11.2018 09:02 -0,1 C 5,0 C 0,6 C 73 % 1025,9 hPa 0,0 l/m 18,4 km/h (3 Bft) O 81 2 min 0,000 mm 0,0 UV-I 173 W/m -4,3 C -9,0 C 24,1 km/h (4 Bft) 97,37 %
18.11.2018 09:04 -0,1 C 5,0 C 0,6 C 74 % 1025,9 hPa 0,0 l/m 18,7 km/h (3 Bft) O-NO 65 2 min 0,000 mm 0,0 UV-I 177 W/m -4,2 C -9,1 C 27,4 km/h (4 Bft) 95,74 %
18.11.2018 09:06 0,0 C 5,0 C 0,6 C 73 % 1025,8 hPa 0,0 l/m 18,9 km/h (3 Bft) O 80 2 min 0,000 mm 0,0 UV-I 180 W/m -4,2 C -9,1 C 29,0 km/h (5 Bft) 95,74 %
18.11.2018 09:08 0,0 C 5,0 C 0,6 C 73 % 1025,8 hPa 0,0 l/m 18,1 km/h (3 Bft) O 88 2 min 0,000 mm 0,0 UV-I 183 W/m -4,2 C -8,7 C 24,1 km/h (4 Bft) 97,87 %
18.11.2018 09:10 0,0 C 5,0 C 0,6 C 73 % 1025,8 hPa 0,0 l/m 16,7 km/h (3 Bft) O-NO 70 2 min 0,000 mm 0,0 UV-I 187 W/m -4,2 C -8,0 C 24,1 km/h (4 Bft) 91,49 %
18.11.2018 09:12 0,1 C 5,0 C 0,0 C 73 % 1025,8 hPa 0,0 l/m 15,6 km/h (3 Bft) O 87 2 min 0,000 mm 0,0 UV-I 190 W/m -4,2 C -7,2 C 22,5 km/h (4 Bft) 93,75 %
18.11.2018 09:14 0,1 C 5,0 C 0,0 C 73 % 1025,8 hPa 0,0 l/m 21,3 km/h (4 Bft) O-NO 63 2 min 0,000 mm 0,0 UV-I 194 W/m -4,2 C -10,1 C 29,0 km/h (5 Bft) 95,74 %
18.11.2018 09:16 0,1 C 5,0 C 0,0 C 73 % 1025,7 hPa 0,0 l/m 17,7 km/h (3 Bft) O 82 2 min 0,000 mm 0,0 UV-I 198 W/m -4,2 C -8,4 C 25,7 km/h (4 Bft) 98,08 %
18.11.2018 09:18 0,1 C 5,0 C 0,0 C 73 % 1025,6 hPa 0,0 l/m 18,1 km/h (3 Bft) NO 54 2 min 0,000 mm 0,0 UV-I 200 W/m -4,2 C -8,6 C 25,7 km/h (4 Bft) 97,92 %
18.11.2018 09:20 0,2 C 5,0 C 0,0 C 73 % 1025,6 hPa 0,0 l/m 18,2 km/h (3 Bft) O-NO 66 2 min 0,000 mm 0,0 UV-I 204 W/m -4,1 C -8,5 C 25,7 km/h (4 Bft) 97,87 %
18.11.2018 09:22 0,2 C 5,0 C 0,0 C 73 % 1025,5 hPa 0,0 l/m 15,2 km/h (3 Bft) O 80 2 min 0,000 mm 0,0 UV-I 208 W/m -4,1 C -6,9 C 20,9 km/h (4 Bft) 97,87 %
18.11.2018 09:24 0,2 C 5,0 C 0,0 C 73 % 1025,5 hPa 0,0 l/m 16,1 km/h (3 Bft) O 79 2 min 0,000 mm 0,0 UV-I 213 W/m -4,1 C -7,4 C 24,1 km/h (4 Bft) 100,00 %
18.11.2018 09:26 0,3 C 5,0 C 0,0 C 73 % 1025,5 hPa 0,0 l/m 15,8 km/h (3 Bft) NO 49 2 min 0,000 mm 0,0 UV-I 218 W/m -4,0 C -7,1 C 19,3 km/h (3 Bft) 100,00 %
18.11.2018 09:28 0,3 C 5,0 C 0,0 C 73 % 1025,4 hPa 0,0 l/m 17,5 km/h (3 Bft) O-NO 67 2 min 0,000 mm 0,0 UV-I 220 W/m -4,0 C -8,0 C 25,7 km/h (4 Bft) 97,87 %
18.11.2018 09:30 0,4 C 5,0 C 0,6 C 73 % 1025,4 hPa 0,0 l/m 15,3 km/h (3 Bft) O-NO 73 2 min 0,000 mm 0,0 UV-I 224 W/m -3,9 C -6,7 C 19,3 km/h (3 Bft) 97,87 %
18.11.2018 09:32 0,4 C 5,0 C 0,6 C 73 % 1025,5 hPa 0,0 l/m 15,5 km/h (3 Bft) O-NO 59 2 min 0,000 mm 0,0 UV-I 228 W/m -3,9 C -6,8 C 22,5 km/h (4 Bft) 100,00 %
18.11.2018 09:34 0,5 C 5,0 C 0,6 C 73 % 1025,5 hPa 0,0 l/m 14,1 km/h (3 Bft) O 79 2 min 0,000 mm 0,0 UV-I 232 W/m -3,8 C -5,8 C 20,9 km/h (4 Bft) 100,00 %
18.11.2018 09:36 0,6 C 5,0 C 0,6 C 73 % 1025,4 hPa 0,0 l/m 13,5 km/h (3 Bft) O-NO 67 2 min 0,000 mm 0,0 UV-I 234 W/m -3,7 C -5,3 C 25,7 km/h (4 Bft) 100,00 %
18.11.2018 09:38 0,6 C 5,0 C 0,6 C 73 % 1025,5 hPa 0,0 l/m 17,9 km/h (3 Bft) O-NO 71 2 min 0,000 mm 0,0 UV-I 237 W/m -3,7 C -7,8 C 27,4 km/h (4 Bft) 98,04 %
18.11.2018 09:40 0,7 C 5,0 C 0,6 C 73 % 1025,5 hPa 0,0 l/m 12,5 km/h (3 Bft) O-NO 59 2 min 0,000 mm 0,0 UV-I 240 W/m -3,6 C -4,5 C 16,1 km/h (3 Bft) 100,00 %
18.11.2018 09:42 0,8 C 5,0 C 1,1 C 73 % 1025,4 hPa 0,0 l/m 15,6 km/h (3 Bft) O 85 2 min 0,000 mm 0,0 UV-I 242 W/m -3,5 C -6,4 C 22,5 km/h (4 Bft) 96,00 %
18.11.2018 09:44 0,8 C 5,0 C 1,1 C 72 % 1025,5 hPa 0,0 l/m 14,7 km/h (3 Bft) O-NO 62 2 min 0,000 mm 0,0 UV-I 245 W/m -3,7 C -5,8 C 20,9 km/h (4 Bft) 95,74 %
18.11.2018 09:46 0,8 C 5,0 C 1,1 C 72 % 1025,4 hPa 0,0 l/m 14,9 km/h (3 Bft) O-SO 106 2 min 0,000 mm 0,0 UV-I 249 W/m -3,7 C -6,0 C 20,9 km/h (4 Bft) 100,00 %
18.11.2018 09:48 0,9 C 5,0 C 1,1 C 72 % 1025,4 hPa 0,0 l/m 15,1 km/h (3 Bft) O 90 2 min 0,000 mm 0,0 UV-I 251 W/m -3,6 C -5,9 C 22,5 km/h (4 Bft) 95,74 %
18.11.2018 09:50 0,9 C 5,0 C 1,1 C 72 % 1025,4 hPa 0,0 l/m 18,4 km/h (3 Bft) O 79 2 min 0,000 mm 0,0 UV-I 254 W/m -3,6 C -7,7 C 25,7 km/h (4 Bft) 97,87 %
18.11.2018 09:52 0,9 C 5,0 C 1,1 C 72 % 1025,4 hPa 0,0 l/m 15,4 km/h (3 Bft) NO 47 2 min 0,000 mm 0,0 UV-I 255 W/m -3,6 C -6,1 C 20,9 km/h (4 Bft) 97,87 %
18.11.2018 09:54 1,0 C 5,0 C 1,1 C 72 % 1025,4 hPa 0,0 l/m 14,3 km/h (3 Bft) O-NO 67 2 min 0,000 mm 0,0 UV-I 258 W/m -3,5 C -5,4 C 22,5 km/h (4 Bft) 93,62 %
18.11.2018 09:56 1,1 C 5,0 C 1,1 C 71 % 1025,4 hPa 0,0 l/m 15,6 km/h (3 Bft) O-NO 73 2 min 0,000 mm 0,0 UV-I 259 W/m -3,6 C -6,0 C 22,5 km/h (4 Bft) 98,00 %
18.11.2018 09:58 1,1 C 5,0 C 1,1 C 72 % 1025,4 hPa 0,0 l/m 15,4 km/h (3 Bft) O-NO 76 2 min 0,000 mm 0,0 UV-I 261 W/m -3,4 C -5,9 C 22,5 km/h (4 Bft) 97,87 %
18.11.2018 10:00 1,1 C 5,0 C 1,1 C 71 % 1025,4 hPa 0,0 l/m 14,3 km/h (3 Bft) O-NO 61 2 min 0,101 mm 0,0 UV-I 264 W/m -3,6 C -5,2 C 20,9 km/h (4 Bft) 100,00 %
18.11.2018 10:02 1,2 C 5,0 C 1,7 C 72 % 1025,4 hPa 0,0 l/m 19,1 km/h (3 Bft) NO 45 2 min 0,000 mm 0,0 UV-I 266 W/m -3,3 C -7,7 C 25,7 km/h (4 Bft) 98,00 %
18.11.2018 10:04 1,2 C 5,0 C 1,1 C 71 % 1025,4 hPa 0,0 l/m 20,8 km/h (4 Bft) O-NO 69 2 min 0,000 mm 0,0 UV-I 267 W/m -3,5 C -8,4 C 29,0 km/h (5 Bft) 100,00 %
18.11.2018 10:06 1,2 C 5,0 C 1,1 C 71 % 1025,3 hPa 0,0 l/m 15,8 km/h (3 Bft) O-NO 68 2 min 0,000 mm 0,0 UV-I 270 W/m -3,5 C -6,0 C 20,9 km/h (4 Bft) 100,00 %
18.11.2018 10:08 1,1 C 5,0 C 1,7 C 71 % 1025,3 hPa 0,0 l/m 15,2 km/h (3 Bft) O-NO 70 2 min 0,000 mm 0,0 UV-I 271 W/m -3,6 C -5,8 C 20,9 km/h (4 Bft) 95,83 %
18.11.2018 10:10 1,2 C 5,0 C 1,7 C 71 % 1025,3 hPa 0,0 l/m 10,1 km/h (2 Bft) NO 41 2 min 0,000 mm 0,0 UV-I 275 W/m -3,5 C -2,2 C 14,5 km/h (3 Bft) 100,00 %
18.11.2018 10:12 1,3 C 5,0 C 1,7 C 71 % 1025,2 hPa 0,0 l/m 15,1 km/h (3 Bft) O 93 2 min 0,000 mm 0,0 UV-I 279 W/m -3,4 C -5,5 C 22,5 km/h (4 Bft) 100,00 %
18.11.2018 10:14 1,3 C 5,0 C 1,7 C 71 % 1025,2 hPa 0,0 l/m 16,7 km/h (3 Bft) O 88 2 min 0,000 mm 0,0 UV-I 282 W/m -3,4 C -6,3 C 24,1 km/h (4 Bft) 100,00 %
18.11.2018 10:16 1,3 C 5,0 C 1,7 C 71 % 1025,2 hPa 0,0 l/m 13,9 km/h (3 Bft) O-NO 69 2 min 0,000 mm 0,2 UV-I 284 W/m -3,4 C -4,7 C 24,1 km/h (4 Bft) 97,87 %
18.11.2018 10:18 1,4 C 5,0 C 2,2 C 70 % 1025,1 hPa 0,0 l/m 15,4 km/h (3 Bft) NO 53 2 min 0,000 mm 0,5 UV-I 286 W/m -3,5 C -5,5 C 20,9 km/h (4 Bft) 100,00 %
18.11.2018 10:20 1,5 C 5,0 C 2,2 C 71 % 1025,1 hPa 0,0 l/m 13,5 km/h (3 Bft) O-NO 71 2 min 0,000 mm 0,5 UV-I 288 W/m -3,2 C -4,3 C 17,7 km/h (3 Bft) 100,00 %
18.11.2018 10:22 1,6 C 5,0 C 2,2 C 70 % 1025,0 hPa 0,0 l/m 16,4 km/h (3 Bft) O-NO 64 2 min 0,000 mm 0,5 UV-I 288 W/m -3,3 C -5,8 C 20,9 km/h (4 Bft) 100,00 %
18.11.2018 10:24 1,6 C 5,0 C 2,2 C 69 % 1025,0 hPa 0,0 l/m 19,5 km/h (3 Bft) O-NO 59 2 min 0,000 mm 0,5 UV-I 290 W/m -3,5 C -7,3 C 27,4 km/h (4 Bft) 100,00 %
18.11.2018 10:26 1,6 C 5,0 C 2,2 C 69 % 1025,0 hPa 0,0 l/m 16,8 km/h (3 Bft) NO 55 2 min 0,000 mm 0,5 UV-I 291 W/m -3,5 C -6,0 C 22,5 km/h (4 Bft) 100,00 %
18.11.2018 10:28 1,6 C 5,0 C 2,2 C 69 % 1025,0 hPa 0,0 l/m 17,5 km/h (3 Bft) NO 44 2 min 0,000 mm 0,5 UV-I 294 W/m -3,5 C -6,4 C 22,5 km/h (4 Bft) 96,00 %
18.11.2018 10:30 1,6 C 5,0 C 2,2 C 70 % 1024,9 hPa 0,0 l/m 18,2 km/h (3 Bft) O 96 2 min 0,000 mm 0,5 UV-I 296 W/m -3,3 C -6,7 C 24,1 km/h (4 Bft) 97,44 %
18.11.2018 10:32 1,7 C 5,0 C 1,7 C 69 % 1024,8 hPa 0,0 l/m 15,8 km/h (3 Bft) O-NO 73 2 min 0,000 mm 0,5 UV-I 300 W/m -3,4 C -5,4 C 22,5 km/h (4 Bft) 95,74 %
18.11.2018 10:34 1,7 C 5,0 C 1,7 C 70 % 1024,8 hPa 0,0 l/m 17,3 km/h (3 Bft) O-NO 75 2 min 0,000 mm 0,5 UV-I 302 W/m -3,2 C -6,2 C 22,5 km/h (4 Bft) 97,87 %
18.11.2018 10:36 1,7 C 5,0 C 1,7 C 69 % 1024,8 hPa 0,0 l/m 19,4 km/h (3 Bft) O-NO 58 2 min 0,000 mm 0,5 UV-I 303 W/m -3,4 C -7,2 C 24,1 km/h (4 Bft) 93,62 %
18.11.2018 10:38 1,7 C 5,0 C 2,2 C 70 % 1024,8 hPa 0,0 l/m 15,9 km/h (3 Bft) O-NO 59 2 min 0,000 mm 0,5 UV-I 305 W/m -3,2 C -5,4 C 20,9 km/h (4 Bft) 95,74 %
18.11.2018 10:40 1,7 C 5,0 C 2,2 C 70 % 1024,8 hPa 0,0 l/m 16,3 km/h (3 Bft) O-NO 74 2 min 0,000 mm 0,5 UV-I 308 W/m -3,2 C -5,6 C 24,1 km/h (4 Bft) 95,74 %
18.11.2018 10:42 1,8 C 5,0 C 2,2 C 69 % 1024,7 hPa 0,0 l/m 17,4 km/h (3 Bft) O 82 2 min 0,000 mm 0,5 UV-I 310 W/m -3,3 C -6,1 C 22,5 km/h (4 Bft) 98,00 %
18.11.2018 10:44 1,8 C 5,0 C 2,2 C 70 % 1024,7 hPa 0,0 l/m 16,3 km/h (3 Bft) O 86 2 min 0,000 mm 0,5 UV-I 311 W/m -3,1 C -5,5 C 20,9 km/h (4 Bft) 93,62 %
18.11.2018 10:46 1,9 C 5,0 C 2,8 C 69 % 1024,6 hPa 0,0 l/m 16,2 km/h (3 Bft) O-NO 61 2 min 0,000 mm 0,5 UV-I 313 W/m -3,2 C -5,3 C 22,5 km/h (4 Bft) 95,74 %
18.11.2018 10:48 2,0 C 5,0 C 2,8 C 69 % 1024,6 hPa 0,0 l/m 16,8 km/h (3 Bft) NO 54 2 min 0,000 mm 0,5 UV-I 314 W/m -3,1 C -5,5 C 22,5 km/h (4 Bft) 95,74 %
18.11.2018 10:50 2,1 C 5,0 C 2,8 C 69 % 1024,6 hPa 0,0 l/m 13,8 km/h (3 Bft) O-NO 61 2 min 0,000 mm 0,5 UV-I 315 W/m -3,0 C -3,7 C 17,7 km/h (3 Bft) 93,62 %
18.11.2018 10:52 2,2 C 5,0 C 2,8 C 69 % 1024,6 hPa 0,0 l/m 14,4 km/h (3 Bft) O-NO 69 2 min 0,000 mm 0,6 UV-I 316 W/m -2,9 C -4,0 C 17,7 km/h (3 Bft) 91,49 %
18.11.2018 10:54 2,3 C 5,0 C 2,8 C 69 % 1024,6 hPa 0,0 l/m 13,4 km/h (3 Bft) O-NO 59 2 min 0,000 mm 0,6 UV-I 317 W/m -2,8 C -3,3 C 19,3 km/h (3 Bft) 97,87 %
18.11.2018 10:56 2,4 C 5,0 C 2,8 C 69 % 1024,6 hPa 0,0 l/m 17,6 km/h (3 Bft) O-NO 78 2 min 0,000 mm 0,6 UV-I 318 W/m -2,7 C -5,4 C 22,5 km/h (4 Bft) 97,87 %
18.11.2018 10:58 2,5 C 5,0 C 2,8 C 68 % 1024,5 hPa 0,0 l/m 17,1 km/h (3 Bft) O 94 2 min 0,000 mm 0,6 UV-I 318 W/m -2,8 C -5,1 C 20,9 km/h (4 Bft) 93,62 %
18.11.2018 11:00 2,5 C 5,0 C 3,3 C 68 % 1024,4 hPa 0,0 l/m 15,9 km/h (3 Bft) O-NO 77 2 min 0,153 mm 0,6 UV-I 319 W/m -2,8 C -4,4 C 20,9 km/h (4 Bft) 97,37 %
18.11.2018 11:02 2,5 C 5,0 C 3,3 C 69 % 1024,4 hPa 0,0 l/m 12,9 km/h (3 Bft) O 83 2 min 0,000 mm 0,6 UV-I 322 W/m -2,6 C -2,7 C 16,1 km/h (3 Bft) 95,83 %
18.11.2018 11:04 2,5 C 5,0 C 3,3 C 68 % 1024,4 hPa 0,0 l/m 15,0 km/h (3 Bft) O-NO 59 2 min 0,000 mm 0,6 UV-I 324 W/m -2,8 C -4,0 C 20,9 km/h (4 Bft) 98,00 %
18.11.2018 11:06 2,6 C 5,0 C 3,3 C 68 % 1024,3 hPa 0,0 l/m 16,6 km/h (3 Bft) O 82 2 min 0,000 mm 0,6 UV-I 326 W/m -2,7 C -4,7 C 22,5 km/h (4 Bft) 95,74 %
18.11.2018 11:08 2,5 C 5,0 C 2,8 C 68 % 1024,3 hPa 0,0 l/m 15,3 km/h (3 Bft) O-NO 68 2 min 0,000 mm 0,6 UV-I 331 W/m -2,8 C -4,1 C 19,3 km/h (3 Bft) 97,87 %
18.11.2018 11:10 2,6 C 5,0 C 3,3 C 68 % 1024,4 hPa 0,0 l/m 14,3 km/h (3 Bft) O-NO 68 2 min 0,000 mm 0,6 UV-I 337 W/m -2,7 C -3,4 C 19,3 km/h (3 Bft) 100,00 %
18.11.2018 11:12 2,6 C 5,0 C 3,3 C 68 % 1024,4 hPa 0,0 l/m 14,2 km/h (3 Bft) O 86 2 min 0,000 mm 0,6 UV-I 335 W/m -2,7 C -3,4 C 20,9 km/h (4 Bft) 97,87 %
18.11.2018 11:14 2,7 C 5,0 C 3,3 C 68 % 1024,3 hPa 0,0 l/m 16,0 km/h (3 Bft) O-NO 69 2 min 0,000 mm 0,6 UV-I 307 W/m -2,6 C -4,2 C 20,9 km/h (4 Bft) 100,00 %
18.11.2018 11:16 2,7 C 5,0 C 3,3 C 68 % 1024,2 hPa 0,0 l/m 16,8 km/h (3 Bft) O 80 2 min 0,000 mm 0,6 UV-I 270 W/m -2,6 C -4,7 C 24,1 km/h (4 Bft) 95,74 %
18.11.2018 11:18 2,8 C 5,0 C 3,3 C 68 % 1024,1 hPa 0,0 l/m 19,1 km/h (3 Bft) O-NO 61 2 min 0,000 mm 0,6 UV-I 304 W/m -2,5 C -5,6 C 24,1 km/h (4 Bft) 97,87 %
18.11.2018 11:20 2,8 C 5,0 C 3,3 C 67 % 1024,2 hPa 0,0 l/m 18,3 km/h (3 Bft) O-NO 69 2 min 0,000 mm 0,6 UV-I 332 W/m -2,7 C -5,3 C 24,1 km/h (4 Bft) 93,62 %
18.11.2018 11:22 2,8 C 5,0 C 3,3 C 68 % 1024,2 hPa 0,0 l/m 12,7 km/h (3 Bft) O 92 2 min 0,000 mm 0,6 UV-I 334 W/m -2,5 C -2,2 C 17,7 km/h (3 Bft) 95,74 %
18.11.2018 11:24 2,8 C 5,0 C 3,9 C 68 % 1024,1 hPa 0,0 l/m 14,2 km/h (3 Bft) O-SO 103 2 min 0,000 mm 0,6 UV-I 336 W/m -2,5 C -3,1 C 19,3 km/h (3 Bft) 97,87 %
18.11.2018 11:26 2,9 C 5,0 C 3,9 C 68 % 1024,1 hPa 0,0 l/m 14,4 km/h (3 Bft) O 96 2 min 0,000 mm 0,6 UV-I 334 W/m -2,4 C -3,1 C 20,9 km/h (4 Bft) 93,62 %
18.11.2018 11:28 3,1 C 5,0 C 3,9 C 68 % 1024,1 hPa 0,0 l/m 12,7 km/h (3 Bft) O-SO 107 2 min 0,000 mm 0,6 UV-I 334 W/m -2,2 C -1,9 C 16,1 km/h (3 Bft) 94,74 %
18.11.2018 11:30 3,1 C 5,0 C 4,4 C 67 % 1024,0 hPa 0,0 l/m 13,6 km/h (3 Bft) O-SO 115 2 min 0,000 mm 0,6 UV-I 336 W/m -2,4 C -2,4 C 17,7 km/h (3 Bft) 97,92 %
18.11.2018 11:32 3,2 C 5,0 C 4,4 C 67 % 1024,0 hPa 0,0 l/m 11,7 km/h (2 Bft) O-NO 69 2 min 0,000 mm 0,6 UV-I 335 W/m -2,3 C -1,1 C 17,7 km/h (3 Bft) 97,96 %
18.11.2018 11:34 3,2 C 5,0 C 4,4 C 67 % 1024,0 hPa 0,0 l/m 12,5 km/h (3 Bft) O 94 2 min 0,000 mm 0,6 UV-I 335 W/m -2,3 C -1,6 C 20,9 km/h (4 Bft) 93,75 %
18.11.2018 11:36 3,2 C 5,0 C 4,4 C 66 % 1023,9 hPa 0,0 l/m 15,5 km/h (3 Bft) O-NO 71 2 min 0,000 mm 0,6 UV-I 334 W/m -2,5 C -3,4 C 22,5 km/h (4 Bft) 93,62 %
18.11.2018 11:38 3,3 C 5,0 C 4,4 C 67 % 1023,9 hPa 0,0 l/m 14,3 km/h (3 Bft) O-NO 62 2 min 0,000 mm 0,6 UV-I 335 W/m -2,2 C -2,6 C 19,3 km/h (3 Bft) 97,87 %
18.11.2018 11:40 3,3 C 5,0 C 4,4 C 67 % 1023,8 hPa 0,0 l/m 14,7 km/h (3 Bft) O-SO 109 2 min 0,000 mm 0,6 UV-I 339 W/m -2,2 C -2,8 C 20,9 km/h (4 Bft) 97,87 %
18.11.2018 11:42 3,3 C 5,0 C 4,4 C 67 % 1023,8 hPa 0,0 l/m 11,8 km/h (2 Bft) O-NO 69 2 min 0,000 mm 0,6 UV-I 339 W/m -2,2 C -1,1 C 17,7 km/h (3 Bft) 95,74 %
18.11.2018 11:44 3,4 C 5,0 C 3,9 C 67 % 1023,8 hPa 0,0 l/m 14,8 km/h (3 Bft) O-NO 74 2 min 0,000 mm 0,6 UV-I 338 W/m -2,1 C -2,8 C 20,9 km/h (4 Bft) 97,87 %
18.11.2018 11:46 3,4 C 5,0 C 3,9 C 66 % 1023,8 hPa 0,0 l/m 16,6 km/h (3 Bft) O 86 2 min 0,000 mm 0,6 UV-I 339 W/m -2,3 C -3,7 C 27,4 km/h (4 Bft) 96,00 %
18.11.2018 11:48 3,5 C 5,0 C 3,9 C 66 % 1023,8 hPa 0,0 l/m 15,6 km/h (3 Bft) O 81 2 min 0,000 mm 0,6 UV-I 339 W/m -2,2 C -3,1 C 22,5 km/h (4 Bft) 100,00 %
18.11.2018 11:50 3,6 C 5,0 C 4,4 C 66 % 1023,8 hPa 0,0 l/m 15,1 km/h (3 Bft) O 92 2 min 0,000 mm 0,6 UV-I 340 W/m -2,1 C -2,7 C 20,9 km/h (4 Bft) 96,00 %
18.11.2018 11:52 3,6 C 5,0 C 4,4 C 66 % 1023,8 hPa 0,0 l/m 14,3 km/h (3 Bft) NO 45 2 min 0,000 mm 0,6 UV-I 338 W/m -2,1 C -2,2 C 17,7 km/h (3 Bft) 97,87 %
18.11.2018 11:54 3,7 C 5,0 C 4,4 C 67 % 1023,7 hPa 0,0 l/m 15,4 km/h (3 Bft) O 80 2 min 0,000 mm 0,6 UV-I 339 W/m -1,8 C -2,7 C 20,9 km/h (4 Bft) 97,87 %
18.11.2018 11:56 3,8 C 5,0 C 4,4 C 66 % 1023,7 hPa 0,0 l/m 18,1 km/h (3 Bft) NO 54 2 min 0,000 mm 0,6 UV-I 338 W/m -2,0 C -3,9 C 25,7 km/h (4 Bft) 97,87 %
18.11.2018 11:58 3,8 C 5,0 C 4,4 C 66 % 1023,7 hPa 0,0 l/m 15,2 km/h (3 Bft) O-NO 62 2 min 0,000 mm 0,6 UV-I 338 W/m -2,0 C -2,5 C 24,1 km/h (4 Bft) 96,00 %
18.11.2018 12:00 3,9 C 5,0 C 5,0 C 66 % 1023,6 hPa 0,0 l/m 14,9 km/h (3 Bft) O-NO 74 2 min 0,000 mm 0,6 UV-I 336 W/m -1,9 C -2,2 C 20,9 km/h (4 Bft) 93,62 %
18.11.2018 12:02 3,9 C 5,0 C 5,0 C 65 % 1023,6 hPa 0,0 l/m 17,3 km/h (3 Bft) O-SO 107 2 min 0,152 mm 0,6 UV-I 339 W/m -2,1 C -3,4 C 25,7 km/h (4 Bft) 94,00 %
18.11.2018 12:04 3,9 C 5,0 C 5,0 C 65 % 1023,5 hPa 0,0 l/m 19,4 km/h (3 Bft) O-SO 115 2 min 0,000 mm 0,6 UV-I 337 W/m -2,1 C -4,3 C 25,7 km/h (4 Bft) 91,49 %
18.11.2018 12:06 3,9 C 5,0 C 5,0 C 65 % 1023,5 hPa 0,0 l/m 19,7 km/h (3 Bft) O-SO 102 2 min 0,000 mm 0,6 UV-I 336 W/m -2,1 C -4,5 C 25,7 km/h (4 Bft) 85,11 %
18.11.2018 12:08 3,9 C 5,0 C 5,0 C 65 % 1023,6 hPa 0,0 l/m 21,0 km/h (4 Bft) O 94 2 min 0,000 mm 0,6 UV-I 336 W/m -2,1 C -5,0 C 27,4 km/h (4 Bft) 93,62 %
18.11.2018 12:10 3,9 C 5,0 C 4,4 C 65 % 1023,6 hPa 0,0 l/m 20,3 km/h (4 Bft) O 100 2 min 0,000 mm 0,6 UV-I 337 W/m -2,1 C -4,7 C 32,2 km/h (5 Bft) 91,67 %
18.11.2018 12:12 3,9 C 5,0 C 4,4 C 65 % 1023,5 hPa 0,0 l/m 20,3 km/h (4 Bft) O-NO 71 2 min 0,000 mm 0,6 UV-I 335 W/m -2,1 C -4,7 C 25,7 km/h (4 Bft) 88,00 %
18.11.2018 12:14 4,0 C 5,0 C 4,4 C 65 % 1023,5 hPa 0,0 l/m 18,5 km/h (3 Bft) O 101 2 min 0,000 mm 0,6 UV-I 334 W/m -2,0 C -3,8 C 25,7 km/h (4 Bft) 94,00 %
18.11.2018 12:16 4,0 C 5,0 C 4,4 C 66 % 1023,5 hPa 0,0 l/m 17,4 km/h (3 Bft) O-SO 105 2 min 0,000 mm 0,6 UV-I 333 W/m -1,8 C -3,3 C 24,1 km/h (4 Bft) 94,00 %
18.11.2018 12:18 4,1 C 5,0 C 4,4 C 65 % 1023,6 hPa 0,0 l/m 15,5 km/h (3 Bft) O 84 2 min 0,000 mm 0,6 UV-I 332 W/m -1,9 C -2,3 C 19,3 km/h (3 Bft) 91,49 %
18.11.2018 12:20 4,2 C 5,0 C 5,0 C 66 % 1023,6 hPa 0,0 l/m 18,4 km/h (3 Bft) O 89 2 min 0,000 mm 0,6 UV-I 332 W/m -1,6 C -3,5 C 29,0 km/h (5 Bft) 90,24 %
18.11.2018 12:22 4,2 C 5,0 C 4,4 C 65 % 1023,6 hPa 0,0 l/m 20,3 km/h (4 Bft) O 92 2 min 0,000 mm 0,6 UV-I 330 W/m -1,8 C -4,3 C 27,4 km/h (4 Bft) 92,00 %
18.11.2018 12:24 4,2 C 5,0 C 4,4 C 65 % 1023,5 hPa 0,0 l/m 19,6 km/h (3 Bft) O 92 2 min 0,000 mm 0,6 UV-I 329 W/m -1,8 C -4,0 C 27,4 km/h (4 Bft) 95,74 %
18.11.2018 12:26 4,2 C 5,0 C 4,4 C 65 % 1023,5 hPa 0,0 l/m 20,2 km/h (4 Bft) O 94 2 min 0,000 mm 0,6 UV-I 329 W/m -1,8 C -4,3 C 29,0 km/h (5 Bft) 97,87 %
18.11.2018 12:28 4,2 C 5,0 C 4,4 C 65 % 1023,5 hPa 0,0 l/m 17,6 km/h (3 Bft) O 85 2 min 0,000 mm 0,6 UV-I 326 W/m -1,8 C -3,2 C 25,7 km/h (4 Bft) 96,00 %
18.11.2018 12:30 4,2 C 5,0 C 4,4 C 65 % 1023,4 hPa 0,0 l/m 18,3 km/h (3 Bft) O 94 2 min 0,000 mm 0,6 UV-I 323 W/m -1,8 C -3,5 C 24,1 km/h (4 Bft) 100,00 %
18.11.2018 12:32 4,3 C 5,0 C 5,0 C 65 % 1023,4 hPa 0,0 l/m 19,4 km/h (3 Bft) O 84 2 min 0,000 mm 0,6 UV-I 323 W/m -1,7 C -3,8 C 24,1 km/h (4 Bft) 97,87 %
18.11.2018 12:34 4,3 C 5,0 C 5,0 C 64 % 1023,4 hPa 0,0 l/m 21,0 km/h (4 Bft) O-NO 71 2 min 0,000 mm 0,6 UV-I 322 W/m -1,9 C -4,5 C 27,4 km/h (4 Bft) 96,00 %
18.11.2018 12:36 4,3 C 5,0 C 5,0 C 65 % 1023,3 hPa 0,0 l/m 13,1 km/h (3 Bft) O-NO 74 2 min 0,000 mm 0,6 UV-I 320 W/m -1,7 C -0,7 C 24,1 km/h (4 Bft) 92,31 %
18.11.2018 12:38 4,3 C 5,0 C 5,0 C 65 % 1023,3 hPa 0,0 l/m 19,3 km/h (3 Bft) O-SO 105 2 min 0,000 mm 0,6 UV-I 319 W/m -1,7 C -3,8 C 27,4 km/h (4 Bft) 98,00 %
18.11.2018 12:40 4,3 C 5,0 C 5,0 C 65 % 1023,3 hPa 0,0 l/m 20,9 km/h (4 Bft) O 82 2 min 0,000 mm 0,6 UV-I 320 W/m -1,7 C -4,4 C 30,6 km/h (5 Bft) 97,87 %
18.11.2018 12:42 4,3 C 5,0 C 5,0 C 64 % 1023,3 hPa 0,0 l/m 20,0 km/h (4 Bft) O 90 2 min 0,000 mm 0,6 UV-I 318 W/m -1,9 C -4,1 C 30,6 km/h (5 Bft) 95,74 %
18.11.2018 12:44 4,3 C 5,0 C 5,0 C 65 % 1023,2 hPa 0,0 l/m 21,5 km/h (4 Bft) O 89 2 min 0,000 mm 0,6 UV-I 316 W/m -1,7 C -4,7 C 30,6 km/h (5 Bft) 98,11 %
18.11.2018 12:46 4,3 C 5,0 C 5,0 C 64 % 1023,2 hPa 0,0 l/m 18,3 km/h (3 Bft) O-NO 72 2 min 0,000 mm 0,6 UV-I 313 W/m -1,9 C -3,4 C 24,1 km/h (4 Bft) 97,87 %
18.11.2018 12:48 4,2 C 5,0 C 5,0 C 64 % 1023,3 hPa 0,0 l/m 14,9 km/h (3 Bft) O 83 2 min 0,000 mm 0,6 UV-I 311 W/m -2,0 C -1,8 C 20,9 km/h (4 Bft) 97,87 %
18.11.2018 12:50 4,2 C 5,0 C 5,0 C 65 % 1023,3 hPa 0,0 l/m 13,6 km/h (3 Bft) O 101 2 min 0,000 mm 0,6 UV-I 310 W/m -1,8 C -1,1 C 20,9 km/h (4 Bft) 97,87 %
18.11.2018 12:52 4,3 C 5,0 C 5,0 C 65 % 1023,3 hPa 0,0 l/m 12,8 km/h (3 Bft) O-NO 66 2 min 0,000 mm 0,6 UV-I 309 W/m -1,7 C -0,5 C 19,3 km/h (3 Bft) 96,00 %
18.11.2018 12:54 4,4 C 5,0 C 5,0 C 66 % 1023,3 hPa 0,0 l/m 15,1 km/h (3 Bft) O-NO 71 2 min 0,000 mm 0,5 UV-I 308 W/m -1,4 C -1,7 C 22,5 km/h (4 Bft) 97,87 %
18.11.2018 12:56 4,4 C 5,0 C 5,0 C 64 % 1023,2 hPa 0,0 l/m 17,9 km/h (3 Bft) O-NO 72 2 min 0,000 mm 0,5 UV-I 305 W/m -1,8 C -3,1 C 24,1 km/h (4 Bft) 95,74 %
18.11.2018 12:58 4,5 C 5,0 C 5,0 C 65 % 1023,2 hPa 0,0 l/m 13,4 km/h (3 Bft) O 101 2 min 0,000 mm 0,5 UV-I 303 W/m -1,5 C -0,7 C 19,3 km/h (3 Bft) 97,87 %
18.11.2018 13:00 4,6 C 5,0 C 5,6 C 65 % 1023,2 hPa 0,0 l/m 18,8 km/h (3 Bft) O-NO 58 2 min 0,178 mm 0,5 UV-I 302 W/m -1,4 C -3,2 C 29,0 km/h (5 Bft) 97,37 %
18.11.2018 13:02 4,6 C 5,0 C 5,6 C 65 % 1023,2 hPa 0,0 l/m 13,6 km/h (3 Bft) O-NO 62 2 min 0,000 mm 0,5 UV-I 300 W/m -1,4 C -0,7 C 20,9 km/h (4 Bft) 97,87 %
18.11.2018 13:04 4,6 C 5,0 C 5,6 C 64 % 1023,2 hPa 0,0 l/m 17,8 km/h (3 Bft) O-NO 57 2 min 0,000 mm 0,5 UV-I 296 W/m -1,6 C -2,8 C 25,7 km/h (4 Bft) 97,87 %
18.11.2018 13:06 4,6 C 5,0 C 5,0 C 64 % 1023,2 hPa 0,0 l/m 17,2 km/h (3 Bft) O-NO 77 2 min 0,000 mm 0,5 UV-I 294 W/m -1,6 C -2,5 C 22,5 km/h (4 Bft) 98,00 %
18.11.2018 13:08 4,6 C 5,0 C 5,0 C 64 % 1023,2 hPa 0,0 l/m 15,6 km/h (3 Bft) O 93 2 min 0,000 mm 0,5 UV-I 293 W/m -1,6 C -1,7 C 20,9 km/h (4 Bft) 98,00 %
18.11.2018 13:10 4,6 C 5,0 C 5,6 C 65 % 1023,2 hPa 0,0 l/m 17,6 km/h (3 Bft) O 89 2 min 0,000 mm 0,5 UV-I 294 W/m -1,4 C -2,7 C 22,5 km/h (4 Bft) 97,44 %
18.11.2018 13:12 4,6 C 5,0 C 5,6 C 64 % 1023,0 hPa 0,0 l/m 17,3 km/h (3 Bft) O-NO 58 2 min 0,000 mm 0,5 UV-I 291 W/m -1,6 C -2,5 C 25,7 km/h (4 Bft) 97,87 %
18.11.2018 13:14 4,6 C 5,0 C 5,6 C 65 % 1022,9 hPa 0,0 l/m 16,2 km/h (3 Bft) O-NO 78 2 min 0,000 mm 0,5 UV-I 289 W/m -1,4 C -2,0 C 20,9 km/h (4 Bft) 95,74 %
18.11.2018 13:16 4,7 C 5,0 C 5,6 C 65 % 1022,9 hPa 0,0 l/m 16,9 km/h (3 Bft) O 82 2 min 0,000 mm 0,5 UV-I 285 W/m -1,3 C -2,2 C 25,7 km/h (4 Bft) 93,62 %
18.11.2018 13:18 4,7 C 5,0 C 5,6 C 64 % 1022,9 hPa 0,0 l/m 17,5 km/h (3 Bft) O-NO 78 2 min 0,000 mm 0,5 UV-I 285 W/m -1,5 C -2,5 C 25,7 km/h (4 Bft) 91,49 %
18.11.2018 13:20 4,7 C 5,0 C 5,6 C 65 % 1022,9 hPa 0,0 l/m 15,6 km/h (3 Bft) NO 44 2 min 0,000 mm 0,5 UV-I 283 W/m -1,3 C -1,6 C 22,5 km/h (4 Bft) 92,00 %
18.11.2018 13:22 4,7 C 5,0 C 5,6 C 64 % 1022,9 hPa 0,0 l/m 18,0 km/h (3 Bft) O-NO 73 2 min 0,000 mm 0,5 UV-I 280 W/m -1,5 C -2,7 C 25,7 km/h (4 Bft) 93,62 %
18.11.2018 13:24 4,7 C 5,0 C 5,6 C 65 % 1022,8 hPa 0,0 l/m 13,9 km/h (3 Bft) O 90 2 min 0,000 mm 0,5 UV-I 280 W/m -1,3 C -0,7 C 22,5 km/h (4 Bft) 94,00 %
18.11.2018 13:26 4,7 C 5,0 C 5,6 C 65 % 1022,8 hPa 0,0 l/m 17,9 km/h (3 Bft) O 99 2 min 0,000 mm 0,5 UV-I 275 W/m -1,3 C -2,7 C 25,7 km/h (4 Bft) 95,74 %
18.11.2018 13:28 4,8 C 5,0 C 5,0 C 65 % 1022,7 hPa 0,0 l/m 17,6 km/h (3 Bft) O-NO 78 2 min 0,000 mm 0,3 UV-I 272 W/m -1,2 C -2,4 C 24,1 km/h (4 Bft) 92,11 %
18.11.2018 13:30 4,8 C 5,0 C 5,0 C 64 % 1022,7 hPa 0,0 l/m 15,4 km/h (3 Bft) O 82 2 min 0,000 mm 0,0 UV-I 271 W/m -1,4 C -1,4 C 22,5 km/h (4 Bft) 95,74 %
18.11.2018 13:32 4,8 C 5,0 C 5,0 C 64 % 1022,6 hPa 0,0 l/m 19,8 km/h (3 Bft) O 81 2 min 0,000 mm 0,0 UV-I 268 W/m -1,4 C -3,4 C 25,7 km/h (4 Bft) 91,49 %
18.11.2018 13:34 4,8 C 5,0 C 5,0 C 65 % 1022,6 hPa 0,0 l/m 15,9 km/h (3 Bft) O-SO 103 2 min 0,000 mm 0,0 UV-I 266 W/m -1,2 C -1,6 C 25,7 km/h (4 Bft) 95,74 %
18.11.2018 13:36 4,8 C 5,0 C 5,0 C 65 % 1022,5 hPa 0,0 l/m 16,9 km/h (3 Bft) O-NO 69 2 min 0,000 mm 0,0 UV-I 263 W/m -1,2 C -2,1 C 25,7 km/h (4 Bft) 95,74 %
18.11.2018 13:38 4,8 C 5,0 C 5,6 C 65 % 1022,5 hPa 0,0 l/m 18,5 km/h (3 Bft) O 81 2 min 0,000 mm 0,0 UV-I 261 W/m -1,2 C -2,8 C 25,7 km/h (4 Bft) 94,00 %
18.11.2018 13:40 4,9 C 5,0 C 5,6 C 65 % 1022,4 hPa 0,0 l/m 19,4 km/h (3 Bft) O-NO 71 2 min 0,000 mm 0,0 UV-I 258 W/m -1,1 C -3,1 C 25,7 km/h (4 Bft) 93,75 %
18.11.2018 13:42 4,9 C 5,0 C 5,0 C 64 % 1022,4 hPa 0,0 l/m 16,9 km/h (3 Bft) NO 55 2 min 0,000 mm 0,0 UV-I 255 W/m -1,3 C -2,0 C 24,1 km/h (4 Bft) 95,74 %
18.11.2018 13:44 4,9 C 5,0 C 5,0 C 64 % 1022,4 hPa 0,0 l/m 19,4 km/h (3 Bft) O-NO 76 2 min 0,000 mm 0,0 UV-I 252 W/m -1,3 C -3,1 C 24,1 km/h (4 Bft) 93,62 %
18.11.2018 13:46 4,9 C 5,0 C 5,0 C 64 % 1022,3 hPa 0,0 l/m 20,5 km/h (4 Bft) O 86 2 min 0,000 mm 0,0 UV-I 250 W/m -1,3 C -3,5 C 27,4 km/h (4 Bft) 93,62 %
18.11.2018 13:49 4,9 C 5,0 C 5,0 C 64 % 1022,2 hPa 0,0 l/m 20,4 km/h (4 Bft) O-NO 59 3 min 0,000 mm 0,0 UV-I 244 W/m -1,3 C -3,5 C 29,0 km/h (5 Bft) 93,42 %
18.11.2018 13:50 4,9 C 5,0 C 5,0 C 64 % 1022,2 hPa 0,0 l/m 21,0 km/h (4 Bft) O 85 1 min 0,000 mm 0,0 UV-I 241 W/m -1,3 C -3,7 C 27,4 km/h (4 Bft) 100,00 %
18.11.2018 13:52 4,8 C 5,0 C 5,0 C 64 % 1022,2 hPa 0,0 l/m 18,8 km/h (3 Bft) O-NO 69 2 min 0,000 mm 0,0 UV-I 240 W/m -1,4 C -2,9 C 27,4 km/h (4 Bft) 89,36 %
18.11.2018 13:54 4,9 C 5,0 C 5,0 C 64 % 1022,1 hPa 0,0 l/m 17,1 km/h (3 Bft) O-NO 65 2 min 0,000 mm 0,0 UV-I 239 W/m -1,3 C -2,1 C 22,5 km/h (4 Bft) 96,00 %
18.11.2018 13:56 4,8 C 5,0 C 5,0 C 64 % 1022,1 hPa 0,0 l/m 19,0 km/h (3 Bft) O 84 2 min 0,000 mm 0,0 UV-I 238 W/m -1,4 C -3,0 C 25,7 km/h (4 Bft) 93,62 %
18.11.2018 13:58 4,9 C 5,0 C 5,0 C 64 % 1022,2 hPa 0,0 l/m 13,5 km/h (3 Bft) O 86 2 min 0,000 mm 0,0 UV-I 237 W/m -1,3 C -0,2 C 19,3 km/h (3 Bft) 96,00 %
18.11.2018 14:00 4,9 C 5,0 C 5,6 C 65 % 1022,2 hPa 0,0 l/m 13,9 km/h (3 Bft) O-NO 71 2 min 0,152 mm 0,0 UV-I 239 W/m -1,1 C -0,5 C 20,9 km/h (4 Bft) 94,00 %
18.11.2018 14:02 5,0 C 5,0 C 5,0 C 64 % 1022,1 hPa 0,0 l/m 16,6 km/h (3 Bft) O 96 2 min 0,000 mm 0,0 UV-I 236 W/m -1,2 C -1,7 C 25,7 km/h (4 Bft) 93,62 %
18.11.2018 14:04 5,0 C 5,0 C 5,0 C 64 % 1022,0 hPa 0,0 l/m 14,3 km/h (3 Bft) O 101 2 min 0,000 mm 0,0 UV-I 231 W/m -1,2 C -0,6 C 22,5 km/h (4 Bft) 95,74 %
18.11.2018 14:06 5,0 C 5,0 C 5,0 C 64 % 1022,0 hPa 0,0 l/m 15,4 km/h (3 Bft) O-SO 105 2 min 0,000 mm 0,0 UV-I 227 W/m -1,2 C -1,1 C 22,5 km/h (4 Bft) 95,74 %
18.11.2018 14:08 5,0 C 5,0 C 5,6 C 64 % 1021,9 hPa 0,0 l/m 16,8 km/h (3 Bft) O 86 2 min 0,000 mm 0,0 UV-I 222 W/m -1,2 C -1,8 C 27,4 km/h (4 Bft) 95,74 %
18.11.2018 14:10 4,9 C 5,0 C 5,6 C 64 % 1021,9 hPa 0,0 l/m 19,2 km/h (3 Bft) O 90 2 min 0,000 mm 0,0 UV-I 218 W/m -1,3 C -3,0 C 27,4 km/h (4 Bft) 97,87 %
18.11.2018 14:12 4,9 C 5,0 C 5,0 C 64 % 1021,9 hPa 0,0 l/m 19,2 km/h (3 Bft) O-NO 77 2 min 0,000 mm 0,0 UV-I 213 W/m -1,3 C -3,0 C 27,4 km/h (4 Bft) 95,74 %
18.11.2018 14:14 4,9 C 5,0 C 5,0 C 64 % 1021,9 hPa 0,0 l/m 14,7 km/h (3 Bft) NO 52 2 min 0,000 mm 0,0 UV-I 208 W/m -1,3 C -0,9 C 20,9 km/h (4 Bft) 97,22 %
18.11.2018 14:16 4,9 C 5,0 C 5,0 C 64 % 1021,9 hPa 0,0 l/m 11,7 km/h (2 Bft) O-NO 70 2 min 0,000 mm 0,0 UV-I 207 W/m -1,3 C 0,8 C 17,7 km/h (3 Bft) 98,11 %
18.11.2018 14:18 4,9 C 5,0 C 4,4 C 65 % 1021,9 hPa 0,0 l/m 10,9 km/h (2 Bft) O-NO 70 2 min 0,000 mm 0,0 UV-I 206 W/m -1,1 C 1,3 C 17,7 km/h (3 Bft) 95,74 %
18.11.2018 14:20 4,9 C 5,0 C 4,4 C 65 % 1021,8 hPa 0,0 l/m 10,8 km/h (2 Bft) O 84 2 min 0,000 mm 0,0 UV-I 207 W/m -1,1 C 1,4 C 16,1 km/h (3 Bft) 95,74 %
18.11.2018 14:22 4,9 C 5,0 C 4,4 C 65 % 1021,8 hPa 0,0 l/m 13,9 km/h (3 Bft) O 84 2 min 0,000 mm 0,0 UV-I 204 W/m -1,1 C -0,5 C 17,7 km/h (3 Bft) 97,87 %
18.11.2018 14:24 4,9 C 5,0 C 4,4 C 64 % 1021,8 hPa 0,0 l/m 15,1 km/h (3 Bft) O-NO 68 2 min 0,000 mm 0,0 UV-I 200 W/m -1,3 C -1,1 C 20,9 km/h (4 Bft) 95,74 %
18.11.2018 14:26 4,9 C 5,0 C 4,4 C 65 % 1021,8 hPa 0,0 l/m 14,2 km/h (3 Bft) O-SO 107 2 min 0,000 mm 0,0 UV-I 199 W/m -1,1 C -0,6 C 19,3 km/h (3 Bft) 95,74 %
18.11.2018 14:28 4,9 C 5,0 C 4,4 C 64 % 1021,8 hPa 0,0 l/m 18,1 km/h (3 Bft) O 86 2 min 0,000 mm 0,0 UV-I 200 W/m -1,3 C -2,5 C 25,7 km/h (4 Bft) 97,87 %
18.11.2018 14:30 4,9 C 5,0 C 4,4 C 64 % 1021,7 hPa 0,0 l/m 18,5 km/h (3 Bft) O 95 2 min 0,000 mm 0,0 UV-I 196 W/m -1,3 C -2,7 C 25,7 km/h (4 Bft) 98,00 %
18.11.2018 14:32 4,8 C 5,0 C 4,4 C 64 % 1021,7 hPa 0,0 l/m 16,3 km/h (3 Bft) O 79 2 min 0,000 mm 0,0 UV-I 185 W/m -1,4 C -1,8 C 20,9 km/h (4 Bft) 97,37 %
18.11.2018 14:34 4,8 C 5,0 C 4,4 C 65 % 1021,7 hPa 0,0 l/m 13,6 km/h (3 Bft) O 94 0 min 0,000 mm 0,0 UV-I 121 W/m -1,2 C -0,4 C 17,7 km/h (3 Bft) 98,00 %
18.11.2018 14:36 4,8 C 5,0 C 4,4 C 65 % 1021,7 hPa 0,0 l/m 17,0 km/h (3 Bft) O-NO 75 2 min 0,000 mm 0,0 UV-I 155 W/m -1,2 C -2,1 C 24,1 km/h (4 Bft) 98,00 %
18.11.2018 14:38 4,8 C 5,0 C 4,4 C 65 % 1021,7 hPa 0,0 l/m 17,3 km/h (3 Bft) O-NO 69 2 min 0,000 mm 0,0 UV-I 193 W/m -1,2 C -2,3 C 27,4 km/h (4 Bft) 95,74 %
18.11.2018 14:40 4,8 C 5,0 C 4,4 C 65 % 1021,8 hPa 0,0 l/m 17,0 km/h (3 Bft) O-NO 65 2 min 0,000 mm 0,0 UV-I 173 W/m -1,2 C -2,1 C 24,1 km/h (4 Bft) 95,74 %
18.11.2018 14:42 4,8 C 5,0 C 4,4 C 65 % 1021,8 hPa 0,0 l/m 18,6 km/h (3 Bft) O 91 2 min 0,000 mm 0,0 UV-I 164 W/m -1,2 C -2,9 C 24,1 km/h (4 Bft) 91,67 %
18.11.2018 14:44 4,7 C 5,0 C 4,4 C 66 % 1021,7 hPa 0,0 l/m 16,5 km/h (3 Bft) O 90 2 min 0,000 mm 0,0 UV-I 157 W/m -1,1 C -2,0 C 25,7 km/h (4 Bft) 98,00 %
18.11.2018 14:46 4,7 C 5,0 C 4,4 C 65 % 1021,7 hPa 0,0 l/m 14,0 km/h (3 Bft) O-SO 103 2 min 0,000 mm 0,0 UV-I 118 W/m -1,3 C -0,8 C 20,9 km/h (4 Bft) 97,87 %
18.11.2018 14:48 4,7 C 5,0 C 4,4 C 65 % 1021,6 hPa 0,0 l/m 18,7 km/h (3 Bft) O-SO 112 0 min 0,000 mm 0,0 UV-I 88 W/m -1,3 C -3,0 C 25,7 km/h (4 Bft) 95,74 %
18.11.2018 14:50 4,6 C 5,0 C 4,4 C 65 % 1021,6 hPa 0,0 l/m 14,5 km/h (3 Bft) O 101 0 min 0,000 mm 0,0 UV-I 82 W/m -1,4 C -1,1 C 22,5 km/h (4 Bft) 98,00 %
18.11.2018 14:52 4,6 C 5,0 C 4,4 C 66 % 1021,5 hPa 0,0 l/m 16,4 km/h (3 Bft) O 82 0 min 0,000 mm 0,0 UV-I 76 W/m -1,2 C -2,1 C 22,5 km/h (4 Bft) 97,87 %
18.11.2018 14:54 4,4 C 5,0 C 3,9 C 66 % 1021,5 hPa 0,0 l/m 14,5 km/h (3 Bft) O-SO 117 0 min 0,000 mm 0,0 UV-I 72 W/m -1,4 C -1,4 C 24,1 km/h (4 Bft) 98,00 %
18.11.2018 14:56 4,4 C 5,0 C 3,9 C 66 % 1021,5 hPa 0,0 l/m 11,2 km/h (2 Bft) O-SO 117 0 min 0,000 mm 0,0 UV-I 67 W/m -1,4 C 0,6 C 16,1 km/h (3 Bft) 100,00 %
18.11.2018 14:58 4,3 C 5,0 C 3,9 C 66 % 1021,6 hPa 0,0 l/m 11,0 km/h (2 Bft) O 90 0 min 0,000 mm 0,0 UV-I 59 W/m -1,5 C 0,6 C 20,9 km/h (4 Bft) 97,87 %
18.11.2018 15:00 4,2 C 5,0 C 3,3 C 66 % 1021,5 hPa 0,0 l/m 12,2 km/h (2 Bft) SO 128 0 min 0,102 mm 0,0 UV-I 52 W/m -1,6 C -0,3 C 20,9 km/h (4 Bft) 100,00 %
18.11.2018 15:02 4,2 C 5,0 C 3,3 C 66 % 1021,5 hPa 0,0 l/m 14,7 km/h (3 Bft) O-SO 108 0 min 0,000 mm 0,0 UV-I 47 W/m -1,6 C -1,7 C 22,5 km/h (4 Bft) 100,00 %
18.11.2018 15:04 4,1 C 5,0 C 3,3 C 66 % 1021,5 hPa 0,0 l/m 14,0 km/h (3 Bft) O-SO 113 0 min 0,000 mm 0,0 UV-I 43 W/m -1,7 C -1,5 C 19,3 km/h (3 Bft) 100,00 %
18.11.2018 15:06 4,0 C 5,0 C 2,8 C 67 % 1021,4 hPa 0,0 l/m 12,4 km/h (3 Bft) O 97 0 min 0,000 mm 0,0 UV-I 40 W/m -1,6 C -0,6 C 19,3 km/h (3 Bft) 97,87 %
18.11.2018 15:08 3,9 C 5,0 C 2,8 C 67 % 1021,4 hPa 0,0 l/m 15,9 km/h (3 Bft) O 89 0 min 0,000 mm 0,0 UV-I 39 W/m -1,7 C -2,7 C 22,5 km/h (4 Bft) 100,00 %
18.11.2018 15:10 3,9 C 5,0 C 2,8 C 67 % 1021,2 hPa 0,0 l/m 13,4 km/h (3 Bft) O-SO 109 0 min 0,000 mm 0,0 UV-I 37 W/m -1,7 C -1,4 C 17,7 km/h (3 Bft) 97,87 %
18.11.2018 15:12 3,8 C 5,0 C 2,2 C 67 % 1021,2 hPa 0,0 l/m 14,3 km/h (3 Bft) O-SO 109 0 min 0,000 mm 0,0 UV-I 37 W/m -1,8 C -2,0 C 22,5 km/h (4 Bft) 97,87 %
18.11.2018 15:14 3,8 C 5,0 C 2,2 C 67 % 1021,1 hPa 0,0 l/m 16,1 km/h (3 Bft) O-SO 113 0 min 0,000 mm 0,0 UV-I 37 W/m -1,8 C -2,9 C 22,5 km/h (4 Bft) 100,00 %
18.11.2018 15:16 3,8 C 5,0 C 2,2 C 67 % 1021,0 hPa 0,0 l/m 12,4 km/h (3 Bft) O-SO 109 0 min 0,000 mm 0,0 UV-I 43 W/m -1,8 C -0,9 C 17,7 km/h (3 Bft) 100,00 %
18.11.2018 15:18 3,7 C 5,0 C 2,2 C 68 % 1021,0 hPa 0,0 l/m 12,0 km/h (2 Bft) O 90 0 min 0,000 mm 0,0 UV-I 60 W/m -1,6 C -0,7 C 19,3 km/h (3 Bft) 100,00 %
18.11.2018 15:20 3,7 C 5,0 C 2,2 C 68 % 1021,0 hPa 0,0 l/m 12,7 km/h (3 Bft) O 91 0 min 0,000 mm 0,0 UV-I 54 W/m -1,6 C -1,2 C 19,3 km/h (3 Bft) 98,00 %
18.11.2018 15:22 3,7 C 5,0 C 2,2 C 68 % 1021,0 hPa 0,0 l/m 12,5 km/h (3 Bft) O 101 0 min 0,000 mm 0,0 UV-I 67 W/m -1,6 C -1,1 C 17,7 km/h (3 Bft) 100,00 %
18.11.2018 15:24 3,6 C 5,0 C 2,2 C 68 % 1021,0 hPa 0,0 l/m 11,6 km/h (2 Bft) O 87 2 min 0,000 mm 0,0 UV-I 75 W/m -1,7 C -0,6 C 17,7 km/h (3 Bft) 97,87 %
18.11.2018 15:26 3,6 C 5,0 C 2,2 C 68 % 1020,8 hPa 0,0 l/m 8,6 km/h (2 Bft) O-SO 106 2 min 0,000 mm 0,0 UV-I 84 W/m -1,7 C 1,6 C 12,9 km/h (3 Bft) 97,87 %
18.11.2018 15:28 3,6 C 5,0 C 2,2 C 69 % 1020,9 hPa 0,0 l/m 11,3 km/h (2 Bft) O-SO 123 2 min 0,000 mm 0,0 UV-I 82 W/m -1,5 C -0,4 C 17,7 km/h (3 Bft) 100,00 %
18.11.2018 15:30 3,6 C 5,0 C 2,2 C 68 % 1020,8 hPa 0,0 l/m 12,3 km/h (3 Bft) O-SO 103 2 min 0,000 mm 0,0 UV-I 78 W/m -1,7 C -1,0 C 16,1 km/h (3 Bft) 98,04 %
18.11.2018 15:32 3,6 C 5,0 C 2,2 C 68 % 1020,8 hPa 0,0 l/m 12,6 km/h (3 Bft) SO 125 2 min 0,000 mm 0,0 UV-I 76 W/m -1,7 C -1,2 C 19,3 km/h (3 Bft) 100,00 %
18.11.2018 15:34 3,6 C 5,0 C 2,2 C 68 % 1020,8 hPa 0,0 l/m 14,9 km/h (3 Bft) O 97 2 min 0,000 mm 0,0 UV-I 73 W/m -1,7 C -2,6 C 19,3 km/h (3 Bft) 93,62 %
18.11.2018 15:36 3,6 C 5,0 C 2,2 C 68 % 1020,8 hPa 0,0 l/m 13,8 km/h (3 Bft) O 95 2 min 0,000 mm 0,0 UV-I 69 W/m -1,7 C -2,0 C 19,3 km/h (3 Bft) 98,00 %
18.11.2018 15:38 3,5 C 5,0 C 2,2 C 68 % 1020,9 hPa 0,0 l/m 15,6 km/h (3 Bft) O 85 2 min 0,000 mm 0,0 UV-I 62 W/m -1,8 C -3,1 C 22,5 km/h (4 Bft) 98,00 %
18.11.2018 15:40 3,4 C 5,0 C 2,2 C 69 % 1020,9 hPa 0,0 l/m 12,8 km/h (3 Bft) NO 51 2 min 0,000 mm 0,0 UV-I 62 W/m -1,7 C -1,6 C 16,1 km/h (3 Bft) 97,87 %
18.11.2018 15:42 3,3 C 5,0 C 2,2 C 69 % 1020,9 hPa 0,0 l/m 10,5 km/h (2 Bft) O-NO 75 2 min 0,000 mm 0,0 UV-I 61 W/m -1,8 C -0,2 C 16,1 km/h (3 Bft) 97,87 %
18.11.2018 15:44 3,3 C 5,0 C 1,7 C 70 % 1020,9 hPa 0,0 l/m 10,5 km/h (2 Bft) O-NO 74 2 min 0,000 mm 0,0 UV-I 59 W/m -1,6 C -0,2 C 14,5 km/h (3 Bft) 97,14 %
18.11.2018 15:46 3,2 C 5,0 C 1,7 C 70 % 1020,9 hPa 0,0 l/m 8,7 km/h (2 Bft) NO 54 2 min 0,000 mm 0,0 UV-I 55 W/m -1,7 C 1,1 C 12,9 km/h (3 Bft) 94,00 %
18.11.2018 15:48 3,1 C 5,0 C 1,7 C 70 % 1020,9 hPa 0,0 l/m 8,3 km/h (2 Bft) O 92 2 min 0,000 mm 0,0 UV-I 54 W/m -1,8 C 1,3 C 12,9 km/h (3 Bft) 88,00 %
18.11.2018 15:50 3,1 C 5,0 C 1,7 C 70 % 1020,8 hPa 0,0 l/m 9,4 km/h (2 Bft) O 80 2 min 0,000 mm 0,0 UV-I 53 W/m -1,8 C 0,4 C 14,5 km/h (3 Bft) 95,74 %
18.11.2018 15:52 3,0 C 5,0 C 1,1 C 71 % 1020,8 hPa 0,0 l/m 9,0 km/h (2 Bft) O-NO 77 2 min 0,000 mm 0,0 UV-I 49 W/m -1,7 C 0,6 C 12,9 km/h (3 Bft) 91,49 %
18.11.2018 15:54 2,9 C 5,0 C 1,1 C 71 % 1020,8 hPa 0,0 l/m 9,3 km/h (2 Bft) O-NO 59 2 min 0,000 mm 0,0 UV-I 47 W/m -1,8 C 0,3 C 12,9 km/h (3 Bft) 95,83 %
18.11.2018 15:56 2,9 C 5,0 C 1,1 C 70 % 1020,7 hPa 0,0 l/m 10,1 km/h (2 Bft) O-NO 63 2 min 0,000 mm 0,0 UV-I 43 W/m -2,0 C -0,3 C 14,5 km/h (3 Bft) 92,68 %
18.11.2018 15:58 2,8 C 5,0 C 1,1 C 71 % 1020,6 hPa 0,0 l/m 9,2 km/h (2 Bft) O-NO 76 2 min 0,000 mm 0,0 UV-I 39 W/m -1,9 C 0,3 C 12,9 km/h (3 Bft) 93,62 %
18.11.2018 16:00 2,8 C 5,0 C 1,1 C 71 % 1020,6 hPa 0,0 l/m 11,0 km/h (2 Bft) O-NO 60 2 min 0,000 mm 0,0 UV-I 34 W/m -1,9 C -1,1 C 17,7 km/h (3 Bft) 95,74 %
18.11.2018 16:02 2,7 C 5,0 C 1,1 C 71 % 1020,6 hPa 0,0 l/m 12,2 km/h (2 Bft) O-NO 60 2 min 0,051 mm 0,0 UV-I 31 W/m -2,0 C -2,0 C 16,1 km/h (3 Bft) 96,00 %
18.11.2018 16:04 2,6 C 5,0 C 1,1 C 72 % 1020,5 hPa 0,0 l/m 10,6 km/h (2 Bft) NO 53 2 min 0,000 mm 0,0 UV-I 28 W/m -1,9 C -1,0 C 17,7 km/h (3 Bft) 93,62 %
18.11.2018 16:06 2,6 C 5,0 C 1,1 C 72 % 1020,5 hPa 0,0 l/m 9,0 km/h (2 Bft) O-NO 76 2 min 0,000 mm 0,0 UV-I 26 W/m -1,9 C 0,2 C 14,5 km/h (3 Bft) 93,62 %
18.11.2018 16:08 2,4 C 5,0 C 1,1 C 72 % 1020,5 hPa 0,0 l/m 9,2 km/h (2 Bft) O-NO 58 2 min 0,000 mm 0,0 UV-I 23 W/m -2,1 C -0,2 C 14,5 km/h (3 Bft) 96,00 %
18.11.2018 16:10 2,3 C 5,0 C 1,1 C 72 % 1020,5 hPa 0,0 l/m 7,8 km/h (2 Bft) NO 36 2 min 0,000 mm 0,0 UV-I 20 W/m -2,2 C 1,0 C 11,3 km/h (2 Bft) 96,00 %
18.11.2018 16:12 2,3 C 5,0 C 0,6 C 73 % 1020,5 hPa 0,0 l/m 6,0 km/h (2 Bft) O-NO 64 0 min 0,000 mm 0,0 UV-I 17 W/m -2,0 C 2,3 C 9,7 km/h (2 Bft) 100,00 %
18.11.2018 16:14 2,3 C 5,0 C 0,6 C 73 % 1020,5 hPa 0,0 l/m 5,4 km/h (1 Bft) O-NO 77 0 min 0,000 mm 0,0 UV-I 15 W/m -2,0 C 2,3 C 8,0 km/h (2 Bft) 100,00 %
18.11.2018 16:16 2,2 C 5,0 C 0,6 C 73 % 1020,5 hPa 0,0 l/m 5,6 km/h (1 Bft) NO 53 0 min 0,000 mm 0,0 UV-I 12 W/m -2,1 C 2,2 C 9,7 km/h (2 Bft) 100,00 %
18.11.2018 16:18 2,1 C 5,0 C 0,6 C 74 % 1020,5 hPa 0,0 l/m 6,2 km/h (2 Bft) NO 50 0 min 0,000 mm 0,0 UV-I 12 W/m -2,0 C 2,1 C 8,0 km/h (2 Bft) 93,62 %
18.11.2018 16:20 2,1 C 5,0 C 0,6 C 74 % 1020,5 hPa 0,0 l/m 6,4 km/h (2 Bft) NO 53 0 min 0,000 mm 0,0 UV-I 10 W/m -2,0 C 2,1 C 8,0 km/h (2 Bft) 100,00 %
18.11.2018 16:22 1,9 C 5,0 C 0,6 C 74 % 1020,5 hPa 0,0 l/m 6,5 km/h (2 Bft) NO 49 0 min 0,000 mm 0,0 UV-I 9 W/m -2,2 C 1,8 C 8,0 km/h (2 Bft) 97,87 %
18.11.2018 16:24 1,9 C 5,0 C 0,6 C 75 % 1020,5 hPa 0,0 l/m 6,7 km/h (2 Bft) NO 44 0 min 0,000 mm 0,0 UV-I 8 W/m -2,1 C 1,6 C 8,0 km/h (2 Bft) 100,00 %
18.11.2018 16:26 1,9 C 5,0 C 0,6 C 75 % 1020,5 hPa 0,0 l/m 7,1 km/h (2 Bft) NO 55 0 min 0,000 mm 0,0 UV-I 7 W/m -2,1 C 1,2 C 9,7 km/h (2 Bft) 100,00 %
18.11.2018 16:28 1,9 C 5,0 C 1,1 C 75 % 1020,4 hPa 0,0 l/m 8,9 km/h (2 Bft) NO 43 0 min 0,000 mm 0,0 UV-I 6 W/m -2,1 C -0,5 C 14,5 km/h (3 Bft) 93,62 %
18.11.2018 16:30 2,0 C 5,0 C 1,1 C 74 % 1020,5 hPa 0,0 l/m 8,4 km/h (2 Bft) O-NO 61 0 min 0,000 mm 0,0 UV-I 5 W/m -2,1 C 0,1 C 12,9 km/h (3 Bft) 97,87 %
18.11.2018 16:32 2,0 C 5,0 C 1,1 C 75 % 1020,4 hPa 0,0 l/m 8,3 km/h (2 Bft) O-NO 57 0 min 0,000 mm 0,0 UV-I 5 W/m -2,0 C 0,2 C 12,9 km/h (3 Bft) 97,87 %
18.11.2018 16:34 2,1 C 5,0 C 1,1 C 75 % 1020,3 hPa 0,0 l/m 8,1 km/h (2 Bft) O-NO 59 0 min 0,000 mm 0,0 UV-I 5 W/m -1,9 C 0,5 C 11,3 km/h (2 Bft) 97,87 %
18.11.2018 16:36 2,1 C 5,0 C 1,1 C 75 % 1020,3 hPa 0,0 l/m 7,0 km/h (2 Bft) N-NO 32 0 min 0,000 mm 0,0 UV-I 5 W/m -1,9 C 1,5 C 11,3 km/h (2 Bft) 97,87 %
18.11.2018 16:38 2,1 C 5,0 C 1,1 C 75 % 1020,3 hPa 0,0 l/m 8,5 km/h (2 Bft) NO 46 0 min 0,000 mm 0,0 UV-I 0 W/m -1,9 C 0,1 C 12,9 km/h (3 Bft) 100,00 %
18.11.2018 16:40 2,1 C 5,0 C 1,1 C 75 % 1020,3 hPa 0,0 l/m 9,8 km/h (2 Bft) NO 47 0 min 0,000 mm 0,0 UV-I 0 W/m -1,9 C -1,0 C 14,5 km/h (3 Bft) 97,87 %
18.11.2018 16:42 2,1 C 5,0 C 1,1 C 75 % 1020,2 hPa 0,0 l/m 8,6 km/h (2 Bft) O-NO 64 0 min 0,000 mm 0,0 UV-I 0 W/m -1,9 C 0,0 C 11,3 km/h (2 Bft) 100,00 %
18.11.2018 16:44 2,1 C 5,0 C 1,1 C 75 % 1020,2 hPa 0,0 l/m 9,5 km/h (2 Bft) O-NO 63 0 min 0,000 mm 0,0 UV-I 0 W/m -1,9 C -0,7 C 14,5 km/h (3 Bft) 100,00 %
18.11.2018 16:46 2,0 C 5,0 C 1,1 C 75 % 1020,1 hPa 0,0 l/m 7,6 km/h (2 Bft) NO 48 0 min 0,000 mm 0,0 UV-I 0 W/m -2,0 C 0,8 C 11,3 km/h (2 Bft) 100,00 %
18.11.2018 16:48 2,0 C 5,0 C 1,1 C 75 % 1020,1 hPa 0,0 l/m 8,6 km/h (2 Bft) O-NO 59 0 min 0,000 mm 0,0 UV-I 0 W/m -2,0 C -0,1 C 12,9 km/h (3 Bft) 100,00 %
18.11.2018 16:50 1,9 C 5,0 C 1,1 C 75 % 1020,1 hPa 0,0 l/m 8,5 km/h (2 Bft) NO 55 0 min 0,000 mm 0,0 UV-I 0 W/m -2,1 C -0,1 C 14,5 km/h (3 Bft) 100,00 %
18.11.2018 16:52 2,0 C 5,0 C 1,1 C 75 % 1020,1 hPa 0,0 l/m 9,2 km/h (2 Bft) NO 55 0 min 0,000 mm 0,0 UV-I 0 W/m -2,0 C -0,6 C 12,9 km/h (3 Bft) 98,00 %
18.11.2018 16:54 2,0 C 5,0 C 1,1 C 75 % 1020,0 hPa 0,0 l/m 10,0 km/h (2 Bft) NO 46 0 min 0,000 mm 0,0 UV-I 0 W/m -2,0 C -1,2 C 14,5 km/h (3 Bft) 97,87 %
18.11.2018 16:56 2,1 C 5,0 C 1,7 C 74 % 1020,0 hPa 0,0 l/m 11,1 km/h (2 Bft) O 98 0 min 0,000 mm 0,0 UV-I 0 W/m -2,0 C -2,0 C 17,7 km/h (3 Bft) 100,00 %
18.11.2018 16:58 2,2 C 5,0 C 1,7 C 74 % 1020,1 hPa 0,0 l/m 15,1 km/h (3 Bft) O-NO 71 0 min 0,000 mm 0,0 UV-I 0 W/m -1,9 C -4,4 C 19,3 km/h (3 Bft) 100,00 %
18.11.2018 17:00 2,2 C 5,0 C 1,7 C 74 % 1020,1 hPa 0,0 l/m 15,3 km/h (3 Bft) O-NO 76 0 min 0,025 mm 0,0 UV-I 0 W/m -1,9 C -4,5 C 19,3 km/h (3 Bft) 97,87 %
18.11.2018 17:02 2,2 C 5,0 C 1,7 C 74 % 1020,2 hPa 0,0 l/m 17,1 km/h (3 Bft) O-NO 76 0 min 0,000 mm 0,0 UV-I 0 W/m -1,9 C -5,4 C 19,3 km/h (3 Bft) 97,92 %
18.11.2018 17:04 2,2 C 5,0 C 1,7 C 74 % 1020,2 hPa 0,0 l/m 13,0 km/h (3 Bft) O 84 0 min 0,000 mm 0,0 UV-I 0 W/m -1,9 C -3,1 C 19,3 km/h (3 Bft) 97,87 %
18.11.2018 17:06 2,2 C 5,0 C 1,7 C 74 % 1020,2 hPa 0,0 l/m 14,6 km/h (3 Bft) O-NO 78 0 min 0,000 mm 0,0 UV-I 0 W/m -1,9 C -4,1 C 19,3 km/h (3 Bft) 93,62 %
18.11.2018 17:08 2,2 C 5,0 C 1,7 C 74 % 1020,2 hPa 0,0 l/m 13,5 km/h (3 Bft) O-NO 68 0 min 0,000 mm 0,0 UV-I 0 W/m -1,9 C -3,4 C 17,7 km/h (3 Bft) 97,87 %
18.11.2018 17:10 2,2 C 5,0 C 1,7 C 74 % 1020,2 hPa 0,0 l/m 12,2 km/h (2 Bft) O-NO 71 0 min 0,000 mm 0,0 UV-I 0 W/m -1,9 C -2,6 C 19,3 km/h (3 Bft) 94,74 %
18.11.2018 17:12 2,2 C 5,0 C 1,7 C 74 % 1020,3 hPa 0,0 l/m 12,2 km/h (2 Bft) N-NO 32 0 min 0,000 mm 0,0 UV-I 0 W/m -1,9 C -2,6 C 19,3 km/h (3 Bft) 95,74 %
18.11.2018 17:14 2,1 C 5,0 C 1,7 C 75 % 1020,2 hPa 0,0 l/m 10,6 km/h (2 Bft) NO 36 0 min 0,000 mm 0,0 UV-I 0 W/m -1,9 C -1,6 C 16,1 km/h (3 Bft) 97,87 %
18.11.2018 17:16 2,1 C 5,0 C 1,7 C 75 % 1020,3 hPa 0,0 l/m 9,3 km/h (2 Bft) NO 40 0 min 0,000 mm 0,0 UV-I 0 W/m -1,9 C -0,6 C 16,1 km/h (3 Bft) 98,00 %
18.11.2018 17:18 2,1 C 5,0 C 1,7 C 75 % 1020,3 hPa 0,0 l/m 11,8 km/h (2 Bft) NO 40 0 min 0,000 mm 0,0 UV-I 0 W/m -1,9 C -2,4 C 16,1 km/h (3 Bft) 97,87 %
18.11.2018 17:20 2,1 C 5,0 C 1,7 C 75 % 1020,4 hPa 0,0 l/m 10,3 km/h (2 Bft) N-NO 31 0 min 0,000 mm 0,0 UV-I 0 W/m -1,9 C -1,4 C 16,1 km/h (3 Bft) 98,00 %
18.11.2018 17:22 2,1 C 5,0 C 1,7 C 75 % 1020,4 hPa 0,0 l/m 13,3 km/h (3 Bft) NO 34 0 min 0,000 mm 0,0 UV-I 0 W/m -1,9 C -3,4 C 17,7 km/h (3 Bft) 100,00 %
18.11.2018 17:24 2,1 C 5,0 C 1,7 C 75 % 1020,3 hPa 0,0 l/m 11,0 km/h (2 Bft) NO 48 0 min 0,000 mm 0,0 UV-I 0 W/m -1,9 C -1,9 C 16,1 km/h (3 Bft) 100,00 %
18.11.2018 17:26 2,1 C 5,0 C 1,7 C 75 % 1020,3 hPa 0,0 l/m 10,1 km/h (2 Bft) O-NO 57 0 min 0,000 mm 0,0 UV-I 0 W/m -1,9 C -1,2 C 14,5 km/h (3 Bft) 100,00 %
18.11.2018 17:28 2,0 C 5,0 C 1,7 C 75 % 1020,3 hPa 0,0 l/m 8,9 km/h (2 Bft) NO 40 0 min 0,000 mm 0,0 UV-I 0 W/m -2,0 C -0,3 C 14,5 km/h (3 Bft) 97,87 %
18.11.2018 17:30 2,0 C 5,0 C 1,7 C 76 % 1020,3 hPa 0,0 l/m 9,1 km/h (2 Bft) N-NO 30 0 min 0,000 mm 0,0 UV-I 0 W/m -1,8 C -0,5 C 11,3 km/h (2 Bft) 100,00 %
18.11.2018 17:32 2,0 C 5,0 C 1,7 C 76 % 1020,3 hPa 0,0 l/m 10,6 km/h (2 Bft) NO 40 0 min 0,000 mm 0,0 UV-I 0 W/m -1,8 C -1,7 C 19,3 km/h (3 Bft) 97,44 %
18.11.2018 17:34 2,0 C 5,0 C 1,7 C 76 % 1020,3 hPa 0,0 l/m 10,4 km/h (2 Bft) NO 46 0 min 0,000 mm 0,0 UV-I 0 W/m -1,8 C -1,5 C 16,1 km/h (3 Bft) 100,00 %
18.11.2018 17:36 2,0 C 5,0 C 1,7 C 76 % 1020,3 hPa 0,0 l/m 13,1 km/h (3 Bft) O-NO 64 0 min 0,000 mm 0,0 UV-I 0 W/m -1,8 C -3,4 C 17,7 km/h (3 Bft) 96,00 %
18.11.2018 17:39 2,1 C 5,0 C 1,7 C 75 % 1020,3 hPa 0,0 l/m 13,0 km/h (3 Bft) NO 40 0 min 0,000 mm 0,0 UV-I 0 W/m -1,9 C -3,2 C 19,3 km/h (3 Bft) 97,26 %
18.11.2018 17:40 2,1 C 5,0 C 1,7 C 75 % 1020,3 hPa 0,0 l/m 11,1 km/h (2 Bft) NO 44 0 min 0,000 mm 0,0 UV-I 0 W/m -1,9 C -2,0 C 14,5 km/h (3 Bft) 91,67 %
18.11.2018 17:42 2,1 C 5,0 C 1,7 C 75 % 1020,4 hPa 0,0 l/m 8,6 km/h (2 Bft) O-NO 57 0 min 0,000 mm 0,0 UV-I 0 W/m -1,9 C 0,0 C 12,9 km/h (3 Bft) 97,87 %
18.11.2018 17:44 2,1 C 5,0 C 1,7 C 75 % 1020,4 hPa 0,0 l/m 11,5 km/h (2 Bft) N-NO 24 0 min 0,000 mm 0,0 UV-I 0 W/m -1,9 C -2,2 C 16,1 km/h (3 Bft) 92,11 %
18.11.2018 17:46 2,1 C 5,0 C 1,7 C 75 % 1020,4 hPa 0,0 l/m 13,3 km/h (3 Bft) O-NO 57 0 min 0,000 mm 0,0 UV-I 0 W/m -1,9 C -3,4 C 17,7 km/h (3 Bft) 93,62 %
18.11.2018 17:48 2,1 C 5,0 C 1,7 C 75 % 1020,5 hPa 0,0 l/m 9,8 km/h (2 Bft) N-NO 29 0 min 0,000 mm 0,0 UV-I 0 W/m -1,9 C -1,0 C 14,5 km/h (3 Bft) 95,74 %
18.11.2018 17:50 2,1 C 5,0 C 1,7 C 75 % 1020,5 hPa 0,0 l/m 9,1 km/h (2 Bft) NO 54 0 min 0,000 mm 0,0 UV-I 0 W/m -1,9 C -0,4 C 19,3 km/h (3 Bft) 95,74 %
18.11.2018 17:52 2,1 C 5,0 C 1,7 C 74 % 1020,4 hPa 0,0 l/m 10,6 km/h (2 Bft) O 83 0 min 0,000 mm 0,0 UV-I 0 W/m -2,0 C -1,6 C 19,3 km/h (3 Bft) 93,62 %
18.11.2018 17:54 2,1 C 5,0 C 1,7 C 74 % 1020,3 hPa 0,0 l/m 11,1 km/h (2 Bft) O 86 0 min 0,000 mm 0,0 UV-I 0 W/m -2,0 C -2,0 C 16,1 km/h (3 Bft) 93,62 %
18.11.2018 17:56 2,1 C 5,0 C 1,7 C 74 % 1020,2 hPa 0,0 l/m 11,1 km/h (2 Bft) O 83 0 min 0,000 mm 0,0 UV-I 0 W/m -2,0 C -2,0 C 16,1 km/h (3 Bft) 93,62 %
18.11.2018 17:58 2,1 C 5,0 C 1,7 C 75 % 1020,1 hPa 0,0 l/m 12,9 km/h (3 Bft) O-SO 115 0 min 0,000 mm 0,0 UV-I 0 W/m -1,9 C -3,2 C 17,7 km/h (3 Bft) 94,00 %
18.11.2018 18:00 2,1 C 5,0 C 1,7 C 75 % 1020,0 hPa 0,0 l/m 11,6 km/h (2 Bft) O 85 0 min 0,000 mm 0,0 UV-I 0 W/m -1,9 C -2,3 C 16,1 km/h (3 Bft) 95,74 %
18.11.2018 18:02 2,1 C 5,0 C 1,7 C 75 % 1020,0 hPa 0,0 l/m 12,6 km/h (3 Bft) O 100 0 min 0,025 mm 0,0 UV-I 0 W/m -1,9 C -3,0 C 19,3 km/h (3 Bft) 95,12 %
18.11.2018 18:04 2,1 C 5,0 C 1,7 C 75 % 1019,9 hPa 0,0 l/m 11,7 km/h (2 Bft) O 99 0 min 0,000 mm 0,0 UV-I 0 W/m -1,9 C -2,4 C 17,7 km/h (3 Bft) 95,83 %
18.11.2018 18:06 2,1 C 5,0 C 1,7 C 75 % 1020,0 hPa 0,0 l/m 10,2 km/h (2 Bft) O 92 0 min 0,000 mm 0,0 UV-I 0 W/m -1,9 C -1,3 C 16,1 km/h (3 Bft) 95,74 %
18.11.2018 18:08 2,1 C 5,0 C 1,7 C 75 % 1020,0 hPa 0,0 l/m 9,6 km/h (2 Bft) O-SO 102 0 min 0,000 mm 0,0 UV-I 0 W/m -1,9 C -0,8 C 16,1 km/h (3 Bft) 92,00 %
18.11.2018 18:10 2,1 C 5,0 C 1,7 C 75 % 1020,0 hPa 0,0 l/m 10,6 km/h (2 Bft) O 92 0 min 0,000 mm 0,0 UV-I 0 W/m -1,9 C -1,6 C 14,5 km/h (3 Bft) 93,62 %
18.11.2018 18:12 2,1 C 5,0 C 1,7 C 75 % 1020,0 hPa 0,0 l/m 10,1 km/h (2 Bft) O 93 0 min 0,000 mm 0,0 UV-I 0 W/m -1,9 C -1,2 C 14,5 km/h (3 Bft) 96,00 %
18.11.2018 18:14 2,0 C 5,0 C 1,7 C 75 % 1019,9 hPa 0,0 l/m 12,9 km/h (3 Bft) O-SO 116 0 min 0,000 mm 0,0 UV-I 0 W/m -2,0 C -3,3 C 17,7 km/h (3 Bft) 92,11 %
18.11.2018 18:16 2,0 C 5,0 C 1,7 C 75 % 1019,9 hPa 0,0 l/m 10,7 km/h (2 Bft) O-SO 116 0 min 0,000 mm 0,0 UV-I 0 W/m -2,0 C -1,8 C 16,1 km/h (3 Bft) 92,86 %
18.11.2018 18:18 2,1 C 5,0 C 1,7 C 75 % 1019,9 hPa 0,0 l/m 11,3 km/h (2 Bft) O-SO 110 0 min 0,000 mm 0,0 UV-I 0 W/m -1,9 C -2,1 C 16,1 km/h (3 Bft) 93,62 %
18.11.2018 18:20 2,1 C 5,0 C 1,7 C 75 % 1019,9 hPa 0,0 l/m 12,2 km/h (2 Bft) O-SO 105 0 min 0,000 mm 0,0 UV-I 0 W/m -1,9 C -2,7 C 16,1 km/h (3 Bft) 89,36 %
18.11.2018 18:22 2,1 C 5,0 C 1,7 C 75 % 1019,9 hPa 0,0 l/m 9,9 km/h (2 Bft) O 89 0 min 0,000 mm 0,0 UV-I 0 W/m -1,9 C -1,1 C 14,5 km/h (3 Bft) 91,49 %
18.11.2018 18:24 2,1 C 5,0 C 1,7 C 75 % 1019,9 hPa 0,0 l/m 10,4 km/h (2 Bft) O-NO 77 0 min 0,000 mm 0,0 UV-I 0 W/m -1,9 C -1,4 C 14,5 km/h (3 Bft) 95,74 %
18.11.2018 18:26 2,1 C 5,0 C 1,7 C 75 % 1019,9 hPa 0,0 l/m 9,0 km/h (2 Bft) O 96 0 min 0,000 mm 0,0 UV-I 0 W/m -1,9 C -0,3 C 14,5 km/h (3 Bft) 96,00 %
18.11.2018 18:28 2,0 C 5,0 C 1,7 C 75 % 1019,9 hPa 0,0 l/m 11,1 km/h (2 Bft) O 98 0 min 0,000 mm 0,0 UV-I 0 W/m -2,0 C -2,1 C 14,5 km/h (3 Bft) 94,74 %
18.11.2018 18:30 2,0 C 5,0 C 1,7 C 75 % 1019,9 hPa 0,0 l/m 8,4 km/h (2 Bft) O-SO 105 0 min 0,000 mm 0,0 UV-I 0 W/m -2,0 C 0,1 C 12,9 km/h (3 Bft) 95,74 %
18.11.2018 18:32 2,0 C 5,0 C 1,7 C 75 % 1020,0 hPa 0,0 l/m 8,5 km/h (2 Bft) O-NO 69 0 min 0,000 mm 0,0 UV-I 0 W/m -2,0 C 0,0 C 14,5 km/h (3 Bft) 96,00 %
18.11.2018 18:34 1,9 C 5,0 C 1,7 C 75 % 1019,9 hPa 0,0 l/m 9,8 km/h (2 Bft) O-NO 76 0 min 0,000 mm 0,0 UV-I 0 W/m -2,1 C -1,2 C 12,9 km/h (3 Bft) 95,74 %
18.11.2018 18:36 1,9 C 5,0 C 1,1 C 75 % 1019,9 hPa 0,0 l/m 8,3 km/h (2 Bft) O 92 0 min 0,000 mm 0,0 UV-I 0 W/m -2,1 C 0,1 C 14,5 km/h (3 Bft) 95,74 %
18.11.2018 18:38 1,9 C 5,0 C 1,7 C 75 % 1019,9 hPa 0,0 l/m 7,9 km/h (2 Bft) O 96 0 min 0,000 mm 0,0 UV-I 0 W/m -2,1 C 0,4 C 14,5 km/h (3 Bft) 93,75 %
18.11.2018 18:40 1,9 C 5,0 C 1,7 C 75 % 1019,9 hPa 0,0 l/m 10,1 km/h (2 Bft) O 88 0 min 0,000 mm 0,0 UV-I 0 W/m -2,1 C -1,4 C 14,5 km/h (3 Bft) 97,87 %
18.11.2018 18:42 1,9 C 5,0 C 1,1 C 76 % 1019,8 hPa 0,0 l/m 7,8 km/h (2 Bft) O-NO 72 0 min 0,000 mm 0,0 UV-I 0 W/m -1,9 C 0,5 C 12,9 km/h (3 Bft) 95,74 %
18.11.2018 18:44 1,9 C 5,0 C 1,1 C 76 % 1019,8 hPa 0,0 l/m 8,0 km/h (2 Bft) O-NO 65 0 min 0,000 mm 0,0 UV-I 0 W/m -1,9 C 0,3 C 12,9 km/h (3 Bft) 97,87 %
18.11.2018 18:46 1,9 C 5,0 C 1,1 C 76 % 1019,8 hPa 0,0 l/m 6,7 km/h (2 Bft) O-NO 58 0 min 0,000 mm 0,0 UV-I 0 W/m -1,9 C 1,6 C 11,3 km/h (2 Bft) 95,74 %
18.11.2018 18:48 1,9 C 5,0 C 1,1 C 76 % 1019,8 hPa 0,0 l/m 7,2 km/h (2 Bft) O-NO 58 0 min 0,000 mm 0,0 UV-I 0 W/m -1,9 C 1,1 C 11,3 km/h (2 Bft) 97,87 %
18.11.2018 18:50 1,8 C 5,0 C 1,1 C 76 % 1019,9 hPa 0,0 l/m 6,9 km/h (2 Bft) NO 35 0 min 0,000 mm 0,0 UV-I 0 W/m -2,0 C 1,3 C 9,7 km/h (2 Bft) 100,00 %
18.11.2018 18:52 1,8 C 5,0 C 1,1 C 77 % 1019,9 hPa 0,0 l/m 6,9 km/h (2 Bft) NO 35 0 min 0,000 mm 0,0 UV-I 0 W/m -1,8 C 1,3 C 8,0 km/h (2 Bft) 95,74 %
18.11.2018 18:54 1,7 C 5,0 C 1,1 C 77 % 1019,8 hPa 0,0 l/m 5,1 km/h (1 Bft) NO 49 0 min 0,000 mm 0,0 UV-I 0 W/m -1,9 C 1,7 C 6,4 km/h (2 Bft) 97,14 %
18.11.2018 18:56 1,7 C 5,0 C 1,1 C 77 % 1019,8 hPa 0,0 l/m 5,2 km/h (1 Bft) NO 47 0 min 0,000 mm 0,0 UV-I 0 W/m -1,9 C 1,7 C 6,4 km/h (2 Bft) 97,87 %
18.11.2018 18:58 1,7 C 5,0 C 1,1 C 77 % 1019,8 hPa 0,0 l/m 7,5 km/h (2 Bft) O-NO 63 0 min 0,000 mm 0,0 UV-I 0 W/m -1,9 C 0,6 C 12,9 km/h (3 Bft) 97,87 %
18.11.2018 19:00 1,7 C 5,0 C 1,1 C 77 % 1019,8 hPa 0,0 l/m 8,0 km/h (2 Bft) O-NO 59 0 min 0,026 mm 0,0 UV-I 0 W/m -1,9 C 0,1 C 12,9 km/h (3 Bft) 100,00 %
18.11.2018 19:02 1,7 C 5,0 C 1,1 C 77 % 1019,8 hPa 0,0 l/m 6,5 km/h (2 Bft) O 84 0 min 0,000 mm 0,0 UV-I 0 W/m -1,9 C 1,6 C 11,3 km/h (2 Bft) 100,00 %
18.11.2018 19:04 1,8 C 5,0 C 1,1 C 77 % 1019,8 hPa 0,0 l/m 7,3 km/h (2 Bft) O 82 0 min 0,000 mm 0,0 UV-I 0 W/m -1,8 C 0,9 C 11,3 km/h (2 Bft) 100,00 %
18.11.2018 19:06 1,8 C 5,0 C 1,1 C 76 % 1019,8 hPa 0,0 l/m 8,8 km/h (2 Bft) O 80 0 min 0,000 mm 0,0 UV-I 0 W/m -2,0 C -0,5 C 12,9 km/h (3 Bft) 100,00 %
18.11.2018 19:08 1,8 C 5,0 C 1,1 C 76 % 1019,7 hPa 0,0 l/m 8,4 km/h (2 Bft) O 81 0 min 0,000 mm 0,0 UV-I 0 W/m -2,0 C -0,1 C 12,9 km/h (3 Bft) 97,87 %
18.11.2018 19:10 1,8 C 5,0 C 1,1 C 76 % 1019,7 hPa 0,0 l/m 10,5 km/h (2 Bft) O-NO 72 0 min 0,000 mm 0,0 UV-I 0 W/m -2,0 C -1,8 C 16,1 km/h (3 Bft) 100,00 %
18.11.2018 19:12 1,8 C 5,0 C 1,1 C 76 % 1019,7 hPa 0,0 l/m 6,7 km/h (2 Bft) NO 51 0 min 0,000 mm 0,0 UV-I 0 W/m -2,0 C 1,5 C 11,3 km/h (2 Bft) 97,87 %
18.11.2018 19:14 1,8 C 5,0 C 1,1 C 77 % 1019,8 hPa 0,0 l/m 7,7 km/h (2 Bft) O 82 0 min 0,000 mm 0,0 UV-I 0 W/m -1,8 C 0,5 C 12,9 km/h (3 Bft) 100,00 %
18.11.2018 19:16 1,8 C 5,0 C 1,1 C 77 % 1019,7 hPa 0,0 l/m 6,2 km/h (2 Bft) O-NO 63 0 min 0,000 mm 0,0 UV-I 0 W/m -1,8 C 1,8 C 11,3 km/h (2 Bft) 97,87 %
18.11.2018 19:18 1,8 C 5,0 C 1,1 C 77 % 1019,7 hPa 0,0 l/m 6,4 km/h (2 Bft) O 92 0 min 0,000 mm 0,0 UV-I 0 W/m -1,8 C 1,8 C 11,3 km/h (2 Bft) 100,00 %
18.11.2018 19:20 1,7 C 5,0 C 1,1 C 77 % 1019,7 hPa 0,0 l/m 6,0 km/h (2 Bft) O-NO 62 0 min 0,000 mm 0,0 UV-I 0 W/m -1,9 C 1,7 C 9,7 km/h (2 Bft) 96,00 %
18.11.2018 19:22 1,7 C 5,0 C 1,1 C 77 % 1019,7 hPa 0,0 l/m 6,8 km/h (2 Bft) O-NO 74 0 min 0,000 mm 0,0 UV-I 0 W/m -1,9 C 1,3 C 11,3 km/h (2 Bft) 95,74 %
18.11.2018 19:24 1,7 C 5,0 C 1,1 C 77 % 1019,8 hPa 0,0 l/m 8,6 km/h (2 Bft) O-NO 75 0 min 0,000 mm 0,0 UV-I 0 W/m -1,9 C -0,4 C 14,5 km/h (3 Bft) 100,00 %
18.11.2018 19:26 1,7 C 5,0 C 1,1 C 77 % 1019,7 hPa 0,0 l/m 8,9 km/h (2 Bft) O-NO 67 0 min 0,000 mm 0,0 UV-I 0 W/m -1,9 C -0,7 C 14,5 km/h (3 Bft) 97,87 %
18.11.2018 19:28 1,8 C 5,0 C 1,1 C 77 % 1019,7 hPa 0,0 l/m 10,4 km/h (2 Bft) O-NO 78 0 min 0,000 mm 0,0 UV-I 0 W/m -1,8 C -1,8 C 14,5 km/h (3 Bft) 98,00 %
18.11.2018 19:30 1,7 C 5,0 C 1,7 C 77 % 1019,7 hPa 0,0 l/m 8,0 km/h (2 Bft) O 86 0 min 0,000 mm 0,0 UV-I 0 W/m -1,9 C 0,1 C 11,3 km/h (2 Bft) 98,00 %
18.11.2018 19:32 1,7 C 5,0 C 1,7 C 77 % 1019,7 hPa 0,0 l/m 7,9 km/h (2 Bft) O-NO 61 0 min 0,000 mm 0,0 UV-I 0 W/m -1,9 C 0,2 C 12,9 km/h (3 Bft) 100,00 %
18.11.2018 19:34 1,7 C 5,0 C 1,7 C 77 % 1019,7 hPa 0,0 l/m 10,3 km/h (2 Bft) O 93 0 min 0,000 mm 0,0 UV-I 0 W/m -1,9 C -1,8 C 14,5 km/h (3 Bft) 97,87 %
18.11.2018 19:36 1,7 C 5,0 C 1,7 C 77 % 1019,7 hPa 0,0 l/m 9,6 km/h (2 Bft) O-NO 63 0 min 0,000 mm 0,0 UV-I 0 W/m -1,9 C -1,3 C 14,5 km/h (3 Bft) 95,74 %
18.11.2018 19:38 1,7 C 5,0 C 1,7 C 77 % 1019,6 hPa 0,0 l/m 9,4 km/h (2 Bft) O 87 0 min 0,000 mm 0,0 UV-I 0 W/m -1,9 C -1,1 C 14,5 km/h (3 Bft) 97,87 %
18.11.2018 19:40 1,7 C 5,0 C 1,7 C 78 % 1019,6 hPa 0,0 l/m 11,1 km/h (2 Bft) O-NO 72 0 min 0,000 mm 0,0 UV-I 0 W/m -1,7 C -2,4 C 14,5 km/h (3 Bft) 93,62 %
18.11.2018 19:42 1,7 C 5,0 C 1,7 C 77 % 1019,6 hPa 0,0 l/m 11,3 km/h (2 Bft) O-NO 74 0 min 0,000 mm 0,0 UV-I 0 W/m -1,9 C -2,6 C 17,7 km/h (3 Bft) 93,62 %
18.11.2018 19:44 1,7 C 5,0 C 1,7 C 77 % 1019,6 hPa 0,0 l/m 10,4 km/h (2 Bft) O 81 0 min 0,000 mm 0,0 UV-I 0 W/m -1,9 C -1,9 C 14,5 km/h (3 Bft) 97,92 %
18.11.2018 19:46 1,7 C 5,0 C 1,7 C 77 % 1019,6 hPa 0,0 l/m 11,5 km/h (2 Bft) O 82 0 min 0,000 mm 0,0 UV-I 0 W/m -1,9 C -2,7 C 16,1 km/h (3 Bft) 95,74 %
18.11.2018 19:48 1,7 C 5,0 C 1,7 C 77 % 1019,6 hPa 0,0 l/m 11,1 km/h (2 Bft) O-NO 72 0 min 0,000 mm 0,0 UV-I 0 W/m -1,9 C -2,4 C 16,1 km/h (3 Bft) 94,74 %
18.11.2018 19:50 1,7 C 5,0 C 1,1 C 77 % 1019,6 hPa 0,0 l/m 10,1 km/h (2 Bft) O 88 0 min 0,000 mm 0,0 UV-I 0 W/m -1,9 C -1,7 C 16,1 km/h (3 Bft) 95,74 %
18.11.2018 19:52 1,7 C 5,0 C 1,1 C 77 % 1019,6 hPa 0,0 l/m 8,7 km/h (2 Bft) NO 53 0 min 0,000 mm 0,0 UV-I 0 W/m -1,9 C -0,5 C 14,5 km/h (3 Bft) 93,62 %
18.11.2018 19:54 1,7 C 5,0 C 1,1 C 77 % 1019,6 hPa 0,0 l/m 10,2 km/h (2 Bft) O 79 0 min 0,000 mm 0,0 UV-I 0 W/m -1,9 C -1,7 C 16,1 km/h (3 Bft) 94,00 %
18.11.2018 19:56 1,7 C 5,0 C 1,1 C 77 % 1019,6 hPa 0,0 l/m 12,4 km/h (3 Bft) NO 55 0 min 0,000 mm 0,0 UV-I 0 W/m -1,9 C -3,3 C 16,1 km/h (3 Bft) 97,87 %
18.11.2018 19:58 1,7 C 5,0 C 1,1 C 77 % 1019,6 hPa 0,0 l/m 12,0 km/h (2 Bft) O 99 0 min 0,000 mm 0,0 UV-I 0 W/m -1,9 C -3,0 C 17,7 km/h (3 Bft) 97,87 %
18.11.2018 20:00 1,6 C 5,0 C 1,1 C 78 % 1019,6 hPa 0,0 l/m 11,2 km/h (2 Bft) O-NO 78 0 min 0,000 mm 0,0 UV-I 0 W/m -1,8 C -2,6 C 16,1 km/h (3 Bft) 94,00 %
18.11.2018 20:02 1,6 C 5,0 C 1,1 C 78 % 1019,6 hPa 0,0 l/m 8,9 km/h (2 Bft) O 101 0 min 0,025 mm 0,0 UV-I 0 W/m -1,8 C -0,8 C 14,5 km/h (3 Bft) 97,87 %
18.11.2018 20:04 1,6 C 5,0 C 1,1 C 78 % 1019,6 hPa 0,0 l/m 12,2 km/h (2 Bft) O 90 0 min 0,000 mm 0,0 UV-I 0 W/m -1,8 C -3,3 C 16,1 km/h (3 Bft) 97,87 %
18.11.2018 20:06 1,6 C 5,0 C 1,1 C 78 % 1019,6 hPa 0,0 l/m 9,4 km/h (2 Bft) O 89 0 min 0,000 mm 0,0 UV-I 0 W/m -1,8 C -1,2 C 12,9 km/h (3 Bft) 98,00 %
18.11.2018 20:08 1,6 C 5,0 C 1,1 C 78 % 1019,6 hPa 0,0 l/m 10,4 km/h (2 Bft) O 98 0 min 0,000 mm 0,0 UV-I 0 W/m -1,8 C -2,0 C 14,5 km/h (3 Bft) 93,62 %
18.11.2018 20:10 1,6 C 5,0 C 1,1 C 78 % 1019,6 hPa 0,0 l/m 9,9 km/h (2 Bft) O-SO 110 0 min 0,000 mm 0,0 UV-I 0 W/m -1,8 C -1,6 C 12,9 km/h (3 Bft) 100,00 %
18.11.2018 20:12 1,6 C 5,0 C 1,1 C 78 % 1019,7 hPa 0,0 l/m 8,7 km/h (2 Bft) O 101 0 min 0,000 mm 0,0 UV-I 0 W/m -1,8 C -0,6 C 14,5 km/h (3 Bft) 96,00 %
18.11.2018 20:14 1,6 C 5,0 C 1,1 C 78 % 1019,7 hPa 0,0 l/m 7,3 km/h (2 Bft) O 92 0 min 0,000 mm 0,0 UV-I 0 W/m -1,8 C 0,7 C 11,3 km/h (2 Bft) 97,96 %
18.11.2018 20:16 1,6 C 5,0 C 1,1 C 78 % 1019,7 hPa 0,0 l/m 8,0 km/h (2 Bft) O-SO 107 0 min 0,000 mm 0,0 UV-I 0 W/m -1,8 C 0,0 C 12,9 km/h (3 Bft) 96,00 %
18.11.2018 20:18 1,6 C 5,0 C 1,1 C 78 % 1019,7 hPa 0,0 l/m 7,4 km/h (2 Bft) SO 137 0 min 0,000 mm 0,0 UV-I 0 W/m -1,8 C 0,6 C 11,3 km/h (2 Bft) 97,92 %
18.11.2018 20:20 1,6 C 5,0 C 1,1 C 78 % 1019,6 hPa 0,0 l/m 7,7 km/h (2 Bft) O-SO 102 0 min 0,000 mm 0,0 UV-I 0 W/m -1,8 C 0,3 C 11,3 km/h (2 Bft) 100,00 %
18.11.2018 20:22 1,6 C 5,0 C 1,1 C 78 % 1019,7 hPa 0,0 l/m 9,1 km/h (2 Bft) O-NO 72 0 min 0,000 mm 0,0 UV-I 0 W/m -1,8 C -0,9 C 14,5 km/h (3 Bft) 97,37 %
18.11.2018 20:24 1,6 C 5,0 C 1,1 C 78 % 1019,7 hPa 0,0 l/m 7,4 km/h (2 Bft) O 89 0 min 0,000 mm 0,0 UV-I 0 W/m -1,8 C 0,6 C 11,3 km/h (2 Bft) 100,00 %
18.11.2018 20:26 1,6 C 5,0 C 1,1 C 78 % 1019,7 hPa 0,0 l/m 7,8 km/h (2 Bft) O 84 0 min 0,000 mm 0,0 UV-I 0 W/m -1,8 C 0,2 C 11,3 km/h (2 Bft) 100,00 %
18.11.2018 20:28 1,5 C 5,0 C 1,1 C 78 % 1019,7 hPa 0,0 l/m 7,1 km/h (2 Bft) O 90 0 min 0,000 mm 0,0 UV-I 0 W/m -1,9 C 0,8 C 11,3 km/h (2 Bft) 98,11 %
18.11.2018 20:30 1,5 C 5,0 C 1,1 C 79 % 1019,7 hPa 0,0 l/m 6,5 km/h (2 Bft) O-NO 71 0 min 0,000 mm 0,0 UV-I 0 W/m -1,7 C 1,4 C 11,3 km/h (2 Bft) 97,87 %
18.11.2018 20:32 1,4 C 5,0 C 1,1 C 79 % 1019,7 hPa 0,0 l/m 10,8 km/h (2 Bft) O-NO 69 0 min 0,000 mm 0,0 UV-I 0 W/m -1,8 C -2,5 C 16,1 km/h (3 Bft) 92,11 %
18.11.2018 20:34 1,4 C 5,0 C 1,1 C 79 % 1019,6 hPa 0,0 l/m 10,4 km/h (2 Bft) O 79 0 min 0,000 mm 0,0 UV-I 0 W/m -1,8 C -2,2 C 14,5 km/h (3 Bft) 100,00 %
18.11.2018 20:36 1,4 C 5,0 C 1,1 C 80 % 1019,6 hPa 0,0 l/m 10,1 km/h (2 Bft) O 87 0 min 0,000 mm 0,0 UV-I 0 W/m -1,7 C -2,0 C 16,1 km/h (3 Bft) 98,00 %
18.11.2018 20:39 1,3 C 5,0 C 1,1 C 81 % 1019,6 hPa 0,0 l/m 10,8 km/h (2 Bft) O-NO 70 0 min 0,000 mm 0,0 UV-I 0 W/m -1,6 C -2,6 C 17,7 km/h (3 Bft) 100,00 %
18.11.2018 20:40 1,3 C 5,0 C 1,1 C 81 % 1019,6 hPa 0,0 l/m 15,1 km/h (3 Bft) O 94 0 min 0,000 mm 0,0 UV-I 0 W/m -1,6 C -5,5 C 17,7 km/h (3 Bft) 90,91 %
18.11.2018 20:42 1,3 C 5,0 C 1,1 C 81 % 1019,7 hPa 0,0 l/m 11,9 km/h (2 Bft) O-NO 62 0 min 0,000 mm 0,0 UV-I 0 W/m -1,6 C -3,4 C 17,7 km/h (3 Bft) 98,00 %
18.11.2018 20:44 1,2 C 5,0 C 0,6 C 82 % 1019,6 hPa 0,0 l/m 12,9 km/h (3 Bft) O-NO 65 0 min 0,000 mm 0,0 UV-I 0 W/m -1,5 C -4,2 C 17,7 km/h (3 Bft) 97,92 %
18.11.2018 20:46 1,2 C 5,0 C 0,6 C 83 % 1019,6 hPa 0,0 l/m 13,2 km/h (3 Bft) O-NO 66 0 min 0,000 mm 0,0 UV-I 0 W/m -1,4 C -4,4 C 17,7 km/h (3 Bft) 98,08 %
18.11.2018 20:48 1,1 C 5,0 C 0,6 C 83 % 1019,7 hPa 0,0 l/m 13,7 km/h (3 Bft) O-NO 63 0 min 0,000 mm 0,0 UV-I 0 W/m -1,5 C -4,9 C 19,3 km/h (3 Bft) 100,00 %
18.11.2018 20:50 1,1 C 5,0 C 0,6 C 84 % 1019,7 hPa 0,0 l/m 13,4 km/h (3 Bft) O-NO 68 0 min 0,000 mm 0,0 UV-I 0 W/m -1,3 C -4,7 C 17,7 km/h (3 Bft) 97,92 %
18.11.2018 20:52 1,0 C 5,0 C 0,6 C 84 % 1019,6 hPa 0,0 l/m 10,5 km/h (2 Bft) O 79 0 min 0,000 mm 0,0 UV-I 0 W/m -1,4 C -2,7 C 14,5 km/h (3 Bft) 94,74 %
18.11.2018 20:54 0,9 C 5,0 C 0,6 C 85 % 1019,6 hPa 0,0 l/m 13,1 km/h (3 Bft) O 80 0 min 0,000 mm 0,0 UV-I 0 W/m -1,3 C -4,7 C 17,7 km/h (3 Bft) 95,74 %
18.11.2018 20:56 0,9 C 5,0 C 0,6 C 85 % 1019,6 hPa 0,0 l/m 13,0 km/h (3 Bft) O-SO 103 0 min 0,000 mm 0,0 UV-I 0 W/m -1,3 C -4,6 C 16,1 km/h (3 Bft) 97,87 %
18.11.2018 20:58 0,8 C 5,0 C 0,6 C 86 % 1019,6 hPa 0,0 l/m 9,9 km/h (2 Bft) O-SO 107 0 min 0,000 mm 0,0 UV-I 0 W/m -1,3 C -2,5 C 14,5 km/h (3 Bft) 95,74 %
18.11.2018 21:00 0,8 C 5,0 C 0,6 C 86 % 1019,6 hPa 0,0 l/m 8,5 km/h (2 Bft) O 88 0 min 0,026 mm 0,0 UV-I 0 W/m -1,3 C -1,3 C 14,5 km/h (3 Bft) 96,00 %
18.11.2018 21:02 0,8 C 5,0 C 0,6 C 87 % 1019,6 hPa 0,0 l/m 9,7 km/h (2 Bft) O 101 0 min 0,000 mm 0,0 UV-I 0 W/m -1,1 C -2,3 C 12,9 km/h (3 Bft) 97,87 %
18.11.2018 21:04 0,7 C 5,0 C 0,6 C 87 % 1019,6 hPa 0,0 l/m 9,4 km/h (2 Bft) O 86 0 min 0,000 mm 0,0 UV-I 0 W/m -1,2 C -2,2 C 14,5 km/h (3 Bft) 95,12 %
18.11.2018 21:06 0,7 C 5,0 C 0,6 C 87 % 1019,6 hPa 0,0 l/m 7,4 km/h (2 Bft) O-SO 105 0 min 0,000 mm 0,0 UV-I 0 W/m -1,2 C -0,3 C 12,9 km/h (3 Bft) 98,00 %
18.11.2018 21:08 0,6 C 5,0 C 0,0 C 88 % 1019,5 hPa 0,0 l/m 7,2 km/h (2 Bft) O-NO 58 0 min 0,000 mm 0,0 UV-I 0 W/m -1,2 C -0,2 C 11,3 km/h (2 Bft) 94,00 %
18.11.2018 21:10 0,6 C 5,0 C 0,0 C 88 % 1019,6 hPa 0,0 l/m 7,4 km/h (2 Bft) O-NO 76 0 min 0,000 mm 0,0 UV-I 0 W/m -1,2 C -0,4 C 11,3 km/h (2 Bft) 98,00 %
18.11.2018 21:12 0,6 C 5,0 C 0,0 C 89 % 1019,5 hPa 0,0 l/m 8,2 km/h (2 Bft) O 82 0 min 0,000 mm 0,0 UV-I 0 W/m -1,0 C -1,2 C 12,9 km/h (3 Bft) 97,87 %
18.11.2018 21:14 0,5 C 5,0 C 0,0 C 89 % 1019,5 hPa 0,0 l/m 5,4 km/h (1 Bft) O-NO 77 0 min 0,000 mm 0,0 UV-I 0 W/m -1,1 C 0,5 C 8,0 km/h (2 Bft) 97,37 %
18.11.2018 21:16 0,5 C 5,0 C 0,0 C 89 % 1019,5 hPa 0,0 l/m 5,1 km/h (1 Bft) O-NO 63 0 min 0,000 mm 0,0 UV-I 0 W/m -1,1 C 0,5 C 8,0 km/h (2 Bft) 97,87 %
18.11.2018 21:18 0,4 C 5,0 C 0,0 C 89 % 1019,5 hPa 0,0 l/m 7,0 km/h (2 Bft) O-NO 78 0 min 0,000 mm 0,0 UV-I 0 W/m -1,2 C -0,2 C 11,3 km/h (2 Bft) 100,00 %
18.11.2018 21:20 0,4 C 5,0 C 0,0 C 90 % 1019,5 hPa 0,0 l/m 5,1 km/h (1 Bft) O-NO 70 0 min 0,000 mm 0,0 UV-I 0 W/m -1,0 C 0,4 C 8,0 km/h (2 Bft) 100,00 %
18.11.2018 21:22 0,4 C 5,0 C 0,0 C 90 % 1019,5 hPa 0,0 l/m 6,4 km/h (2 Bft) SO 125 0 min 0,000 mm 0,0 UV-I 0 W/m -1,0 C 0,4 C 9,7 km/h (2 Bft) 100,00 %
18.11.2018 21:24 0,4 C 5,0 C 0,0 C 90 % 1019,4 hPa 0,0 l/m 5,7 km/h (1 Bft) O-NO 59 0 min 0,000 mm 0,0 UV-I 0 W/m -1,0 C 0,4 C 8,0 km/h (2 Bft) 100,00 %
18.11.2018 21:26 0,4 C 5,0 C 0,0 C 90 % 1019,4 hPa 0,0 l/m 5,6 km/h (1 Bft) O 80 0 min 0,000 mm 0,0 UV-I 0 W/m -1,0 C 0,4 C 8,0 km/h (2 Bft) 95,74 %
18.11.2018 21:28 0,4 C 5,0 C 0,0 C 91 % 1019,4 hPa 0,0 l/m 3,8 km/h (1 Bft) O 80 0 min 0,000 mm 0,0 UV-I 0 W/m -0,9 C 0,4 C 6,4 km/h (2 Bft) 95,74 %
18.11.2018 21:30 0,4 C 5,0 C 0,0 C 91 % 1019,4 hPa 0,0 l/m 5,2 km/h (1 Bft) NO 43 0 min 0,000 mm 0,0 UV-I 0 W/m -0,9 C 0,4 C 8,0 km/h (2 Bft) 100,00 %
18.11.2018 21:32 0,4 C 5,0 C 0,0 C 91 % 1019,4 hPa 0,0 l/m 5,3 km/h (1 Bft) NO 45 0 min 0,000 mm 0,0 UV-I 0 W/m -0,9 C 0,4 C 6,4 km/h (2 Bft) 97,87 %
18.11.2018 21:34 0,4 C 5,0 C 0,0 C 91 % 1019,3 hPa 0,0 l/m 4,9 km/h (1 Bft) NO 51 0 min 0,000 mm 0,0 UV-I 0 W/m -0,9 C 0,4 C 8,0 km/h (2 Bft) 100,00 %
18.11.2018 21:36 0,4 C 5,0 C 0,0 C 91 % 1019,3 hPa 0,0 l/m 7,4 km/h (2 Bft) O-NO 67 0 min 0,000 mm 0,0 UV-I 0 W/m -0,9 C -0,6 C 9,7 km/h (2 Bft) 97,87 %
18.11.2018 21:38 0,4 C 5,0 C 0,0 C 92 % 1019,4 hPa 0,0 l/m 6,9 km/h (2 Bft) NO 38 0 min 0,000 mm 0,0 UV-I 0 W/m -0,7 C -0,1 C 9,7 km/h (2 Bft) 97,87 %
18.11.2018 21:40 0,3 C 5,0 C 0,0 C 92 % 1019,3 hPa 0,0 l/m 8,3 km/h (2 Bft) NO 44 0 min 0,000 mm 0,0 UV-I 0 W/m -0,8 C -1,6 C 12,9 km/h (3 Bft) 97,87 %
18.11.2018 21:42 0,3 C 5,0 C 0,0 C 92 % 1019,3 hPa 0,0 l/m 7,8 km/h (2 Bft) NO 48 0 min 0,000 mm 0,0 UV-I 0 W/m -0,8 C -1,1 C 11,3 km/h (2 Bft) 100,00 %
18.11.2018 21:44 0,3 C 5,0 C 0,0 C 92 % 1019,3 hPa 0,0 l/m 8,3 km/h (2 Bft) O 90 0 min 0,000 mm 0,0 UV-I 0 W/m -0,8 C -1,6 C 11,3 km/h (2 Bft) 100,00 %
18.11.2018 21:46 0,3 C 5,0 C 0,0 C 92 % 1019,3 hPa 0,0 l/m 6,5 km/h (2 Bft) O-NO 57 0 min 0,000 mm 0,0 UV-I 0 W/m -0,8 C 0,2 C 12,9 km/h (3 Bft) 100,00 %
18.11.2018 21:48 0,3 C 5,0 C 0,0 C 92 % 1019,2 hPa 0,0 l/m 9,7 km/h (2 Bft) O-NO 59 0 min 0,000 mm 0,0 UV-I 0 W/m -0,8 C -2,9 C 17,7 km/h (3 Bft) 97,87 %
18.11.2018 21:50 0,3 C 5,0 C 0,0 C 92 % 1019,2 hPa 0,0 l/m 8,6 km/h (2 Bft) NO 49 0 min 0,000 mm 0,0 UV-I 0 W/m -0,8 C -1,9 C 14,5 km/h (3 Bft) 95,74 %
18.11.2018 21:52 0,3 C 5,0 C 0,0 C 92 % 1019,2 hPa 0,0 l/m 8,6 km/h (2 Bft) O-NO 60 0 min 0,000 mm 0,0 UV-I 0 W/m -0,8 C -1,9 C 12,9 km/h (3 Bft) 100,00 %
18.11.2018 21:54 0,3 C 5,0 C 0,0 C 92 % 1019,1 hPa 0,0 l/m 5,7 km/h (1 Bft) NO 35 0 min 0,000 mm 0,0 UV-I 0 W/m -0,8 C 0,3 C 8,0 km/h (2 Bft) 91,49 %
18.11.2018 21:56 0,2 C 5,0 C 0,0 C 93 % 1019,1 hPa 0,0 l/m 7,0 km/h (2 Bft) NO 45 0 min 0,000 mm 0,0 UV-I 0 W/m -0,8 C -0,4 C 12,9 km/h (3 Bft) 93,62 %
18.11.2018 21:58 0,2 C 5,0 C 0,0 C 92 % 1019,2 hPa 0,0 l/m 6,4 km/h (2 Bft) O-NO 65 0 min 0,000 mm 0,0 UV-I 0 W/m -0,9 C 0,2 C 9,7 km/h (2 Bft) 93,62 %
18.11.2018 22:00 0,2 C 5,0 C 0,0 C 93 % 1019,2 hPa 0,0 l/m 7,3 km/h (2 Bft) N-NO 33 0 min 0,000 mm 0,0 UV-I 0 W/m -0,8 C -0,7 C 9,7 km/h (2 Bft) 93,62 %
18.11.2018 22:02 0,2 C 5,0 C 0,0 C 93 % 1019,1 hPa 0,0 l/m 6,8 km/h (2 Bft) O-NO 65 0 min 0,000 mm 0,0 UV-I 0 W/m -0,8 C -0,2 C 9,7 km/h (2 Bft) 96,00 %
18.11.2018 22:04 0,2 C 5,0 C 0,0 C 93 % 1019,1 hPa 0,0 l/m 5,6 km/h (1 Bft) O-NO 66 0 min 0,000 mm 0,0 UV-I 0 W/m -0,8 C 0,2 C 8,0 km/h (2 Bft) 95,74 %
18.11.2018 22:06 0,2 C 5,0 C 0,0 C 93 % 1019,1 hPa 0,0 l/m 5,5 km/h (1 Bft) NO 42 0 min 0,000 mm 0,0 UV-I 0 W/m -0,8 C 0,2 C 8,0 km/h (2 Bft) 93,62 %
18.11.2018 22:08 0,2 C 5,0 C 0,0 C 93 % 1019,1 hPa 0,0 l/m 5,4 km/h (1 Bft) NO 54 0 min 0,000 mm 0,0 UV-I 0 W/m -0,8 C 0,2 C 8,0 km/h (2 Bft) 94,00 %
18.11.2018 22:10 0,2 C 5,0 C 0,0 C 93 % 1019,0 hPa 0,0 l/m 5,6 km/h (1 Bft) NO 40 0 min 0,000 mm 0,0 UV-I 0 W/m -0,8 C 0,2 C 8,0 km/h (2 Bft) 91,49 %
18.11.2018 22:12 0,2 C 5,0 C 0,0 C 93 % 1019,0 hPa 0,0 l/m 7,0 km/h (2 Bft) O-NO 59 0 min 0,000 mm 0,0 UV-I 0 W/m -0,8 C -0,4 C 9,7 km/h (2 Bft) 93,62 %
18.11.2018 22:14 0,2 C 5,0 C 0,0 C 93 % 1019,0 hPa 0,0 l/m 5,7 km/h (1 Bft) O-NO 57 0 min 0,000 mm 0,0 UV-I 0 W/m -0,8 C 0,2 C 9,7 km/h (2 Bft) 90,91 %
18.11.2018 22:16 0,2 C 5,0 C 0,0 C 93 % 1018,9 hPa 0,0 l/m 5,0 km/h (1 Bft) O-NO 59 0 min 0,000 mm 0,0 UV-I 0 W/m -0,8 C 0,2 C 8,0 km/h (2 Bft) 93,62 %
18.11.2018 22:18 0,2 C 5,0 C 0,0 C 93 % 1018,9 hPa 0,0 l/m 4,9 km/h (1 Bft) NO 51 0 min 0,000 mm 0,0 UV-I 0 W/m -0,8 C 0,2 C 6,4 km/h (2 Bft) 91,49 %
18.11.2018 22:20 0,3 C 5,0 C 0,0 C 93 % 1018,9 hPa 0,0 l/m 4,1 km/h (1 Bft) O-NO 63 0 min 0,000 mm 0,0 UV-I 0 W/m -0,7 C 0,3 C 6,4 km/h (2 Bft) 93,62 %
18.11.2018 22:22 0,2 C 5,0 C 0,0 C 93 % 1018,8 hPa 0,0 l/m 5,4 km/h (1 Bft) O-NO 65 0 min 0,000 mm 0,0 UV-I 0 W/m -0,8 C 0,2 C 6,4 km/h (2 Bft) 95,74 %
18.11.2018 22:24 0,2 C 5,0 C 0,0 C 93 % 1018,8 hPa 0,0 l/m 4,1 km/h (1 Bft) O 80 0 min 0,000 mm 0,0 UV-I 0 W/m -0,8 C 0,2 C 6,4 km/h (2 Bft) 93,62 %
18.11.2018 22:26 0,2 C 5,0 C 0,0 C 93 % 1018,7 hPa 0,0 l/m 3,8 km/h (1 Bft) O-NO 57 0 min 0,000 mm 0,0 UV-I 0 W/m -0,8 C 0,2 C 6,4 km/h (2 Bft) 95,74 %
18.11.2018 22:28 0,2 C 5,0 C 0,0 C 93 % 1018,8 hPa 0,0 l/m 4,3 km/h (1 Bft) NO 47 0 min 0,000 mm 0,0 UV-I 0 W/m -0,8 C 0,2 C 6,4 km/h (2 Bft) 93,62 %
18.11.2018 22:30 0,2 C 5,0 C 0,0 C 93 % 1018,8 hPa 0,0 l/m 4,4 km/h (1 Bft) NO 49 0 min 0,000 mm 0,0 UV-I 0 W/m -0,8 C 0,2 C 6,4 km/h (2 Bft) 97,87 %
18.11.2018 22:32 0,2 C 5,0 C 0,0 C 94 % 1018,8 hPa 0,0 l/m 4,0 km/h (1 Bft) NO 55 0 min 0,000 mm 0,0 UV-I 0 W/m -0,6 C 0,2 C 6,4 km/h (2 Bft) 97,92 %
18.11.2018 22:34 0,2 C 5,0 C 0,0 C 93 % 1018,8 hPa 0,0 l/m 4,4 km/h (1 Bft) O 82 0 min 0,000 mm 0,0 UV-I 0 W/m -0,8 C 0,2 C 6,4 km/h (2 Bft) 95,74 %
18.11.2018 22:36 0,2 C 5,0 C 0,0 C 93 % 1018,8 hPa 0,0 l/m 3,9 km/h (1 Bft) O 82 0 min 0,000 mm 0,0 UV-I 0 W/m -0,8 C 0,2 C 4,8 km/h (1 Bft) 95,74 %
18.11.2018 22:38 0,2 C 5,0 C 0,0 C 93 % 1018,7 hPa 0,0 l/m 3,6 km/h (1 Bft) O 82 0 min 0,000 mm 0,0 UV-I 0 W/m -0,8 C 0,2 C 4,8 km/h (1 Bft) 100,00 %
18.11.2018 22:40 0,2 C 5,0 C 0,0 C 93 % 1018,7 hPa 0,0 l/m 4,1 km/h (1 Bft) O-NO 77 0 min 0,000 mm 0,0 UV-I 0 W/m -0,8 C 0,2 C 11,3 km/h (2 Bft) 93,62 %
18.11.2018 22:42 0,2 C 5,0 C 0,0 C 94 % 1018,7 hPa 0,0 l/m 6,3 km/h (2 Bft) O 94 0 min 0,000 mm 0,0 UV-I 0 W/m -0,6 C 0,2 C 9,7 km/h (2 Bft) 97,87 %
18.11.2018 22:44 0,2 C 5,0 C 0,0 C 94 % 1018,7 hPa 0,0 l/m 4,7 km/h (1 Bft) O-NO 73 0 min 0,000 mm 0,0 UV-I 0 W/m -0,6 C 0,2 C 8,0 km/h (2 Bft) 95,74 %
18.11.2018 22:46 0,2 C 5,0 C 0,0 C 94 % 1018,7 hPa 0,0 l/m 4,6 km/h (1 Bft) O-NO 60 0 min 0,000 mm 0,0 UV-I 0 W/m -0,6 C 0,2 C 6,4 km/h (2 Bft) 97,87 %
18.11.2018 22:48 0,2 C 5,0 C 0,0 C 94 % 1018,7 hPa 0,0 l/m 4,3 km/h (1 Bft) O 88 0 min 0,000 mm 0,0 UV-I 0 W/m -0,6 C 0,2 C 6,4 km/h (2 Bft) 97,87 %
18.11.2018 22:50 0,2 C 5,0 C 0,0 C 94 % 1018,6 hPa 0,0 l/m 4,4 km/h (1 Bft) O 98 0 min 0,000 mm 0,0 UV-I 0 W/m -0,6 C 0,2 C 6,4 km/h (2 Bft) 95,74 %
18.11.2018 22:52 0,2 C 5,0 C 0,0 C 94 % 1018,6 hPa 0,2 l/m 4,2 km/h (1 Bft) O-NO 70 0 min 0,000 mm 0,0 UV-I 0 W/m -0,6 C 0,2 C 6,4 km/h (2 Bft) 97,87 %
18.11.2018 22:54 0,2 C 5,0 C 0,0 C 94 % 1018,6 hPa 0,0 l/m 4,9 km/h (1 Bft) O-NO 76 0 min 0,000 mm 0,0 UV-I 0 W/m -0,6 C 0,2 C 6,4 km/h (2 Bft) 97,87 %
18.11.2018 22:56 0,2 C 5,0 C 0,0 C 94 % 1018,5 hPa 0,0 l/m 3,8 km/h (1 Bft) O 82 0 min 0,000 mm 0,0 UV-I 0 W/m -0,6 C 0,2 C 4,8 km/h (1 Bft) 97,87 %
18.11.2018 22:58 0,1 C 5,0 C 0,0 C 94 % 1018,5 hPa 0,0 l/m 4,1 km/h (1 Bft) O 80 0 min 0,000 mm 0,0 UV-I 0 W/m -0,7 C 0,1 C 6,4 km/h (2 Bft) 98,00 %
18.11.2018 23:00 0,1 C 5,0 C 0,0 C 94 % 1018,6 hPa 0,0 l/m 3,6 km/h (1 Bft) O 80 0 min 0,000 mm 0,0 UV-I 0 W/m -0,7 C 0,1 C 4,8 km/h (1 Bft) 95,74 %
18.11.2018 23:02 0,1 C 5,0 C 0,0 C 94 % 1018,5 hPa 0,0 l/m 3,5 km/h (1 Bft) O 82 0 min 0,000 mm 0,0 UV-I 0 W/m -0,7 C 0,1 C 4,8 km/h (1 Bft) 95,74 %
18.11.2018 23:04 0,1 C 5,0 C 0,0 C 94 % 1018,5 hPa 0,0 l/m 3,1 km/h (1 Bft) O 81 0 min 0,000 mm 0,0 UV-I 0 W/m -0,7 C 0,1 C 4,8 km/h (1 Bft) 97,92 %
18.11.2018 23:06 0,1 C 5,0 C 0,0 C 94 % 1018,5 hPa 0,0 l/m 3,5 km/h (1 Bft) NO 51 0 min 0,000 mm 0,0 UV-I 0 W/m -0,7 C 0,1 C 4,8 km/h (1 Bft) 94,00 %
18.11.2018 23:08 0,1 C 5,0 C 0,0 C 94 % 1018,5 hPa 0,0 l/m 2,7 km/h (1 Bft) O 80 0 min 0,000 mm 0,0 UV-I 0 W/m -0,7 C 0,1 C 4,8 km/h (1 Bft) 100,00 %
18.11.2018 23:10 0,1 C 5,0 C 0,0 C 94 % 1018,5 hPa 0,0 l/m 3,2 km/h (1 Bft) O 80 0 min 0,000 mm 0,0 UV-I 0 W/m -0,7 C 0,1 C 4,8 km/h (1 Bft) 93,62 %
18.11.2018 23:12 0,1 C 5,0 C 0,0 C 94 % 1018,4 hPa 0,0 l/m 4,5 km/h (1 Bft) O-NO 63 0 min 0,000 mm 0,0 UV-I 0 W/m -0,7 C 0,1 C 6,4 km/h (2 Bft) 98,00 %
18.11.2018 23:14 0,1 C 5,0 C 0,0 C 94 % 1018,4 hPa 0,0 l/m 4,8 km/h (1 Bft) NO 50 0 min 0,000 mm 0,0 UV-I 0 W/m -0,7 C 0,1 C 6,4 km/h (2 Bft) 100,00 %
18.11.2018 23:16 0,1 C 5,0 C 0,0 C 94 % 1018,4 hPa 0,0 l/m 4,5 km/h (1 Bft) O-NO 57 0 min 0,000 mm 0,0 UV-I 0 W/m -0,7 C 0,1 C 6,4 km/h (2 Bft) 100,00 %
18.11.2018 23:18 0,1 C 5,0 C 0,0 C 94 % 1018,4 hPa 0,0 l/m 4,7 km/h (1 Bft) O-NO 67 0 min 0,000 mm 0,0 UV-I 0 W/m -0,7 C 0,1 C 6,4 km/h (2 Bft) 97,87 %
18.11.2018 23:20 0,1 C 5,0 C 0,0 C 94 % 1018,3 hPa 0,0 l/m 3,3 km/h (1 Bft) O 97 0 min 0,000 mm 0,0 UV-I 0 W/m -0,7 C 0,1 C 4,8 km/h (1 Bft) 95,74 %
18.11.2018 23:22 0,1 C 5,0 C 0,0 C 94 % 1018,3 hPa 0,0 l/m 3,3 km/h (1 Bft) O 96 0 min 0,000 mm 0,0 UV-I 0 W/m -0,7 C 0,1 C 4,8 km/h (1 Bft) 100,00 %
18.11.2018 23:24 0,1 C 5,0 C 0,0 C 94 % 1018,3 hPa 0,0 l/m 3,4 km/h (1 Bft) O-NO 64 0 min 0,000 mm 0,0 UV-I 0 W/m -0,7 C 0,1 C 4,8 km/h (1 Bft) 97,92 %
18.11.2018 23:26 0,1 C 5,0 C 0,0 C 94 % 1018,3 hPa 0,0 l/m 3,8 km/h (1 Bft) O-NO 75 0 min 0,000 mm 0,0 UV-I 0 W/m -0,7 C 0,1 C 4,8 km/h (1 Bft) 97,87 %
18.11.2018 23:28 0,1 C 5,0 C 0,0 C 95 % 1018,2 hPa 0,0 l/m 4,1 km/h (1 Bft) O-NO 77 0 min 0,000 mm 0,0 UV-I 0 W/m -0,6 C 0,1 C 6,4 km/h (2 Bft) 97,87 %
18.11.2018 23:30 0,1 C 5,0 C 0,0 C 95 % 1018,2 hPa 0,0 l/m 3,6 km/h (1 Bft) O 82 0 min 0,000 mm 0,0 UV-I 0 W/m -0,6 C 0,1 C 4,8 km/h (1 Bft) 100,00 %
18.11.2018 23:32 0,0 C 5,0 C 0,0 C 95 % 1018,2 hPa 0,0 l/m 3,1 km/h (1 Bft) O 82 0 min 0,000 mm 0,0 UV-I 0 W/m -0,7 C 0,0 C 4,8 km/h (1 Bft) 97,87 %
18.11.2018 23:34 0,1 C 5,0 C 0,0 C 95 % 1018,2 hPa 0,0 l/m 3,7 km/h (1 Bft) NO 51 0 min 0,000 mm 0,0 UV-I 0 W/m -0,6 C 0,1 C 4,8 km/h (1 Bft) 93,62 %
18.11.2018 23:36 0,0 C 5,0 C 0,0 C 95 % 1018,2 hPa 0,0 l/m 4,3 km/h (1 Bft) O-NO 62 0 min 0,000 mm 0,0 UV-I 0 W/m -0,7 C 0,0 C 4,8 km/h (1 Bft) 97,87 %
18.11.2018 23:38 0,0 C 5,0 C 0,0 C 95 % 1018,2 hPa 0,0 l/m 3,3 km/h (1 Bft) O-NO 63 0 min 0,000 mm 0,0 UV-I 0 W/m -0,7 C 0,0 C 4,8 km/h (1 Bft) 98,00 %
18.11.2018 23:40 0,0 C 5,0 C 0,0 C 95 % 1018,0 hPa 0,0 l/m 2,8 km/h (1 Bft) O-NO 60 0 min 0,000 mm 0,0 UV-I 0 W/m -0,7 C 0,0 C 4,8 km/h (1 Bft) 100,00 %
18.11.2018 23:42 0,0 C 5,0 C 0,0 C 95 % 1018,0 hPa 0,0 l/m 3,3 km/h (1 Bft) O-NO 57 0 min 0,000 mm 0,0 UV-I 0 W/m -0,7 C 0,0 C 4,8 km/h (1 Bft) 100,00 %
18.11.2018 23:44 0,0 C 5,0 C 0,0 C 95 % 1018,0 hPa 0,0 l/m 3,4 km/h (1 Bft) NO 53 0 min 0,000 mm 0,0 UV-I 0 W/m -0,7 C 0,0 C 4,8 km/h (1 Bft) 95,74 %
18.11.2018 23:46 0,0 C 5,0 C 0,0 C 95 % 1017,9 hPa 0,0 l/m 3,1 km/h (1 Bft) NO 46 0 min 0,000 mm 0,0 UV-I 0 W/m -0,7 C 0,0 C 4,8 km/h (1 Bft) 94,74 %
18.11.2018 23:48 0,0 C 5,0 C 0,0 C 95 % 1017,9 hPa 0,0 l/m 3,2 km/h (1 Bft) O-NO 57 0 min 0,000 mm 0,0 UV-I 0 W/m -0,7 C 0,0 C 4,8 km/h (1 Bft) 97,87 %
18.11.2018 23:50 0,0 C 5,0 C 0,0 C 95 % 1017,9 hPa 0,0 l/m 3,4 km/h (1 Bft) NO 46 0 min 0,000 mm 0,0 UV-I 0 W/m -0,7 C 0,0 C 4,8 km/h (1 Bft) 98,00 %
18.11.2018 23:52 0,0 C 5,0 C 0,0 C 95 % 1017,9 hPa 0,0 l/m 2,3 km/h (1 Bft) NO 49 0 min 0,000 mm 0,0 UV-I 0 W/m -0,7 C 0,0 C 3,2 km/h (1 Bft) 98,00 %
18.11.2018 23:54 0,0 C 5,0 C 0,0 C 95 % 1017,9 hPa 0,0 l/m 2,5 km/h (1 Bft) NO 49 0 min 0,000 mm 0,0 UV-I 0 W/m -0,7 C 0,0 C 3,2 km/h (1 Bft) 93,62 %
18.11.2018 23:56 0,0 C 5,0 C 0,0 C 95 % 1018,0 hPa 0,0 l/m 1,9 km/h (1 Bft) NO 49 0 min 0,000 mm 0,0 UV-I 0 W/m -0,7 C 0,0 C 3,2 km/h (1 Bft) 94,00 %
18.11.2018 23:58 0,0 C 5,0 C 0,0 C 95 % 1017,9 hPa 0,0 l/m 2,5 km/h (1 Bft) NO 50 0 min 0,000 mm 0,0 UV-I 0 W/m -0,7 C 0,0 C 3,2 km/h (1 Bft) 97,87 %
_ Min-Zeit 07:38 04:26 05:56 12:34 23:46 - 23:56 - - - - - - 07:00 02:02 23:52 00:02
Minimum _ -1,3 C 5,0 C -2,2 C 64 % 1017,9 hPa - 1,9 km/h (1 Bft) - - - - - - -5,1 C -12,8 C 3,2 km/h (1 Bft) 10,00 %
_ Max-Zeit 14:02 00:00 13:00 23:28 00:42 22:52 02:02 - - 13:49 13:00 10:52 11:50 23:28 16:12 03:50 00:00
Maximum _ 5,0 C 5,6 C 5,6 C 95 % 1028,9 hPa 0,2 l/m 26,8 km/h
O-NO (4 Bft)
- - 3 min 0,178 mm 0,6 UV-I 340 W/m -0,6 C 2,3 C 40,2 km/h
O (6 Bft)
100,00 %
Durchschnitt _ 1,2 C 5,1 C 0,8 C 76 % 1023,5 hPa #0,2 l/m 14,3 km/h (3 Bft) O-NO - #7:58 h #1,372 mm 0,6 UV-I 188 W/m -2,6 C -4,7 C 20,5 km/h (4 Bft) 96,52 %